     2              OBSERVATION DATA    GPS                 RINEX VERSION / TYPE
teqc 1997Sep28 Duncan Agnew 19980804 18:57:25UTC            PGM / RUN BY / DATE
                                                            COMMENT
Original Marker Name: USGS R CUT 1982                       COMMENT
Campaign Name: Anza Transect Fall 92-Spring 93              COMMENT
4-Character Station Name: RCUT                              COMMENT
6-Character Antenna Code: TRMSST                            COMMENT
Vertical Measurement Point: BGP                             COMMENT
Vertical Offset to Rinex Ref. Point: 0.0597                 COMMENT
Radial Measurement Point: NGP                               COMMENT
Radial Offset to Rinex Ref. Point: 0.2334                   COMMENT
Antenna Height from Field Measurement: 1.1810 m             COMMENT
Original XYZ: -2382226.4680 -4758116.2358 3507374.2080      COMMENT
New XYZ position is based on association with SCEC monument COMMENT
E1D0K4H9+0011. Position of that monument is believed to be  COMMENT
valid to within 1 m horizontally; vertical accuracy         COMMENT
should be no worse than 3-times this value.                 COMMENT
                                                            COMMENT
Revised Rinex header created by UCSD GPS archive for        COMMENT
GSAC on 12-Apr-1999 (1999:102) 08:23:55 GMT                 COMMENT
For assistance contact dagnew@ucsd.edu or hjohnson@ucsd.edu COMMENT
                                                            COMMENT
USGS R CUT 1982                                             MARKER NAME
Akulian SCRIPPS INSTITUTION OF OCEANOGRAPHY                 OBSERVER / AGENCY
436 TRIMBLE 4000 SST NP 4.64 / SP 4.20                      REC # / TYPE / VERS
26 TR 4000SST L1/L2 GEO                                     ANT # / TYPE
 -2382224.0000 -4758106.0000  3507373.0000                  APPROX POSITION XYZ
        1.0980        0.0000        0.0000                  ANTENNA: DELTA H/E/N
     1     1     0                                          WAVELENGTH FACT L1/2
     3    C1    L1    L2                                    # / TYPES OF OBSERV
     0                                                      INTERVAL
  1993     5    21    15    47   30.000000                  TIME OF FIRST OBS
  1993     5    21    22    26   30.000000                  TIME OF LAST OBS
     0                                                      # OF SATELLITES
                                                            END OF HEADER
 93  5 21 15 47 30.0000000  0  6G18G19G27G28G 2G29
  20351047.5234         -0.34657
  21034413.383          -0.97316
  22791351.4844         -0.50756
  23443599.2114         -0.54256
  24717598.4844         -0.70254
  22113830.4304         -0.18257
 93  5 21 15 48  0.0000000  0  6G18G19G27G28G 2G29
  20347487.4924     -18703.69547        -0.36872
  21025702.6254     -45771.56446        -0.43873
  22773694.0004     -92809.47946        -0.05771
  23439788.844      -20037.005 6        -0.28831
  24694369.3754    -122033.44344
  22122312.945       44585.462 7
 93  5 21 15 48 15.0000000  0  6G18G19G27G28G 2G29
  20345743.9224     -27871.51647     -7144.12662
  21021362.6564     -68586.72746    -17778.48463
  22764867.6024    -139173.68446    -36127.99661
  23437917.195      -29856.584 6     -7651.92521
  24682768.6094    -183003.68443        -0.44571
  22126580.891       67016.012 7
 93  5 21 15 48 30.0000000  0  6G18G19G27G28G 2G29
  20344021.6254     -36920.98647    -14195.66062
  21017027.6954     -91355.62346    -35520.47663
  22756051.875     -185511.308 6    -72235.20821
  23436075.7814     -39546.69146    -15202.65461
  24671171.461     -243940.772 4    -47483.85121
  22130868.6094      89535.51747        -0.27172
 93  5 21 15 48 45.0000000  0  6G18G19G27G28G 2G29
  20342321.7894     -45856.83347    -21158.65262
  21012706.1564    -114079.09646    -53227.07563
  22747238.8914    -231822.14846   -108321.57961
  23434256.0704     -49106.29846    -22651.71061
  24659580.406     -304845.152 3    -94941.80921
  22135166.688      112140.795 6     17614.21522
 93  5 21 15 49  0.0000000  0  6G18G19G27G28G 2G29
  20340644.5634     -54671.46147    -28027.19262
  21008390.3364    -136749.26746    -70892.13863
  22738431.484     -278099.935 5   -144382.16621
  23432465.0164     -58528.08046    -29993.36261
  24648007.2664    -365707.22444   -142366.76761
  22139489.6804     134838.74346     35300.91662
 93  5 21 15 49 15.0000000  0  6G18G19G27G28G 2G29
  20338990.1094     -63370.47847    -34805.64362
  21004086.6254    -159373.66946    -88521.54362
  22729628.727     -324352.710 5   -180423.26521
  23430696.258      -67815.017 6    -37229.95521
  24636423.859     -426528.169 3   -189759.68021
  22143821.234      157621.764 6     53053.90222
 93  5 21 15 49 30.0000000  0  6G18G19G27G28G 2G29
  20337355.5394     -71949.09547    -41490.28362
  20999789.5394    -181947.86246   -106111.82862
  22720833.4454    -370576.84046   -216442.06761
  23428956.4614     -76963.09246    -44358.35061
  24624858.3834    -487298.49644   -237113.15561
  22148176.336      180488.239 7     70871.90822
 93  5 21 15 49 45.0000000  0  6G18G19G27G28G 2G29
  20335747.6564     -80403.42447    -48078.07362
  20995506.2424    -204470.60746   -123662.01462
  22712044.2034    -416768.57646   -252435.61761
  23427243.8364     -85970.22046    -51376.90661
  24613310.5234    -548013.60544   -284423.61061
  22152544.8984     203438.78147     88755.44361
 93  5 21 15 50  0.0000000  0  6G18G19G27G28G 2G29
  20334163.0634     -88733.43048    -54568.98762
  20991227.8364    -226944.51546   -141174.15562
  22703260.344     -462928.258 6   -288404.19421
  23425550.914      -94836.629 6    -58285.81121
  24601762.703     -608675.553 4   -331692.64221
  22156923.023      226472.923 6    106704.10522
 93  5 21 15 50 15.0000000  0  6G18G19G27G28G 2G29
  20332600.7974     -96936.29548    -60960.83662
  20986960.0944    -249368.94646   -158647.74062
  22694484.367     -509054.444 6   -324346.65821
  23423890.7114    -103560.62046    -65083.72261
  24590234.7034    -669284.59444   -378920.44461
  22161323.859      249592.732 6    124719.52022
 93  5 21 15 50 30.0000000  0  6G18G19G27G28G 2G29
  20331065.0554    -105009.54548    -67251.68162
  20982700.4774    -271739.13546   -176079.04662
  22685708.891     -555141.499 6   -360258.62121
  23422262.2734    -112138.58346    -71767.84961
  24578718.0634    -729835.73345   -426103.11661
  22165740.3984     272801.45346    142804.22462
 93  5 21 15 50 45.0000000  0  6G18G19G27G28G 2G29
  20329553.4224    -112954.55747    -73442.60762
  20978456.1024    -294056.63246   -193469.29963
  22676950.0314    -601194.40646   -396143.98461
  23420656.4614    -120570.82446    -78338.42461
  24567196.9304    -790330.91344   -473242.17061
  22170171.109      296100.687 6    160959.45221
 93  5 21 15 51  0.0000000  0  6G18G19G27G28G 2G29
  20328068.0704    -120765.60947    -79529.14162
  20974218.6884    -316322.49346   -210819.31663
  22668194.500     -647213.309 6   -432002.85021
  23419079.4534    -128857.43246    -84795.55261
  24555695.2424    -850771.50044   -520338.71061
  22174627.195      319492.972 6    179187.18721
 93  5 21 15 51 15.0000000  0  6G18G19G27G28G 2G29
  20326605.4534    -128442.25847    -85510.94962
  20969991.7114    -338538.82446   -228130.73463
  22659442.3984    -693201.45246   -467837.75761
  23417531.9614    -136998.52746    -91139.29261
  24544205.0234    -911159.14744   -567394.01061
  22179095.1484     342977.69146    197486.95761
 93  5 21 15 51 30.0000000  0  6G18G19G27G28G 2G29
  20325169.6024    -135989.91847    -91392.24962
  20965772.6804    -360708.79346   -245406.04163
  22650693.305     -739163.059 6   -503651.97621
  23416010.0314    -144998.76546    -97373.27461
  24532718.352     -971502.142 4   -614414.49221
  22183580.680      366551.416 6    215856.07921
 93  5 21 15 51 45.0000000  0  6G18G19G27G28G 2G29
  20323759.5634    -143411.60647    -97175.38662
  20961562.3284    -382832.87646   -262645.57663
  22641952.617     -785099.920 6   -539446.91321
  23414508.672     -152861.768 6   -103500.31021
  24521244.258    -1031805.233 4   -661403.89021
  22188084.734      390216.627 6    234296.48621
 93  5 21 15 52  0.0000000  0  6G18G19G27G28G 2G29
  20322369.3834    -150706.27247   -102859.54562
  20957361.2504    -404905.96046   -279845.37963
  22633218.984     -831007.065 6   -575218.70521
  23413045.3364    -160582.25846   -109516.28561
  24509781.172    -1092067.121 4   -708361.21221
  22192610.422      413981.490 6    252814.53921
 93  5 21 15 52 15.0000000  0  6G18G19G27G28G 2G29
  20321005.2194    -157871.73347   -108443.02562
  20953172.9454    -426925.40246   -297003.39263
  22624486.6174    -876881.58146   -610965.07061
  23411606.094     -168155.482 6   -115417.52021
  24498320.055    -1152283.118 4   -755282.70421
  22197146.742      437851.881 6    271414.81921
 93  5 21 15 52 30.0000000  0  6G18G19G27G28G 2G29
  20319666.3984    -164909.19547   -113926.76162
  20948989.7734    -448893.51846   -314121.40063
  22615763.172     -922725.617 6   -646687.68821
  23410188.3984    -175583.22846   -121205.38561
  24486872.930    -1212453.103 4   -802168.41621
  22201709.195      461825.368 6    290095.43421
 93  5 21 15 52 45.0000000  0  6G18G19G27G28G 2G29
  20318351.3444    -171820.40247   -119312.11862
  20944824.3444    -470811.33146   -331200.21863
  22607042.0084    -968544.65646   -682390.82861
  23408799.8444    -182866.95746   -126881.04461
  24475432.8914   -1272577.07644   -849018.23261
  22206295.211      485899.074 7    308854.14621
 93  5 21 15 53  0.0000000  0  6G18G19G27G28G 2G29
  20317059.9534    -178605.48947   -124599.19762
  20940657.8364    -492679.87746   -348240.64263
  22598328.375    -1014341.569 6   -718076.72521
  23407444.883     -190008.265 6   -132445.71221
  24463999.367    -1332656.887 4   -895833.62421
  22210892.9384     510069.39146    327688.15462
 93  5 21 15 53 15.0000000  0  6G18G19G27G28G 2G29
  20315791.3524    -185264.65247   -129788.15562
  20936510.5634    -514496.77246   -365240.82263
  22589618.4844   -1060113.16846   -753742.88761
  23406115.531     -197006.258 6   -137898.71721
  24452574.3914   -1392691.13144   -942613.55161
  22215511.047      534332.720 7    346594.63222
 93  5 21 15 53 30.0000000  0  6G18G19G27G28G 2G29
  20314552.6644    -191792.11547   -134874.49462
  20932370.5314    -536252.64246   -382193.43763
  22580917.8284   -1105851.55746   -789383.17961
  23404810.766     -203853.605 6   -143234.33321
  24441161.953    -1452669.137 4   -989349.60821
  22220146.500      558696.100 6    365579.05522
 93  5 21 15 53 45.0000000  0  6G18G19G27G28G 2G29
  20313334.0084    -198193.47347   -139862.56662
  20928241.9224    -557956.02346   -399105.15963
  22572219.1334   -1151560.60046   -825000.61961
  23403532.625     -210555.731 6   -148456.79021
  24429756.250    -1512594.915 4  -1036044.99921
  22224800.781      583153.619 6    384636.84921
 93  5 21 15 54  0.0000000  0  6G18G19G27G28G 2G29
  20312140.6484    -204468.74647   -144752.38562
  20924116.7034    -579610.50846   -415978.78463
  22563525.8834   -1197238.69246   -860593.92961
  23402284.6334    -217112.26346   -153565.78961
  24418366.180    -1572469.691 5  -1082700.64921
  22229471.430      607702.999 6    403766.20621
 93  5 21 15 54 15.0000000  0  6G18G19G27G28G 2G29
  20310968.3054    -210612.49747   -149539.72862
  20920007.9144    -601215.86046   -432814.12363
  22554840.6174   -1242884.67346   -896162.21861
  23401066.2424    -223520.33746   -158559.09461
  24406981.1174   -1632291.58245  -1129315.07461
  22234160.3444     632343.00346    422966.20261
 93  5 21 15 54 30.0000000  0  6G18G19G27G28G 2G29
  20309824.9224    -216627.32747   -154226.60462
  20915901.8754    -622777.25246   -449615.20463
  22546156.7114   -1288506.24846   -931711.48961
  23399875.7344    -229787.32346   -163442.48561
  24395615.922    -1692066.641 5  -1175893.01821
  22238864.406      657065.555 6    442230.50821
 93  5 21 15 54 45.0000000  0  6G18G19G27G28G 2G29
  20308704.7424    -222513.21647   -158813.01562
  20911810.4694    -644293.10646   -466380.79563
  22537483.6884   -1334102.72746   -967241.21061
  23398710.391     -235914.992 5   -168217.33021
  24384239.086    -1751797.463 5  -1222436.48521
  22243583.125      681868.820 6    461557.69721
 93  5 21 15 55  0.0000000  0  6G18G19G27G28G 2G29
  20307607.4304    -228276.14047   -163303.61262
  20907721.3204    -665767.47746   -483114.07162
  22528809.680    -1379678.535 6  -1002754.81621
  23397564.9774    -241909.68845   -172888.53061
  24372882.1724   -1811492.65045  -1268952.20161
  22248316.313      706749.369 6    480945.12821
 93  5 21 15 55 15.0000000  0  6G18G19G27G28G 2G29
  20306537.4774    -233907.46847   -167691.65462
  20903645.6334    -687193.39946   -499809.60463
  22520142.6414   -1425220.81246  -1038242.29361
  23396446.391     -247762.767 5   -177449.38721
  24361526.6024   -1871145.58945  -1315434.97361
  22253070.9144     731715.72547    500399.40961
 93  5 21 15 55 30.0000000  0  6G18G19G27G28G 2G29
  20305489.8674    -239410.67447   -171979.88262
  20899571.2114    -708577.04846   -516472.17763
  22511482.266    -1470731.856 6  -1073705.42121
  23395363.3674    -253475.75045   -181901.08461
  24350184.8674   -1930759.23545  -1361887.13861
  22257838.328      756766.860 7    519919.74221
 93  5 21 15 55 45.0000000  0  6G18G19G27G28G 2G29
  20304467.8984    -244783.57047   -176166.56462
  20895514.8284    -729918.27646   -533101.69763
  22502827.383    -1516212.011 6  -1109144.48821
  23394308.922     -259047.588 5   -186242.81721
  24338847.703    -1990334.086 5  -1408309.07721
  22262619.6174     781904.94546    539507.82561
 93  5 21 15 56  0.0000000  0  6G18G19G27G28G 2G29
  20303469.6334    -250030.04647   -180254.73662
  20891459.8134    -751219.39946   -549699.97963
  22494178.5944   -1561666.44246  -1144563.51661
  23393269.1414    -264481.71045   -190477.22061
  24327511.2194   -2049875.16644  -1454704.69361
  22267420.586      807124.873 7    559159.69621
 93  5 21 15 56 15.0000000  0  6G18G19G27G28G 2G29
  20302497.4384    -255145.66947   -184240.93762
  20887418.6254    -772473.51546   -566261.62463
  22485535.984    -1607093.720 6  -1179961.36721
  23392263.3134    -269775.52145   -194602.26961
  24316196.617    -2109378.661 4  -1501071.01321
  22272234.2664     832430.42446    578878.30161
 93  5 21 15 56 30.0000000  0  6G18G19G27G28G 2G29
  20301544.5004    -260133.33247   -188127.43462
  20883381.1644    -793680.80446   -582786.78263
  22476892.3914   -1652495.32646  -1215339.22861
  23391286.1804    -274931.11446   -198619.60761
  24304875.1254   -2168843.18544  -1547406.98861
  22277067.328      857817.548 6    598660.45321
 93  5 21 15 56 45.0000000  0  6G18G19G27G28G 2G29
  20300620.4774    -264991.93147   -191913.35462
  20879355.4774    -814838.67446   -599273.43763
  22468263.1954   -1697864.14246  -1250691.54661
  23390335.1724    -279945.11946   -202526.65361
  24293568.719    -2228263.765 4  -1593708.70321
  22281913.8364     883290.47046    618509.47262
 93  5 21 15 57  0.0000000  0  6G18G19G27G28G 2G29
  20299720.8914    -269721.78047   -195598.95762
  20875337.6174    -835944.50346   -615719.53363
  22459629.9304   -1743196.52746  -1286015.47061
  23389405.2344    -284816.56046   -206322.61161
  24282271.8444   -2287637.85545  -1639974.18961
  22286776.141      908852.065 6    638427.58121
 93  5 21 15 57 15.0000000  0  6G18G19G27G28G 2G29
  20298843.2894    -274328.24647   -199188.42262
  20871333.6024    -857003.63746   -632129.24163
  22451013.633    -1788495.916 6  -1321313.68621
  23388496.586     -289549.873 6   -210010.92621
  24270979.219    -2346969.178 5  -1686206.34321
  22291656.797      934499.007 6    658412.18921
 93  5 21 15 57 30.0000000  0  6G18G19G27G28G 2G29
  20297992.0234    -278809.74547   -202680.50462
  20867331.5164    -878015.26046   -648501.93463
  22442399.5164   -1833760.04946  -1356584.43661
  23387622.625     -294144.653 5   -213591.26921
  24259694.8054   -2406253.74545  -1732402.08161
  22296552.461      960232.548 6    678464.28921
 93  5 21 15 57 45.0000000  0  6G18G19G27G28G 2G29
  20297162.7584    -283169.44547
  20863345.1724    -898978.56846   -664836.98663
  22433794.516    -1878992.936 6  -1391830.82921
  23386775.1484    -298604.44446
  24248434.2194   -2465491.77145  -1778561.54561
  22301467.664      986051.551 6    698582.97421
 93  5 21 15 58  0.0000000  0  6G18G19G27G28G 2G29
  20296357.2194    -287400.71447
  20859366.7194    -919885.17346   -681127.84663
  22425187.242    -1924187.374 6  -1427047.24821
  23385954.9534    -302926.28546
  24237169.172    -2524677.710 5  -1824680.43321
  22306399.6884    1011963.22547    718773.85661
 93  5 21 15 58 15.0000000  0  6G18G19G27G28G 2G29
  20295575.5314    -291508.98747
  20855397.4844    -940739.69146   -697378.11763
  22416599.594    -1969345.356 6  -1462235.28921
  23385154.5864    -307113.93546
  24225905.344    -2583814.522 5  -1870761.03321
  22311350.3204    1037964.55746    739034.61161
 93  5 21 15 58 30.0000000  0  6G18G19G27G28G 2G29
  20294818.8444    -295493.54947
  20851436.1884    -961542.79546   -713588.33063
  22408012.5164   -2014464.56046  -1497393.09161
  23384380.0314    -311167.71546
  24214666.8914   -2642902.56145  -1916803.62561
  22316314.1484    1064053.62346    759363.69861
 93  5 21 15 58 45.0000000  0  6G18G19G27G28G 2G29
  20294081.4144    -299357.44147
  20847489.7034    -982295.28746   -729759.10363
  22399432.0634   -2059546.30146  -1532521.70961
  23383639.7734    -315090.99946
  24203436.227    -2701941.160 5  -1962807.70121
  22321290.3524    1090230.66846    779761.35061
 93  5 21 15 59  0.0000000  0  6G18G19G27G28G 2G29
  20293369.5164    -303100.57347
  20843546.0394   -1002995.94746   -745889.47763
  22390863.1094   -2104594.45146  -1567624.16961
  23382916.8054    -318883.42046
  24192208.742    -2760932.771 5  -2008775.16821
  22326293.563     1116498.115 6    800229.47021
 93  5 21 15 59 15.0000000  0  6G18G19G27G28G 2G29
  20292681.5704    -306722.13148
  20839621.5314   -1023642.08646   -761977.38563
  22382291.344    -2149614.240 6  -1602704.49521
  23382221.0394    -322543.48746
  24180996.156    -2819878.167 5  -2054706.60121
  22331307.7814    1142856.07746    820768.13461
 93  5 21 15 59 30.0000000  0  6G18G19G27G28G 2G29
  20292016.227     -310220.248 8
  20835699.7274   -1044237.07046   -778025.41863
  22373735.5474   -2194609.10246  -1637765.42661
  23381551.0944    -326068.69746
  24169785.977    -2878776.279 5  -2100601.18221
  22336339.4774    1169301.93946    841375.29761
 93  5 21 15 59 45.0000000  0  6G18G19G27G28G 2G29
  20291374.391     -313592.068 7
  20831792.9694   -1064777.70646   -794031.10763
  22365175.508    -2239579.742 6  -1672807.45621
  23380907.4144    -329455.40446
  24158573.8914   -2937625.15245  -2146457.41961
  22341390.7344    1195836.38746    862051.44961
 93  5 21 16  0  0.0000000  0  6G18G19G27G28G 2G29
  20290756.0864    -316835.43047
  20827897.8914   -1085261.60146   -809992.58663
  22356623.5784   -2284525.20146  -1707829.88961
  23380292.7114    -332699.06546
  24147393.734    -2996423.350 5  -2192274.17721
  22346456.3364    1222459.52046    882796.73061
 93  5 21 16  0 15.0000000  0  6G18G19G27G28G 2G29
  20290163.0084    -319951.99647
  20824010.3594   -1105693.09046   -825913.22463
  22348072.3984   -2329447.88646  -1742834.56261
  23379700.9534    -335797.79646
  24136214.133    -3055175.174 5  -2238054.78821
  22351538.492     1249165.988 6    903606.95621
 93  5 21 16  0 30.0000000  0  6G18G19G27G28G 2G29
  20289595.0704    -322940.97347
  20820127.2814   -1126073.06546   -841793.71963
  22339532.7194   -2374349.15446  -1777822.56461
  23379139.6024    -338749.54046
  24125042.2664   -3113880.70645  -2283799.32261
  22356633.4614    1275953.33046    924480.17961
 93  5 21 16  0 45.0000000  0  6G18G19G27G28G 2G29
  20289051.0004    -325799.72347
  20816261.0164   -1146400.06446   -857632.95362
  22330987.1024   -2419227.92246  -1812793.01761
  23378603.3134    -341553.15746
  24113875.742    -3172536.767 5  -2329505.33221
  22361748.0554    1302823.72246    945418.11461
 93  5 21 16  1  0.0000000  0  6G18G19G27G28G 2G29
  20288530.8054    -328533.29747
  20812402.0704   -1166677.53946   -873433.57563
  22322452.0944   -2464088.39446  -1847749.21861
  23378098.0704    -344210.83646
  24102729.8364   -3231148.43945  -2375176.73661
  22366876.2584    1329775.28646    966419.28761
 93  5 21 16  1 15.0000000  0  6G18G19G27G28G 2G29
  20288033.0554    -331140.00847   -243457.44662
  20808554.3674   -1186906.22946   -889196.19163
  22313919.258    -2508928.228 6  -1882689.32821
  23377623.1484    -346719.75946   -254558.59061
  24091588.188    -3289718.260 5  -2420815.51721
  22372018.9064    1356803.12746    987479.91061
 93  5 21 16  1 30.0000000  0  6G18G19G27G28G 2G29
  20287562.1564    -333618.89047   -245389.04862
  20804710.8134   -1207086.87446   -904921.36663
  22305392.023    -2553744.294 6  -1917610.92221
  23377172.672     -349081.191 6   -256398.69721
  24080442.461    -3348244.170 5  -2466420.09021
  22377181.625     1383907.055 6   1008599.83821
 93  5 21 16  1 45.0000000  0  6G18G19G27G28G 2G29
  20287117.328     -335968.200 7   -247219.68622
  20800881.4064   -1227221.05446   -920610.33763
  22296868.398    -2598529.511 6  -1952508.47321
  23376749.367     -351296.169 6   -258124.66921
  24069322.2344   -3406724.56145  -2511989.19761
  22382351.1884    1411088.65946   1029780.27561
 93  5 21 16  2  0.0000000  0  6G18G19G27G28G 2G29
  20286690.8204    -338189.59147   -248950.64762
  20797057.8524   -1247308.26046   -936262.71163
  22288354.0784   -2643280.98546  -1987379.74961
  23376358.3054    -353369.73746   -259740.43361
  24058201.0944   -3465158.50145  -2557522.09261
  22387536.3984    1438349.50546   1051022.45761
 93  5 21 16  2 15.0000000  0  6G18G19G27G28G 2G29
  20286292.6484    -340290.45547   -250587.68962
  20793246.5234   -1267356.75846   -951884.91063
  22279842.1254   -2688004.64846  -2022229.35261
  23375993.203     -355311.466 6   -261253.51121
  24047083.320    -3523552.414 5  -2603023.81521
  22392737.977     1465684.622 6   1072322.51521
 93  5 21 16  2 30.0000000  0  6G18G19G27G28G 2G29
  20285916.1954    -342263.53047   -252125.15762
  20789436.4064   -1287358.98946   -967471.06163
  22271337.9614   -2732694.13846  -2057052.33661
  23375648.4454    -357118.74346   -262661.80761
  24035978.453    -3581897.173 5  -2648487.21721
  22397955.5314    1493101.09446   1093685.98861
 93  5 21 16  2 45.0000000  0  6G18G19G27G28G 2G29
  20285565.2664    -344114.72548   -253567.65862
  20785642.5004   -1307318.85546   -983024.19963
  22262839.1024   -2777353.54346  -2091851.87361
  23375324.4304    -358799.93345   -263971.83161
  24024883.664    -3640192.997 5  -2693912.49021
  22403190.852     1520598.666 6   1115112.64721
 93  5 21 16  3  0.0000000  0  6G18G19G27G28G 2G29
  20285234.6094    -345842.93847   -254914.32562
  20781846.5474   -1327234.96646   -998543.25263
  22254347.984    -2821982.749 6  -2126627.86321
  23375026.6564    -360354.41145   -265183.11561
  24013807.2274   -3698438.35145  -2739298.44161
  22408439.383     1548179.618 6   1136604.27721
 93  5 21 16  3 15.0000000  0  6G18G19G27G28G 2G29
  20284931.1564    -347450.19547   -256166.74162
  20778067.7114   -1347110.69446  -1014030.83863
  22245859.664    -2866587.029 6  -2161384.42821
  23374754.008     -361785.461 6   -266298.23021
  24002734.1954   -3756637.07645  -2784648.07261
  22413700.531     1575839.917 6   1158157.71221
 93  5 21 16  3 30.0000000  0  6G18G19G27G28G 2G29
  20284647.5474    -348933.29247   -257322.40662
  20774293.5004   -1366948.86246  -1029489.15363
  22237373.7584   -2911165.67646  -2196121.01461
  23374508.883     -363094.243 6   -267318.10921
  23991667.6334   -3814783.47645  -2829956.92561
  22418984.1954    1603583.62546   1179776.15861
 93  5 21 16  3 45.0000000  0  6G18G19G27G28G 2G29
  20284389.4144    -350292.72247   -258381.70862
  20770524.6804   -1386752.17246  -1044920.29963
  22228896.1174   -2955720.53246  -2230839.06261
  23374280.0234    -364282.01745   -268243.68161
  23980614.9694   -3872876.33045  -2875224.05461
  22424275.313     1631412.867 6   1201461.22921
 93  5 21 16  4  0.0000000  0  6G18G19G27G28G 2G29
  20284155.0084    -351525.55347   -259342.36962
  20766763.9694   -1406516.63146  -1060321.17863
  22220424.672    -3000248.347 6  -2265536.05121
  23374075.875     -365344.024 5   -269071.23921
  23969569.469    -3930911.072 5  -2920445.90621
  22429590.148     1659330.502 6   1223215.21521
 93  5 21 16  4 15.0000000  0  6G18G19G27G28G 2G29
  20283944.7894    -352633.74947   -260205.89862
  20763009.4614   -1426239.57846  -1075689.70463
  22211955.3984   -3044754.23146  -2300215.95061
  23373903.656     -366279.189 5   -269799.96221
  23958528.891    -3988890.969 5  -2965624.99421
  22434918.813     1687333.476 6   1245035.69321
 93  5 21 16  4 30.0000000  0  6G18G19G27G28G 2G29
  20283756.7894    -353616.88447   -260971.98262
  20759262.2114   -1445919.90146  -1091025.01863
  22203489.6094   -3089240.02646  -2334880.18461
  23373748.805     -367083.452 6   -270426.66821
  23947515.3204   -4046817.23845  -3010762.32661
  22440264.6024    1715420.41746   1266921.57861
 93  5 21 16  4 45.0000000  0  6G18G19G27G28G 2G29
  20283592.7814    -354472.58747   -261638.76862
  20755528.3754   -1465554.86746  -1106325.00162
  22195031.5314   -3133700.68046  -2369524.85661
  23373624.7814    -367750.07946   -270946.12561
  23936494.617    -4104687.593 5  -3055856.09221
  22445625.9534    1743593.64646   1288874.70161
 93  5 21 16  5  0.0000000  0  6G18G19G27G28G 2G29
  20283453.9304    -355203.51847   -262208.33362
  20751795.9614   -1485149.46946  -1121593.51462
  22186575.148    -3178138.659 6  -2404151.82821
  23373522.047     -368281.293 6   -271360.07621
  23925494.203    -4162509.577 5  -3100912.15221
  22450998.516     1771846.771 6   1310890.09721
 93  5 21 16  5 15.0000000  0  6G18G19G27G28G 2G29
  20283338.8834    -355811.14047   -262681.80862
  20748078.7274   -1504707.03946  -1136833.17762
  22178120.4924   -3222555.35146  -2438762.23461
  23373444.3134    -368678.08946   -271669.29861
  23914498.2194   -4220288.22945  -3145934.44861
  22456390.9064    1800174.77246   1332963.82561
 93  5 21 16  5 30.0000000  0  6G18G19G27G28G 2G29
  20283250.1094    -356291.36447   -263056.01662
  20744363.9384   -1524221.58646  -1152039.31762
  22169676.1644   -3266941.47646  -2473348.82761
  23373393.406     -368935.379 6   -271869.82021
  23903513.633    -4278016.897 5  -3190917.80421
  22461797.9224    1828582.12846   1355099.38261
 93  5 21 16  5 45.0000000  0  6G18G19G27G28G 2G29
  20283181.7974    -356646.31847   -263332.61062
  20740659.4774   -1543693.46146  -1167212.20862
  22161235.086    -3311296.139 6  -2507910.88521
  23373373.9064    -369054.44746
  23892536.992    -4335698.483 5  -3235864.45621
  22467219.320     1857064.609 6   1377293.50521
 93  5 21 16  5 59.9990000  0  6G18G19G27G28G 2G29
  20283138.2454    -356878.68947   -263513.68162
  20736963.9724   -1563117.92046  -1182348.14562
  22152798.808    -3355616.839 6  -2542446.47521
  23373380.3554    -369035.22046
  23881563.6904   -4393332.37145  -3280773.96061
  22472654.0194    1885618.10346   1399542.95561
 93  5 21 16  6 14.9990000  0  6G18G19G27G28G 2G29
  20283113.9564    -356989.88947
  20733274.0114   -1582496.52046  -1197448.34862
  22144369.769    -3399909.803 6  -2576960.46121
  23373410.6834    -368877.49546
  23870617.1904   -4450926.67345  -3325652.61461
  22478095.5584    1914246.13446   1421850.46661
 93  5 21 16  6 29.9990000  0  6G18G19G27G28G 2G29
  20283117.3084    -356980.11447
  20729594.0734   -1601829.13146  -1212512.71662
  22135949.2694   -3444172.07746  -2611450.53961
  23373463.925     -368580.393 6
  23859657.105    -4508478.520 5  -3370498.17921
  22483559.269     1942946.798 6   1444214.57121
 93  5 21 16  6 44.9990000  0  6G18G19G27G28G 2G29
  20283143.2924    -356845.49047
  20725925.4334   -1621117.70046  -1227542.77662
  22127532.1054   -3488399.52946  -2645913.48561
  23373548.1444    -368143.08646   -271252.46961
  23848715.4174   -4565983.24645  -3415307.02761
  22489038.5974    1971721.13646   1466636.09761
 93  5 21 16  6 59.9990000  0  6G18G19G27G28G 2G29
  20283191.2064    -356587.09347
  20722261.7304   -1640365.82746  -1242541.31462
  22119120.3394   -3532595.84846  -2680352.15961
  23373657.5894    -367570.96346   -270806.67961
  23837789.3704   -4623442.86245  -3460080.74161
  22494527.175     2000565.855 6   1489112.45521
 93  5 21 16  7 14.9990000  0  6G18G19G27G28G 2G29
  20283261.0114    -356205.87447   -262989.43262
  20718609.1594   -1659571.59146  -1257506.85062
  22110716.940    -3576763.638 6  -2714768.59821
  23373790.323     -366865.133 6   -270256.69421
  23826856.722    -4680856.115 5  -3504818.29421
  22500028.7144    2029481.98746   1511644.46961
 93  5 21 16  7 29.9990000  0  6G18G19G27G28G 2G29
  20283360.3084    -355702.97647   -262597.56762
  20714959.8624   -1678732.43546  -1272437.37862
  22102318.105    -3620902.348 6  -2749162.39121
  23373954.4484    -366023.38546   -269600.77861
  23815940.284    -4738220.792 5  -3549518.02021
  22505544.1594    2058471.28346   1534233.50061
 93  5 21 16  7 44.9990000  0  6G18G19G27G28G 2G29
  20283478.0114    -355078.95347   -262111.32562
  20711324.3474   -1697849.55246  -1287333.82862
  22093922.792    -3665016.840 6  -2783537.29821
  23374136.0814    -365048.61546   -268841.22261
  23805032.534    -4795538.770 5  -3594181.33021
  22511075.628     2087531.960 6   1556878.17221
 93  5 21 16  7 59.9990000  0  6G18G19G27G28G 2G29
  20283621.4874    -354330.25547   -261527.93362
  20707693.2304   -1716917.13746  -1302191.68562
  22085532.065    -3709106.591 6  -2817892.93521
  23374345.784     -363935.925 6   -267974.22221
  23794132.6364   -4852807.76245  -3638806.50861
  22516617.565     2116669.240 6   1579582.50521
 93  5 21 16  8 14.9990000  0  6G18G19G27G28G 2G29
  20283788.5814    -353458.64447   -260848.76062
  20704076.3234   -1735935.78846  -1317011.41762
  22077143.5344   -3753173.20346  -2852230.54161
  23374584.3154    -362684.83346   -266999.35961
  23783243.948    -4910028.098 5  -3683393.76421
  22522179.9874    2145881.97946   1602345.63061
 93  5 21 16  8 29.9990000  0  6G18G19G27G28G 2G29
  20283977.8944    -352461.84447   -260072.02962
  20700465.6284   -1754903.36846  -1331791.34862
  22068765.2614   -3797216.10146  -2886549.67761
  23374850.526     -361296.173 5   -265917.30521
  23772365.3004   -4967200.13645  -3727943.36061
  22527749.5194    2175170.20246   1625167.58661
 93  5 21 16  8 44.9990000  0  6G18G19G27G28G 2G29
  20284191.7374    -351343.03948   -259200.24262
  20696867.8084   -1773825.48346  -1346535.84462
  22060389.7374   -3841241.31746  -2920855.02361
  23375139.636     -359777.913 5   -264734.25821
  23761498.011    -5024328.920 5  -3772459.27921
  22533340.0734    2204526.79346   1648042.82561
 93  5 21 16  8 59.9990000  0  6G18G19G27G28G 2G29
  20284428.1054    -350097.91148   -258230.02662
  20693272.620    -1792695.036 6  -1361239.40422
  22052014.5034   -3885243.72646  -2955142.61661
  23375449.503     -358123.271 6   -263444.95021
  23750629.065    -5081409.399 5  -3816937.55221
  22538938.5264    2233959.80146   1670977.60561
 93  5 21 16  9 14.9990000  0  6G18G19G27G28G 2G29
  20284688.3474    -348728.69048   -257163.10862
  20689695.5894   -1811507.60946  -1375898.55062
  22043645.8004   -3929220.31046  -2989410.08061
  23375796.0194    -356330.71146   -262048.16261
  23739782.3234   -5138441.67445  -3861378.27961
  22544555.3554    2263472.99546   1693974.86361
 93  5 21 16  9 29.9990000  0  6G18G19G27G28G 2G29
  20284970.9094    -347238.25747   -256001.73562
  20686123.1124   -1830267.30946  -1390516.49962
  22035282.409    -3973173.726 6  -3023659.47921
  23376167.620     -354403.434 6   -260546.42221
  23728933.0114   -5195429.27145  -3905784.18161
  22550183.6514    2293061.58046   1717030.86261
 93  5 21 16  9 44.9990000  0  6G18G19G27G28G 2G29
  20285278.5894    -345625.80847   -254745.28962
  20682565.0814   -1848975.46646  -1405094.27862
  22026924.620    -4017102.118 6  -3057889.37821
  23376552.112     -352341.157 6   -258939.45921
  23718099.9564   -5252371.23845  -3950154.50561
  22555829.3784    2322724.69246   1740144.95161
 93  5 21 16  9 59.9990000  0  6G18G19G27G28G 2G29
  20285609.1364    -343887.62547   -253390.86362
  20679012.4724   -1867629.04346  -1419629.53463
  22018567.253    -4060999.943 6  -3092095.45421
  23376968.5034    -350139.47945   -257223.86361
  23707280.7144   -5309261.94745  -3994484.91361
  22561489.636     2352466.623 6   1763320.42021
 93  5 21 16 10 14.9990000  0  6G18G19G27G28G 2G29
  20285962.2374    -342029.78647   -251943.20062
  20675477.0504   -1886233.92446  -1434126.84662
  22010220.6444   -4104869.82646  -3126279.78961
  23377420.026     -347801.804 6   -255402.32121
  23696450.3864   -5366106.21145  -4038779.12961
  22567162.433     2382280.800 6   1786552.20321
 93  5 21 16 10 29.9990000  0  6G18G19G27G28G 2G29
  20286338.6444    -340048.30747   -250399.20562
  20671945.4564   -1904790.90546  -1448586.83463
  22001879.6204   -4148710.38646  -3160441.24761
  23377890.315     -345328.413 6   -253475.05621
  23685640.378    -5422901.533 5  -4083035.19621
  22572846.386     2412169.618 6   1809842.16821
 93  5 21 16 10 44.9990000  0  6G18G19G27G28G 2G29
  20286740.4564    -337940.17147   -248756.50962
  20668422.1754   -1923300.39546  -1463009.82063
  21993540.2534   -4192522.38646  -3194580.47161
  23378383.433     -342717.756 5   -251440.80521
  23674850.3784   -5479644.79245  -4127250.70861
  22578556.7614    2442134.06846   1833191.04861
 93  5 21 16 10 59.9990000  0  6G18G19G27G28G 2G29
  20287162.581     -335709.455 7   -247018.30222
  20664909.4404   -1941766.68146  -1477399.13463
  21985210.612    -4236305.953 6  -3228697.52221
  23378910.284     -339970.094 6   -249299.79321
  23664064.4334   -5536336.69945  -4171426.20361
  22584268.9564    2472172.83746   1856597.84361
 93  5 21 16 11 14.9990000  0  6G18G19G27G28G 2G29
  20287612.753     -333359.972 7   -245187.55322
  20661401.7064   -1960191.07846  -1491755.80963
  21976882.5654   -4280062.49746  -3262793.52861
  23379455.8004    -337088.87446   -247054.69561
  23653285.0504   -5592980.81445  -4215564.45561
  22589996.980     2502282.248 6   1880059.69021
 93  5 21 16 11 29.9990000  0  6G18G19G27G28G 2G29
  20288081.722     -330884.927 7   -243258.95922
  20657903.1364   -1978571.27646  -1506078.03563
  21968563.706    -4323788.798 6  -3296865.95421
  23380027.7924    -334074.63046   -244705.94261
  23642519.4724   -5649570.45745  -4259660.27861
  22595742.0584    2532461.78746   1903576.18461
 93  5 21 16 11 44.9990000  0  6G18G19G27G28G 2G29
  20288577.659     -328285.140 7   -241233.16222
  20654414.8314   -1996910.26446  -1520368.15763
  21960247.034    -4367487.877 6  -3330917.16921
  23380629.5654    -330929.82546   -242255.48161
  23631761.550    -5706107.300 5  -4303714.93421
  22601499.3004    2562707.10746   1927143.93861
 93  5 21 16 11 59.9990000  0  6G18G19G27G28G 2G29
  20289097.5584    -325557.96747   -239108.10162
  20650932.2224   -2015206.24646  -1534624.76763
  21951937.3624   -4411156.53046  -3364944.68361
  23381253.3624    -327654.17346   -239703.06561
  23621011.464    -5762588.674 5  -4347726.36921
  22607266.4804    2593024.18646   1950767.59661
 93  5 21 16 12 14.9990000  0  6G18G19G27G28G 2G29
  20289640.8234    -322702.15947   -236882.80762
  20647460.6124   -2033460.06846  -1548848.52962
  21943631.2144   -4454797.87246  -3398950.92161
  23381898.073     -324251.264 6   -237051.47921
  23610271.8474   -5819017.05545  -4391696.51661
  22613052.3084    2623412.52546   1974446.79861
 93  5 21 16 12 29.9990000  0  6G18G19G27G28G 2G29
  20290208.1904    -319719.13247   -234558.37662
  20643993.1984   -2051675.27446  -1563042.20062
  21935332.9874   -4498415.46446  -3432938.63861
  23382573.128     -320726.480 6   -234304.90221
  23599547.5734   -5875394.56045  -4435627.02561
  22618847.4954    2653870.45246   1998180.20561
 93  5 21 16 12 44.9990000  0  6G18G19G27G28G 2G29
  20290799.5504    -316609.07147   -232134.96362
  20640536.0584   -2069851.16846  -1577205.23763
  21927037.284    -4542009.253 6  -3466907.81121
  23383263.940     -317080.429 6   -231463.80821
  23588824.0504   -5931718.29345  -4479515.61361
  22624651.5344    2684399.65146   2021969.15061
 93  5 21 16 12 59.9990000  0  6G18G19G27G28G 2G29
  20291415.9804    -313371.44747   -229612.13962
  20637084.3394   -2087985.67346  -1591336.02163
  21918744.9254   -4585573.96946  -3500854.33861
  23383981.144     -313312.150 6   -228527.49321
  23578113.6204   -5987985.01945  -4523359.78861
  22630476.3624    2715001.01946   2045814.34261
 93  5 21 16 13 14.9990000  0  6G18G19G27G28G 2G29
  20292055.6674    -310006.99847   -226990.49663
  20633640.9874   -2106076.95746  -1605433.12063
  21910464.815    -4629106.550 6  -3534775.81621
  23384723.089     -309423.233 6   -225497.18621
  23567418.0584   -6044193.89745  -4567158.88461
  22636315.9954    2745678.02346   2069718.46261
 93  5 21 16 13 29.9990000  0  6G18G19G27G28G 2G29
  20292723.2614    -306514.36347   -224268.97663
  20630204.1594   -2124125.61346  -1619497.00663
  21902183.6984   -4672610.41146  -3568674.91661
  23385481.597     -305414.108 6   -222373.21421
  23556737.8154   -6100345.05245  -4610913.03261
  22642170.8394    2776429.57246   2093680.67561
 93  5 21 16 13 44.9990000  0  6G18G19G27G28G 2G29
  20293409.0814    -302895.32447   -221448.95462
  20626780.8314   -2142134.18946  -1633529.66363
  21893910.7224   -4716088.18846  -3602553.69261
  23386266.831     -301282.628 5   -219153.89921
  23546068.292    -6156437.895 5  -4654621.71721
  22648035.4954    2807258.70546   2117703.34161
 93  5 21 16 13 59.9990000  0  6G18G19G27G28G 2G29
  20294120.4484    -299150.53347   -218530.94162
  20623359.1834   -2160099.66046  -1647528.73663
  21885640.3944   -4759538.87446  -3636411.37061
  23387079.4334    -297025.39546   -215836.57661
  23535398.448    -6212471.505 5  -4698284.25621
  22653918.2614    2838171.63446   2141791.29561
 93  5 21 16 14 14.9990000  0  6G18G19G27G28G 2G29
  20294859.4564    -295280.74247   -215515.52962
  20619951.6284   -2178020.90546  -1661493.33963
  21877378.1124   -4802965.23746  -3670250.08461
  23387915.3154    -292638.56646   -212418.27461
  23524749.3704   -6268446.11645  -4741900.81961
  22659811.5654    2869167.84746   2165944.15461
 93  5 21 16 14 29.9990000  0  6G18G19G27G28G 2G29
  20295617.5114    -291289.92547   -212405.80762
  20616547.2454   -2195895.14946  -1675421.32562
  21869118.269    -4846367.357 6  -3704069.89821
  23388776.7304    -288118.59046   -208896.22461
  23514107.284    -6324362.827 5  -4785472.26121
  22665726.2374    2900244.60746   2190159.77961
 93  5 21 16 14 44.9990000  0  6G18G19G27G28G 2G29
  20296400.0814    -287179.71247   -209203.05162
  20613158.4014   -2213721.25246  -1689311.79162
  21860865.6984   -4889743.94846  -3737869.83361
  23389662.347     -283461.992 5   -205267.67321
  23503477.1444   -6380220.67945  -4828997.84561
  22671659.8154    2931402.39446   2214438.53061
 93  5 21 16 14 59.9990000  0  6G18G19G27G28G 2G29
  20297205.558     -282954.886 7   -205910.99722
  20609771.7924   -2231503.36346  -1703167.97662
  21852614.6834   -4933098.63246  -3771652.69361
  23390568.6834    -278671.56845   -201534.89761
  23492857.230    -6436023.182 5  -4872480.30121
  22677603.0894    2962636.61346   2238776.85461
 93  5 21 16 15 14.9990000  0  6G18G19G27G28G 2G29
  20298029.573     -278611.392 7   -202526.46922
  20606397.3474   -2249238.22646  -1716987.35662
  21844370.0654   -4976427.84946  -3805415.71461
  23391512.2764    -273743.63846   -197694.97161
  23482252.9564   -6491770.64245  -4915919.85061
  22683559.5264    2993949.27646   2263176.30461
 93  5 21 16 15 29.9990000  0  6G18G19G27G28G 2G29
  20298879.5814    -274148.95847   -199049.25562
  20603031.2374   -2266922.83446  -1730767.57262
  21836129.745    -5019734.079 6  -3839160.81921
  23392477.0194    -268675.53446   -193745.85961
  23471656.2764   -6547463.78745  -4959317.07861
  22689533.1834    3025341.11446   2287637.44061
 93  5 21 16 15 44.9990000  0  6G18G19G27G28G 2G29
  20299751.612     -269566.098 7   -195478.20422
  20599678.2694   -2284559.35846  -1744510.31662
  21827893.1834   -5063016.93546  -3872887.71261
  23393466.6124    -263465.83546   -189686.36561
  23461069.7374   -6603103.16545  -5002672.42461
  22695523.0584    3056809.12246   2312157.93861
 93  5 21 16 15 59.9990000  0  6G18G19G27G28G 2G29
  20300647.0814    -264865.54447   -191815.45362
  20596329.8554   -2302150.07046  -1758217.36062
  21819657.9014   -5106277.51746  -3906597.22961
  23394488.058     -258117.163 6   -185518.54921
  23450484.198    -6658691.883 5  -5045988.27421
  22701527.0734    3088349.12946   2336734.53161
 93  5 21 16 16 14.9990000  0  6G18G19G27G28G 2G29
  20301562.9484    -260046.18547   -188060.11662
  20592991.6754   -2319694.62046  -1771888.43962
  21811433.151    -5149514.405 6  -3940288.29721
  23395528.2374    -252628.65446   -181241.77861
  23439918.6284   -6714231.76045  -5089266.07161
  22707538.1904    3119955.87746   2361363.10161
 93  5 21 16 16 29.9990000  0  6G18G19G27G28G 2G29
  20302502.3474    -255108.35447   -184212.46362
  20589658.6754   -2337193.45346  -1785523.89562
  21803209.3314   -5192723.78446  -3973957.93161
  23396601.112     -247002.211 6   -176857.58921
  23429359.175    -6769724.446 5  -5132507.10721
  22713560.5344    3151625.35246   2386040.57661
 93  5 21 16 16 44.9990000  0  6G18G19G27G28G 2G29
  20303465.972     -250051.697 7   -180272.22822
  20586339.620    -2354651.124 6  -1799127.28622
  21794990.2454   -5235904.34646  -4007605.12261
  23397693.8784    -241245.22146   -172371.66961
  23418806.605    -6825170.475 5  -5175711.79021
  22719602.6514    3183354.93046   2410764.89361
 93  5 21 16 16 59.9990000  0  6G18G19G27G28G 2G29
  20304449.4484    -244872.59147   -176236.56762
  20583022.1284   -2372069.07446  -1812699.71962
  21786780.980    -5279055.727 6  -4041229.56921
  23398816.9334    -235358.84846   -167784.88961
  23408267.612    -6880567.531 5  -5218878.31221
  22725655.761     3215144.276 6   2435535.78521
 93  5 21 16 17 14.9990000  0  6G18G19G27G28G 2G29
  20305461.456     -239571.668 7   -172105.99422
  20579719.4874   -2389447.52546  -1826241.36962
  21778574.6984   -5322178.91246  -4074832.03761
  23399960.980     -229347.861 6   -163100.98621
  23397733.144    -6935919.595 5  -5262009.76921
  22731710.948     3246989.855 6   2460350.46821
 93  5 21 16 17 29.9990000  0  6G18G19G27G28G 2G29
  20306489.269     -234146.772 7   -167878.81322
  20576417.2144   -2406781.03546  -1839748.00462
  21770373.7534   -5365273.43946  -4108412.17761
  23401129.7534    -223209.73746   -158318.03261
  23387209.511    -6991225.050 5  -5305104.91321
  22737782.347     3278895.278 6   2485211.79821
 93  5 21 16 17 44.9990000  0  6G18G19G27G28G 2G29
  20307547.0584    -228597.21747   -163554.49062
  20573130.4724   -2424069.33146  -1853219.40662
  21762178.425    -5408336.779 6  -4141968.01821
  23402320.3234    -216942.69545   -153434.65361
  23376696.636    -7046480.825 6  -5348161.35021
  22743864.417     3310861.552 6   2510120.53621
 93  5 21 16 17 59.9990000  0  6G18G19G27G28G 2G29
  20308627.0654    -222923.13847   -159133.14062
  20569843.964    -2441313.602 6  -1866656.50923
  21753992.8944   -5451367.81346  -4175498.69961
  23403538.8154    -210547.55145   -148451.43061
  23366187.151    -7101685.640 6  -5391178.06821
  22749957.769     3342889.405 6   2535077.25721
 93  5 21 16 18 14.9990000  0  6G18G19G27G28G 2G29
  20309729.519     -217127.539 7   -154617.10422
  20566576.1514   -2458511.00046  -1880057.08663
  21745809.1904   -5494366.14346  -4209003.88561
  23404780.2534    -204027.27346   -143370.71661
  23355695.5264   -7156840.54546  -5434155.88861
  22756066.753     3374979.615 6   2560082.57021
 93  5 21 16 18 29.9990000  0  6G18G19G27G28G 2G29
  20310856.7224    -211212.32647   -150007.85362
  20563312.9094   -2475663.43846  -1893422.61763
  21737630.8234   -5537333.23246  -4242484.72461
  23406037.7454    -197386.77045   -138196.34561
  23345213.339    -7211948.804 6  -5477097.36521
  22762187.9174    3407131.83246   2585136.20961
 93  5 21 16 18 44.9990000  0  6G18G19G27G28G 2G29
  20312004.870     -205175.027 7   -145303.48022
  20560056.1754   -2492769.81746  -1906752.26863
  21729463.722    -5580269.819 6  -4275941.79221
  23407330.0344    -190628.02245   -132929.78461
  23334730.3314   -7267008.00946  -5520000.61261
  22768315.355     3439349.332 6   2610240.71821
 93  5 21 16 18 59.9990000  0  6G18G19G27G28G 2G29
  20313176.7924    -199013.48047   -140502.27762
  20556807.9484   -2509828.42746  -1920044.69063
  21721296.4484   -5623178.58646  -4309377.18161
  23408637.401     -183747.880 5   -127568.61021
  23324264.331    -7322015.777 6  -5562863.78921
  22774463.2304    3471633.73746   2635397.36861
 93  5 21 16 19 14.9990000  0  6G18G19G27G28G 2G29
  20314373.4014    -192725.51247   -135602.57562
  20553573.0734   -2526833.64946  -1933295.51563
  21713134.0894   -5666057.11446  -4342789.01361
  23409973.4094    -176741.05446   -122108.75861
  23313805.4874   -7376968.80446  -5605684.30661
  22780621.9804    3503990.58246   2660610.46461
 93  5 21 16 19 29.9990000  0  6G18G19G27G28G 2G29
  20315595.1364    -186315.38247   -130607.68262
  20550345.2304   -2543787.92346  -1946506.62763
  21704982.3004   -5708908.72546  -4376179.87461
  23411323.347     -169609.459 6   -116551.72021
  23303357.6364   -7431869.22246  -5648463.84761
  22786789.3554    3536418.06446   2685878.57161
 93  5 21 16 19 44.9990000  0  6G18G19G27G28G 2G29
  20316833.5504    -179785.87547   -125519.76262
  20547129.7064   -2560695.13646  -1959681.08263
  21696834.5974   -5751733.65946  -4409549.94661
  23412708.761     -162351.727 5   -110896.37421
  23292918.183    -7486717.792 6  -5691202.96821
  22792970.3154    3568913.91846   2711199.95461
 93  5 21 16 19 59.9990000  0  6G18G19G27G28G 2G29
  20318102.6514    -173130.80847   -120334.00362
  20543921.0114   -2577553.93146  -1972817.80262
  21688691.4094   -5794525.93146  -4442894.56161
  23414113.503     -154963.464 5   -105139.27121
  23282491.2304   -7541508.95946  -5733897.36561
  22799169.425     3601480.585 6   2736576.53621
 93  5 21 16 20 14.9990000  0  6G18G19G27G28G 2G29
  20319392.175     -166348.182 7   -115048.85422
  20540725.6204   -2594362.73246  -1985915.56062
  21680552.2064   -5837287.58546  -4476215.32961
  23415548.8394    -147446.33546    -99281.74461
  23272070.6984   -7596243.17345  -5776547.36261
  22805381.847     3634117.662 6   2762007.97221
 93  5 21 16 20 29.9990000  0  6G18G19G27G28G 2G29
  20320709.644     -159437.534 7   -109663.94722
  20537532.1204   -2611124.73946  -1998976.87562
  21672423.1594   -5880020.43346  -4509513.65561
  23417000.440     -139799.542 6    -93323.23021
  23261671.315    -7650921.891 6  -5819154.12621
  22811600.597     3666822.838 6   2787492.48621
 93  5 21 16 20 44.9990000  0  6G18G19G27G28G 2G29
  20322047.175     -152402.401 7   -104182.04522
  20534355.5034   -2627846.19046  -2012006.56962
  21664292.3624   -5922730.08346  -4542793.89761
  23418482.323     -132025.975 6    -87265.93921
  23251276.167    -7705547.738 5  -5861719.69821
  22817838.7064    3699590.90446   2813026.01761
 93  5 21 16 20 59.9990000  0  6G18G19G27G28G 2G29
  20323409.6674    -145237.38147    -98598.92362
  20531177.3624   -2644521.06346  -2024999.99162
  21656172.1284   -5965409.85546  -4576050.85461
  23419987.6284    -124118.48645    -81104.25161
  23240891.698    -7760110.456 5  -5904236.07521
  22824085.1754    3732428.67846   2838613.83061
 93  5 21 16 21 14.9990000  0  6G18G19G27G28G 2G29
  20324798.097     -137949.074 7    -92919.74022
  20528014.3784   -2661153.63646  -2037960.43962
  21648055.4564   -6008060.53346  -4609285.13961
  23421514.2064    -116078.77945    -74839.55161
  23230520.159    -7814611.910 5  -5946704.72721
  22830346.128     3765333.935 6   2864254.27221
 93  5 21 16 21 29.9990000  0  6G18G19G27G28G 2G29
  20326206.9724    -130540.99647    -87147.21862
  20524854.3624   -2677747.49546  -2050890.72062
  21639943.8314   -6050683.12246  -4642497.53761
  23423067.190     -107910.532 6    -68474.71521
  23220162.4954   -7869055.82845  -5989128.51961
  22836623.9954    3798303.09946   2889944.48261
 93  5 21 16 21 44.9990000  0  6G18G19G27G28G 2G29
  20327640.761     -123009.879 7    -81278.83422
  20521705.8004   -2694302.99246  -2063791.09762
  21631841.480    -6093274.772 6  -4675685.82021
  23424648.737      -99611.135 5    -62007.68621
  23209816.9874   -7923440.06346  -6031505.81761
  22842913.362     3831338.164 6   2915686.04521
 93  5 21 16 21 59.9990000  0  6G18G19G27G28G 2G29
  20329096.7694    -115356.84947    -75315.44163
  20518559.5894   -2710821.22546  -2076662.44862
  21623739.7224   -6135836.81446  -4708851.03061
  23426248.128      -91184.646 5    -55441.60221
  23199481.378    -7977763.734 6  -6073835.91921
  22849211.5034    3864437.61646   2941477.78461
 93  5 21 16 22 14.9990000  0  6G18G19G27G28G 2G29
  20330576.5974    -107583.15547    -69258.02063
  20515426.2224   -2727302.69846  -2089505.14962
  21615647.6284   -6178372.79446  -4741995.95461
  23427878.7694     -82635.81445    -48780.16961
  23189152.925    -8032027.727 6  -6116119.53121
  22855519.386     3897599.137 6   2967317.85621
 93  5 21 16 22 29.9990000  0  7G18G19G27G28G 2G29G16
  20332077.2764     -99692.83347    -63109.72363
  20512294.1904   -2743748.82346  -2102320.31162
  21607556.8554   -6220883.45146  -4775121.13661
  23429527.7064     -73966.80845    -42025.15161
  23178834.9254   -8086235.28546  -6158359.15761
  22861843.4334    3930820.20646   2993204.34661
  23939056.3624         -0.34353
 93  5 21 16 22 44.9990000  0  7G18G19G27G28G 2G29G16
  20333602.7764     -91681.54247    -56867.16563
  20509174.8154   -2760148.98746  -2115099.66462
  21599472.5424   -6263358.40746  -4808218.50061
  23431204.9484     -65170.00145    -35170.52061
  23168533.2534   -8140374.14946  -6200545.24761
  22868176.5264    3964108.30946   3019143.08661
  23932421.0654     -34862.43543
 93  5 21 16 22 59.9990000  0  7G18G19G27G28G 2G29G16
  20335148.4334     -83557.33147    -50536.61862
  20506063.5894   -2776507.00746  -2127846.17762
  21591396.4404   -6305803.33546  -4841292.46261
  23432894.081      -56252.266 5    -28221.64821
  23158239.964    -8194450.901 6  -6242682.95821
  22874526.690     3997458.749 5   3045130.40221
  23925807.6364     -69600.98243
 93  5 21 16 23 14.9990000  0  7G18G19G27G28G 2G29G16
  20336715.144      -75320.739 7    -44118.50722
  20502957.1754   -2792822.04746  -2140559.19762
  21583324.081    -6348219.009 6  -4874343.61322
  23434619.776      -47213.172 5    -21178.22321
  23147962.636    -8248467.219 6  -6284773.57021
  22880878.292     4030870.514 5   3071165.48721
  23919223.5424    -104216.58243
 93  5 21 16 23 29.9990000  0  7G18G19G27G28G 2G29G16
  20338305.276      -66970.769 7    -37612.05522
  20499859.7764   -2809092.97146  -2153237.84362
  21575258.503    -6390605.535 6  -4907372.05422
  23436361.112      -38052.309 5    -14039.93621
  23137697.1204   -8302427.24046  -6326820.30461
  22887250.253     4064341.020 5   3097246.37421
  23912659.1674    -138711.24143
 93  5 21 16 23 44.9990000  0  7G18G19G27G28G 2G29G16
  20339914.667      -58502.812 7    -31013.65222
  20496773.7144   -2825318.52546  -2165881.12962
  21567200.120    -6432963.360 6  -4940378.13322
  23438131.761      -28769.086 5     -6806.27021
  23127436.7064   -8356331.02346  -6368823.22461
  22893636.167     4097872.657 5   3123374.88521
  23906116.550     -173081.398 3
 93  5 21 16 23 59.9990000  0  7G18G19G27G28G 2G29G16
  20341549.909      -49917.243 7    -24323.61322
  20493694.2374   -2841496.23246  -2178487.13562
  21559143.5194   -6475293.66546  -4973362.79061
  23439916.339      -19363.981 5       522.36021
  23117188.7374   -8410180.91746  -6410784.15161
  22900021.831     4131464.148 5   3149550.02421
  23899598.511     -207328.093 4
 93  5 21 16 24 14.9990000  0  7G18G19G27G28G 2G29G16
  20343206.183      -41215.308 7    -17542.89622
  20490628.5034   -2857625.14246  -2191055.11862
  21551092.776    -6517598.857 6  -5006327.85321
  23441730.0194      -9838.83445      7944.54261
  23106954.0504   -8463981.77346  -6452706.86761
  22906431.503     4165115.248 6   3175771.59421
  23893111.425     -241452.032 3
 93  5 21 16 24 29.9990000  0  7G18G19G27G28G 2G29G16
  20344884.659      -32391.249 7    -10667.02322
  20487566.5194   -2873701.14946  -2203581.88562
  21543050.5734   -6559872.26946  -5039268.16962
  23443567.7454       -185.80045     15466.37261
  23096719.198    -8517731.311 6  -6494589.59921
  22912842.4644    4198832.64246   3202044.82761
  23886638.769     -275447.435 3
 93  5 21 16 24 44.9990000  0  7G18G19G27G28G 2G29G16
  20346587.5654     -23444.76347     -3695.75862
  20484518.9804   -2889723.31946  -2216066.69662
  21535013.323    -6602113.269 6  -5072183.20822
  23445432.6594       9595.63545     23088.23061
  23086507.1904   -8571429.73146  -6536432.48861
  22919272.3314    4232618.04045   3228371.06761
  23880191.323     -309313.862 3
 93  5 21 16 24 59.9990000  0  7G18G19G27G28G 2G29G16
  20348312.7064     -14375.47747      3371.21362
  20481480.3704   -2905692.39346  -2228510.13062
  21526977.995    -6644323.512 6  -5105074.28822
  23447312.3784      19505.44845     30810.12561
  23076294.8554   -8625077.88846  -6578236.20761
  22925713.1054    4266472.75546   3254751.34561
  23873774.7764    -343050.25443
 93  5 21 16 25 14.9990000  0  7G18G19G27G28G 2G29G16
  20350063.034       -5179.510 7     10536.88522
  20478451.4014   -2921613.81946  -2240916.44762
  21518950.105    -6686506.202 6  -5137943.89822
  23449221.4724      29542.40945     38631.13761
  23066097.144    -8678680.402 6  -6620004.38721
  22932168.542     4300393.261 6   3281182.85921
  23867380.0894    -376658.10243        -0.49071
 93  5 21 16 25 29.9990000  0  7G18G19G27G28G 2G29G16
  20351838.3154       4148.06447     17805.11662
  20475426.4564   -2937484.65846  -2253283.33663
  21510930.620    -6728656.830 6  -5170788.53221
  23451158.581       39711.146 5     46554.79921
  23055907.894    -8732232.175 6  -6661733.01521
  22938640.1904    4334381.75546   3307667.34361
  23861004.2224    -410133.49642    -26085.18861
 93  5 21 16 25 44.9990000  0  7G18G19G27G28G 2G29G16
  20353637.237       13600.946 7     25170.98322
  20472419.9334   -2953310.02146  -2265614.79663
  21502914.0034   -6770782.47446  -5203613.69262
  23453122.0814      50006.76546     54577.32661
  23045725.019    -8785735.786 6  -6703424.12021
  22945119.9804    4368434.32145   3334201.75561
  23854654.737     -443478.727 2    -52068.50221
 93  5 21 16 25 59.9990000  0  7G18G19G27G28G 2G29G16
  20355459.839       23175.100 7     32631.34522
  20469412.7534   -2969091.05946  -2277911.71163
  21494902.464    -6812886.404 6  -5236421.93422
  23455102.2304      60427.32045     62697.16861
  23035555.0424   -8839190.25646  -6745076.91461
  22951610.737     4402549.185 5   3360784.71121
  23848342.253     -476695.033 2
 93  5 21 16 26 14.9990000  0  7G18G19G27G28G 2G29G16
  20357303.1594      32871.65147     40187.09162
  20466420.3554   -2984822.11546  -2290169.67763
  21486893.714    -6854963.354 6  -5269209.15522
  23457102.4564      70978.59245     70918.94161
  23025392.1984   -8892587.37546  -6786685.03161
  22958113.3394    4436727.86545   3387417.40261
  23842048.394     -509780.504 2
 93  5 21 16 26 29.9990000  0  7G18G19G27G28G 2G29G16
  20359171.2924      42686.68547     47835.15862
  20463433.8784   -3000511.27646  -2302394.99263
  21478891.417    -6897016.115 6  -5301977.52422
  23459144.167       81655.862 6     79238.86221
  23015238.042    -8945926.765 6  -6828248.16921
  22964625.3624    4470964.38445   3414095.17761
  23835774.855     -542739.407 2
 93  5 21 16 26 44.9990000  0  7G18G19G27G28G 2G29G16
  20361062.1364      52619.38947     55574.91762
  20460459.8474   -3016156.37546  -2314585.97663
  21470897.136    -6939043.363 6  -5334726.00821
  23461196.4174      92458.82046     87656.71361
  23005100.940    -8999202.635 6  -6869761.80921
  22971152.9724    4505258.83445   3440818.05661
  23829530.776     -575571.017 2
 93  5 21 16 26 59.9990000  0  7G18G19G27G28G 2G29G16
  20362971.8004      62665.40847     63402.97562
  20457487.3784   -3031761.64346  -2326745.91963
  21462900.6754   -6981050.02046  -5367458.45562
  23463278.9094     103384.65545     96170.30661
  22994978.0814   -9052416.54946  -6911227.17561
  22977686.159     4539606.767 5   3467582.63021
  23823299.9564    -608279.65841
 93  5 21 16 27 14.9990000  0  7G18G19G27G28G 2G29G16
  20364908.651       72825.615 7     71320.00422
  20454528.3004   -3047327.14046  -2338874.88763
  21454914.690    -7023036.728 6  -5400175.36622
  23465374.7844     114432.81945    104779.25761
  22984859.0894   -9105568.80446  -6952644.48161
  22984239.784     4574007.705 5   3494388.50421
  23817106.8234         -0.77352
 93  5 21 16 27 29.9990000  0  7G18G19G27G28G 2G29G16
  20366862.0504      83101.82547     79327.43262
  20451571.8704   -3062845.66746  -2350967.24663
  21446926.042    -7064998.561 6  -5432872.87322
  23467504.300      125606.826 5    113486.26821
  22974759.815    -9158652.947 5  -6994008.73721
  22990796.550     4608466.639 6   3521239.57521
  23810921.558      -32462.268 2
 93  5 21 16 27 44.9990000  0  7G18G19G27G28G 2G29G16
  20368840.222       93488.853 7     87421.19722
  20448631.0894   -3078314.60146  -2363020.95963
  21438950.058    -7106935.358 6  -5465550.89422
  23469656.5974     136905.29145    122290.23661
  22964671.8624   -9211668.34045  -7035319.40361
  22997364.2694    4642987.08246   3548138.55961
  23804769.245      -64799.781 2
 93  5 21 16 27 59.9990000  0  7G18G19G27G28G 2G29G16
  20370836.3624     103986.56147     95601.22562
  20445693.5034   -3093735.39646  -2375037.16063
  21430968.9254   -7148845.97346  -5498208.49562
  23471825.7304     148323.24345    131187.29261
  22954591.847    -9264617.936 5  -7076578.80721
  23003944.9174    4677565.97946   3575083.11461
  23798637.9254     -97016.17642        -0.37271
 93  5 21 16 28 14.9990000  0  7G18G19G27G28G 2G29G16
  20372857.581      114594.909 7    103867.45222
  20442772.5114   -3109110.89846  -2387018.07162
  21423000.1594   -7190727.34346  -5530843.32762
  23474020.792      159858.232 5    140175.54721
  22944528.136    -9317504.560 5  -7117789.14421
  23010532.5034    4712200.88645   3602071.32461
  23792529.870     -129113.416 2    -25011.17221
 93  5 21 16 28 29.9990000  0  7G18G19G27G28G 2G29G16
  20374895.620      125320.827 7    112225.29822
  20439851.8004   -3124438.95046  -2398962.00862
  21415037.362    -7232572.119 6  -5563449.62222
  23476242.6054     171512.17145    149256.54461
  22934479.870    -9370326.641 5  -7158949.18421
  23017130.948     4746896.397 5   3629106.73121
  23786450.714     -161085.833 3    -49924.74021
 93  5 21 16 28 44.9990000  0  7G18G19G27G28G 2G29G16
  20376960.1594     136161.56347    120672.61063
  20436946.8624   -3139724.21946  -2410872.60862
  21407081.5654   -7274385.79446  -5596031.69462
  23478481.9254     183279.12046    158425.54661
  22924438.808    -9423091.947 5  -7200064.98621
  23023752.300     4781648.486 5   3656186.23821
  23780380.792     -192935.416 2    -74742.62821
 93  5 21 16 28 59.9990000  0  7G18G19G27G28G 2G29G16
  20379043.4404     147120.55547    129212.07262
  20434043.5264   -3154962.36046  -2422746.47962
  21399131.753    -7316165.152 6  -5628587.02422
  23480740.9564     195162.62745    167685.38261
  22914399.5814   -9475798.98645  -7241135.38161
  23030373.800     4816460.201 5   3683312.19121
  23774347.9804    -224656.39343    -99460.24861
 93  5 21 16 29 14.9990000  0  7G18G19G27G28G 2G29G16
  20381153.269      158200.308 7    137845.63723
  20431153.1754   -3170150.79646  -2434581.63362
  21391188.5654   -7357906.09246  -5661112.42662
  23483020.2454     207167.08945    177039.45861
  22904388.964    -9528448.046 6  -7282160.61221
  23037013.597     4851332.554 5   3710485.41121
  23768336.9014    -256244.85343   -124074.61461
 93  5 21 16 29 29.9990000  0  7G18G19G27G28G 2G29G16
  20383283.4174     169393.71247    146567.75562
  20428268.2224   -3185294.63846  -2446382.01862
  21383251.183    -7399614.243 6  -5693612.26622
  23485331.1284     219285.18845    186482.13961
  22894379.058    -9581046.442 6  -7323146.35321
  23043659.019     4886257.127 5   3737699.31121
  23762360.425     -287708.313 4   -148591.58621
 93  5 21 16 29 44.9990000  0  7G18G19G27G28G 2G29G16
  20385435.0584     180705.95347    155382.47862
  20425401.6204   -3200388.62446  -2458143.56362
  21375324.1834   -7441282.82046  -5726081.28462
  23487662.284      231525.358 6    196019.89921
  22884381.1364   -9633587.03146  -7364087.04761
  23050316.534     4921237.448 5   3764956.63721
  23756390.6204    -319040.59844   -173006.37061
 93  5 21 16 29 59.9990000  0  7G18G19G27G28G 2G29G16
  20387611.2534     192134.61247    164287.91862
  20422532.1754   -3215441.50346  -2469873.07763
  21367398.448    -7482917.524 6  -5758523.89822
  23490015.5114     243882.88846    205649.07461
  22874400.4954   -9686077.52146  -7404988.71661
  23056977.3474    4956265.32945   3792251.01761
  23750453.003     -350247.708 4   -197323.57721
 93  5 21 16 30 14.9990000  0  7G18G19G27G28G 2G29G16
  20389807.276      203687.180 7    173289.90722
  20419681.0584   -3230449.95946  -2481567.97362
  21359485.073    -7524513.522 6  -5790936.34822
  23492385.597      256363.896 5    215374.48021
  22864416.2694   -9738513.41346  -7445847.81561
  23063655.089     4991344.578 5   3819585.43121
  23744536.4014    -381323.53843   -221538.48261
 93  5 21 16 30 29.9990000  0  7G18G19G27G28G 2G29G16
  20392031.011      215361.959 7    182387.12422
  20416831.8704   -3245412.87446  -2493227.37962
  21351575.425    -7566072.944 6  -5823320.29922
  23494783.0424     268969.81145    225197.27461
  22854446.683    -9790894.308 6  -7486664.06321
  23070338.4724    5026476.23945   3846960.70661
  23738647.605     -412267.005 3   -245650.26421
 93  5 21 16 30 44.9990000  0  7G18G19G27G28G 2G29G16
  20394274.261      227154.507 7    191576.10622
  20413996.2844   -3260331.69146  -2504852.43562
  21343673.2534   -7607603.20046  -5855681.53162
  23497211.1124     281697.97445    235115.32261
  22844487.894    -9843224.925 6  -7527441.14921
  23077032.605     5061655.870 5   3874373.39521
  23732779.042     -443084.187 4   -269663.64021
 93  5 21 16 30 59.9990000  0  7G18G19G27G28G 2G29G16
  20396542.4254     239070.29847    200861.12762
  20411165.1054   -3275196.26746  -2516435.22262
  21335777.659    -7649100.010 6  -5888016.69522
  23499656.565      294556.272 5    245134.73021
  22834544.2304   -9895496.52846  -7568172.24661
  23083738.167     5096892.852 5   3901830.74121
  23726948.331     -473770.636 4   -293575.15121
 93  5 21 16 31 14.9990000  0  7G18G19G27G28G 2G29G16
  20398833.0344     251099.36547    210234.41562
  20408347.3154   -3290016.47946  -2527983.43762
  21327883.8004   -7690572.18546  -5920332.66262
  23502125.7614     307536.00245    255248.73661
  22824609.409    -9947718.709 6  -7608864.83421
  23090451.8624    5132179.26545   3929326.61661
  23721130.7764    -504339.90443   -317395.38961
 93  5 21 16 31 29.9990000  0  7G18G19G27G28G 2G29G16
  20401142.706      263244.099 7    219697.83122
  20405532.3704   -3304791.16246  -2539496.17862
  21319996.245    -7732022.114 6  -5952631.28922
  23504617.495      320637.061 5    265457.31121
  22814676.644    -9999889.690 6  -7649517.51121
  23097176.417     5167519.261 5   3956864.20121
  23715331.7764    -534793.14044   -341125.15161
 93  5 21 16 31 44.9990000  0  7G18G19G27G28G 2G29G16
  20403475.1754     275507.18947    229253.47462
  20402730.9254   -3319518.02046  -2550971.65362
  21312115.1754   -7773447.73246  -5984910.98162
  23507137.933      333859.486 5    275760.50521
  22804759.6514  -10052004.33946  -7690126.29361
  23103915.847     5202916.930 5   3984446.74921
  23709565.5424    -565126.06244   -364761.20361
 93  5 21 16 31 59.9990000  0  7G18G19G27G28G 2G29G16
  20405832.019      287888.627 7    238901.34122
  20399935.1124   -3334197.87846  -2562410.50162
  21304234.448    -7814850.679 6  -6017173.00122
  23509676.855      347200.396 6    286156.01821
  22794850.542   -10104064.266 6  -7730692.45621
  23110662.3234    5238372.31045   4012074.24861
  23703807.940     -595338.120 3   -388303.03821
 93  5 21 16 32 14.9990000  0  7G18G19G27G28G 2G29G16
  20408210.948      300393.565 7    248645.43323
  20397152.9644   -3348829.14746  -2573811.48262
  21296360.8314   -7856228.19546  -6049415.21662
  23512234.972      360658.001 5    296642.42321
  22784953.644   -10156066.796 6  -7771213.88421
  23117425.675     5273888.451 5   4039749.10921
  23698082.714     -625426.201 3   -411748.30821
 93  5 21 16 32 29.9990000  0  7G18G19G27G28G 2G29G16
  20410615.0734     313018.79247    258483.26262
  20394373.2454   -3363411.83446  -2585174.62062
  21288490.9644   -7897583.62146  -6081640.21562
  23514810.3084     374228.73345    307216.97961
  22775077.964   -10208013.632 6  -7811691.92021
  23124190.300     5309464.100 5   4067470.33721
  23692384.4094    -655392.04544   -435098.28861
 93  5 21 16 32 44.9990000  0  7G18G19G27G28G 2G29G16
  20413041.956      325762.601 7    268413.48723
  20391612.4644   -3377945.96646  -2596499.92163
  21280626.8084   -7938918.49946  -6113849.19862
  23517422.7534     387909.90545    317877.59861
  22765195.4094  -10259903.64146  -7852125.66461
  23130973.855     5345097.319 5   4095236.46621
  23686709.1594    -685235.90544   -458353.24161
 93  5 21 16 32 59.9990000  0  7G18G19G27G28G 2G29G16
  20415488.769      338625.555 7    278436.54022
  20388854.3314   -3392433.79946  -2607789.14463
  21272763.5504   -7980230.76946  -6146040.56762
  23520042.362      401701.789 5    328624.51121
  22755336.0114  -10311733.64546  -7892512.67661
  23137764.855     5380789.672 5   4123048.63721
  23681049.9564    -714956.65744   -481512.23661
 93  5 21 16 33 14.9990000  0  7G18G19G27G28G 2G29G16
  20417957.464      351607.274 7    288552.15323
  20386108.7144   -3406875.77246  -2619042.62763
  21264906.2614   -8021516.85946  -6178211.53862
  23522690.526      415604.630 5    339457.87221
  22745482.5584  -10363501.42846  -7932851.18061
  23144565.1834    5416543.54745   4150908.73561
  23675421.112     -744550.392 4   -504572.31021
 93  5 21 16 33 29.9990000  0  7G18G19G27G28G 2G29G16
  20420450.4404     364702.12347    298755.92563
  20383368.5034   -3421278.25546  -2630265.33263
  21257055.7694   -8062779.98446  -6210364.61162
  23525354.6834     429613.16045    350373.57761
  22735646.050   -10415209.924 6  -7973143.50921
  23151382.9484    5452349.42045   4178809.34161
  23669807.9094    -774018.15943   -527534.20561
 93  5 21 16 33 44.9990000  0  7G18G19G27G28G 2G29G16
  20422964.698      377916.199 7    309052.59523
  20380632.315    -3435632.678 6  -2641450.60422
  21249209.5424   -8104009.91946  -6242491.82362
  23528041.487      443734.172 5    361376.92921
  22725817.2454  -10466850.88846  -8013383.18361
  23158207.761     5488212.588 5   4206754.60121
  23664225.034     -803350.298 3   -550390.42021
 93  5 21 16 33 59.9990000  0  7G18G19G27G28G 2G29G16
  20425502.5114     391241.56147    319435.98862
  20377912.1984   -3449944.92546  -2652603.00662
  21241368.6674   -8145209.77446  -6274595.59462
  23530751.745      457960.750 5    372462.55121
  22716002.9644  -10518430.60946  -8053575.15861
  23165036.175     5524122.770 5   4234736.48421
  23658674.0584    -832555.62443   -573147.79761
 93  5 21 16 34 14.9990000  0  7G18G19G27G28G 2G29G16
  20428060.534      404687.318 7    329913.18922
  20375196.2374   -3464209.23446  -2663718.04963
  21233536.9644   -8186370.34146  -6306668.76262
  23533479.2304     472300.67645    383636.49161
  22706202.644   -10569939.512 6  -8093711.94721
  23171884.065     5560087.553 5   4262760.93821
  23653142.9014    -861627.63043   -595801.30361
 93  5 21 16 34 29.9990000  0  7G18G19G27G28G 2G29G16
  20430638.073      418243.855 7    340476.71122
  20372489.9254   -3478431.06446  -2674800.00263
  21225711.269    -8227497.394 6  -6338715.80822
  23536230.698      486749.605 5    394895.37721
  22696409.401   -10621382.484 6  -8133797.36321
  23178737.3554    5596103.12745   4290824.97161
  23647631.1204    -890573.09343   -618356.17861
 93  5 21 16 34 44.9990000  0  7G18G19G27G28G 2G29G16
  20433238.855      431907.843 7    351123.93922
  20369792.9874   -3492608.97546  -2685847.72163
  21217890.0974   -8268589.17446  -6370735.35762
  23538999.6594     501312.24345    406242.82561
  22686633.1514  -10672758.72346  -8173830.77161
  23185604.706     5632171.453 5   4318930.10921
  23642151.1674    -919392.24442   -640812.68661
 93  5 21 16 34 59.9980000  0  7G18G19G27G28G 2G29G16
  20435859.061      445678.583 7    361854.38522
  20367102.1234   -3506743.62646  -2696861.74163
  21210080.4674   -8309639.93346  -6402722.96262
  23541788.740      515990.421 5    417680.34521
  22676871.740   -10724065.657 6  -8213810.18321
  23192472.865     5668291.611 5   4347075.62421
  23636688.9514    -948082.60243   -663168.79361
 93  5 21 16 35 14.9980000  0  7G18G19G27G28G 2G29G16
  20438497.545      459555.809 7    372667.77222
  20364423.8814   -3520839.53446  -2707845.55662
  21202274.5064   -8350657.24846  -6434684.49162
  23544610.3894     530784.44645    429208.11961
  22667118.873   -10775316.772 6  -8253746.09621
  23199356.897     5704466.100 5   4375263.48521
  23631248.3574    -976651.49443   -685430.27861
 93  5 21 16 35 29.9980000  0  7G18G19G27G28G 2G29G16
  20441159.8654     473542.48847    383566.47562
  20361750.3184   -3534889.99846  -2718793.97163
  21194477.3344   -8391635.71446  -6466615.75762
  23547448.600      545698.352 5    440829.36621
  22657380.162   -10826506.748 6  -8293634.36721
  23206250.0224    5740693.20745   4403492.34661
  23625838.2484   -1005091.45643   -707591.29561
 93  5 21 16 35 44.9980000  0  7G18G19G27G28G 2G29G16
  20443845.131      487641.784 7    394552.92023
  20359083.3264   -3548896.58346  -2729708.19562
  21186685.311    -8432575.217 6  -6498516.65522
  23550309.0064     560732.81145    452544.49061
  22647650.068   -10877635.573 6  -8333474.98621
  23213154.850     5776971.849 5   4431761.35521
  23620448.6314   -1033403.72543   -729652.77261
 93  5 21 16 35 59.9980000  0  7G18G19G27G28G 2G29G16
  20446549.717      501857.920 7    405630.41522
  20356425.6154   -3562858.53546  -2740587.63562
  21178901.6624   -8473474.44646  -6530386.17362
  23553190.7014     575888.35845    464354.00161
  22637934.092   -10928702.395 6  -8373267.30621
  23220070.154     5813306.115 5   4460073.68421
  23615091.178    -1061587.461 3   -751614.13221
 93  5 21 16 36 14.9980000  0  7G18G19G27G28G 2G29G16
  20449275.092      516186.233 7    416795.32022
  20353775.4674   -3576784.74846  -2751439.23062
  21171127.4984   -8514342.54547  -6562231.44462
  23556092.3184     591157.79145    476252.22561
  22628223.248   -10979714.724 6  -8413017.15121
  23226993.092     5849692.197 5   4488426.39521
  23609743.1154   -1089647.22243   -773478.87461
 93  5 21 16 36 29.9980000  0  7G18G19G27G28G 2G29G16
  20452025.5064     530634.54947    428053.73663
  20351133.0224   -3590666.54646  -2762256.21962
  21163356.6394   -8555173.17946  -6594047.50962
  23559028.701      606551.367 5    488247.20321
  22618523.990   -11030666.650 6  -8452719.92921
  23233933.162     5886141.096 5   4516828.05921
  23604431.522    -1117571.900 3   -795238.38621
 93  5 21 16 36 44.9980000  0  7G18G19G27G28G 2G29G16
  20454796.373      545198.270 7    439402.08623
  20348498.8424   -3604504.05046  -2773038.67963
  21155591.5844   -8595970.93446  -6625837.95662
  23561978.279      622065.153 5    500335.82521
  22608840.193   -11081564.684 6  -8492380.72021
  23240876.4204    5922646.96945   4545274.13861
  23599149.420    -1145363.971 4   -816894.51521
 93  5 21 16 36 59.9980000  0  7G18G19G27G28G 2G29G16
  20457592.850      559876.509 7    450839.65223
  20345878.0614   -3618299.61946  -2783788.46862
  21147835.4674   -8636738.09946  -6657604.57162
  23564954.1784     637696.64645    512516.15261
  22599165.592   -11132410.559 6  -8532000.85321
  23247832.0064    5959204.41645   4573760.40861
  23593881.764    -1173023.248 3   -838447.20421
 93  5 21 16 37 14.9980000  0  7G18G19G27G28G 2G29G16
  20460405.904      574670.365 7    462367.31322
  20343258.1544   -3632052.22946  -2794504.77662
  21140084.2174   -8677476.62446  -6689348.86962
  23567946.842      653443.267 5    524786.26521
  22589498.5614  -11183202.01946  -8571578.59661
  23254796.2564    5995810.53845   4602284.56461
  23588650.412    -1200547.964 4   -859895.04521
 93  5 21 16 37 29.9980000  0  7G18G19G27G28G 2G29G16
  20463242.217      589585.999 7    473989.87722
  20340652.4204   -3645755.88046  -2805182.94362
  21132337.2724   -8718184.44146  -6721069.23762
  23570966.4824     669309.31145    537149.37361
  22579849.248   -11233930.147 6  -8611106.98621
  23261771.561     6032466.975 5   4630847.97921
  23583434.787    -1227935.623 3   -881236.09921
 93  5 21 16 37 44.9980000  0  7G18G19G27G28G 2G29G16
  20466104.217      604617.873 7    485703.01122
  20338052.7794   -3659416.37346  -2815827.48462
  21124595.076    -8758867.864 6  -6752770.58522
  23574011.482      685288.766 5    549600.86121
  22570201.3734  -11284597.00946  -8650587.63761
  23268755.8114    6069167.29145   4659445.56061
  23578244.2794   -1255192.86043   -902475.48161
 93  5 21 16 37 59.9980000  0  7G18G19G27G28G 2G29G16
  20468986.537      619762.491 7    497503.99722
  20335457.0454   -3673035.10146  -2826439.47662
  21116854.5764   -8799530.47246  -6784455.71762
  23577071.006      701375.516 5    562135.93521
  22560574.420   -11335205.616 6  -8690022.89521
  23275745.975     6105909.542 5   4688075.80421
  23573083.006    -1282324.227 4   -923616.80321
 93  5 21 16 38 14.9980000  0  7G18G19G27G28G 2G29G16
  20471891.748      635023.004 7    509395.28022
  20332878.4044   -3686602.04646  -2837011.12262
  21109121.8894   -8840165.99446  -6816119.76662
  23580153.9044     717577.02945    574760.49661
  22550956.928   -11385751.202 6  -8729409.05121
  23282748.342     6142699.806 5   4716743.51521
  23567938.1314   -1309323.33143   -944655.10161
 93  5 21 16 38 29.9980000  0  7G18G19G27G28G 2G29G16
  20474812.779      650390.193 7    521369.68922
  20330302.5064   -3700121.14446  -2847545.48262
  21101396.1394   -8880778.65346  -6847765.99062
  23583263.107      733890.398 5    587472.18021
  22541350.6074  -11436239.43546  -8768750.52261
  23289761.748     6179530.075 5   4745442.35221
  23562834.272    -1336196.589 4   -965595.24221
 93  5 21 16 38 44.9980000  0  7G18G19G27G28G 2G29G16
  20477760.068      665864.143 7    533427.29722
  20327740.6784   -3713587.94146  -2858039.09062
  21093670.342    -8921364.611 6  -6879391.39822
  23586382.8264     750317.65645    600272.61861
  22531757.9824  -11486667.36546  -8808045.00161
  23296776.295     6216397.436 5   4774170.11721
  23557742.2874   -1362941.97644   -986435.81261
 93  5 21 16 38 59.9980000  0  7G18G19G27G28G 2G29G16
  20480724.897      681444.747 7    545568.00622
  20325187.8504   -3727003.98446  -2868493.14862
  21085953.889    -8961922.735 6  -6910995.12222
  23589532.9904     766858.86845    613161.81161
  22522168.803   -11537034.101 6  -8847291.79321
  23303800.412     6253299.000 5   4802924.51321
  23552677.264    -1389561.514 4  -1007178.32421
 93  5 21 16 39 14.9980000  0  7G18G19G27G28G 2G29G16
  20483710.248      697134.514 7    557793.78422
  20322648.2014   -3740369.98646  -2878908.21162
  21078244.0684   -9002452.40747  -6942576.67662
  23592698.3894     783516.23845    626141.58361
  22512595.686   -11587337.944 6  -8886489.56621
  23310831.2724    6290236.93045   4831707.21661
  23547630.459    -1416054.107 4  -1027821.89721
 93  5 21 16 39 29.9980000  0  7G18G19G27G28G 2G29G16
  20486718.287      712934.505 7    570105.44122
  20320113.107    -3753685.328 6  -2889283.81922
  21070536.373    -9042951.567 7  -6974134.44622
  23595896.3504     800288.37745    639210.76261
  22503035.678   -11637580.415 6  -8925639.52421
  23317862.5144    6327213.25845   4860519.85761
  23542613.217    -1442421.316 4  -1048367.76321
 93  5 21 16 39 44.9980000  0  7G18G19G27G28G 2G29G16
  20489743.959      728842.276 7    582501.09422
  20317589.3504   -3766949.54546  -2899619.57362
  21062834.2724   -9083418.91446  -7005667.43162
  23599107.9364     817172.95545    652367.54361
  22493483.107   -11687765.272 6  -8964744.58421
  23324910.928     6364230.083 5   4889364.06721
  23537625.240    -1468664.909 4  -1068817.30421
 93  5 21 16 39 59.9980000  0  7G18G19G27G28G 2G29G16
  20492789.990      744855.972 7    594979.28023
  20315075.0064   -3780161.04046  -2909914.24762
  21055140.740    -9123850.398 6  -7037172.46822
  23602340.381      834166.965 5    665609.60021
  22483944.2404  -11737894.08946  -9003805.97161
  23331960.443     6401290.253 5   4918242.03921
  23532654.8034   -1494782.93644  -1089169.00261
 93  5 21 16 40 14.9980000  0  7G18G19G27G28G 2G29G16
  20495858.514      760973.991 7    607538.75922
  20312571.5374   -3793320.64246  -2920168.48862
  21047453.5454   -9164245.62646  -7068649.26462
  23605592.990      851269.642 5    678936.33421
  22474419.1004  -11787967.63146  -9042824.31061
  23339023.334     6438394.801 5   4947154.58321
  23527702.623    -1520775.937 3  -1109423.25721
 93  5 21 16 40 29.9980000  0  7G18G19G27G28G 2G29G16
  20498944.4594     777199.82047    620182.25262
  20310075.9824   -3806430.35746  -2930383.85063
  21039773.8344   -9204602.97246  -7100096.54262
  23608873.6864     868484.36145    692350.39961
  22464900.912   -11837980.640 6  -9081795.47521
  23346091.498     6475547.151 5   4976104.40621
  23522782.5614   -1546641.15244  -1129577.99161
 93  5 21 16 40 44.9980000  0  7G18G19G27G28G 2G29G16
  20502055.381      793536.218 7    632911.89722
  20307591.0614   -3819489.92346  -2940560.14062
  21032101.662    -9244922.845 7  -7131514.60722
  23612170.0454     885808.90445    705850.00661
  22455396.600   -11887929.767 6  -9120716.84221
  23353166.9434    6512750.35645   5005093.85761
  23517890.303    -1572377.969 4  -1149632.62221
 93  5 21 16 40 59.9980000  0  7G18G19G27G28G 2G29G16
  20505183.467      809986.102 7    645729.96822
  20305112.6934   -3832501.62046  -2950699.12962
  21024435.1004   -9285208.65247  -7162906.14262
  23615486.1004     903242.71445    719434.76361
  22445904.318   -11937815.909 6  -9159589.14721
  23360264.2954    6550006.16545   5034124.30161
  23513017.9434   -1597987.20144  -1169587.88761
 93  5 21 16 41 14.9980000  0  7G18G19G27G28G 2G29G16
  20508338.9044     826560.24147    658644.86862
  20302649.9984   -3845458.10146  -2960795.08662
  21016776.826    -9325453.297 6  -7194265.58922
  23618829.3894     920793.44545    733110.60861
  22436424.756   -11987630.516 6  -9198405.70921
  23367358.107     6587324.963 5   5063203.80421
  23508164.607    -1623461.535 3  -1189438.00621
 93  5 21 16 41 29.9980000  0  7G18G19G27G28G 2G29G16
  20511517.928      843258.339 7    671656.35922
  20300193.3654   -3858357.81946  -2970846.81562
  21009123.5614   -9365655.61246  -7225592.05662
  23622185.061      938458.869 5    746875.84921
  22426954.959   -12037371.731 6  -9237165.07721
  23374474.928     6624708.248 4   5092333.56221
  23503343.951    -1648799.550 3  -1209181.91221
 93  5 21 16 41 44.9980000  0  7G18G19G27G28G 2G29G16
  20514715.131      860071.578 7    684757.56022
  20297748.1864   -3871208.02546  -2980859.96062
  21001481.7874   -9405824.04747  -7256892.14162
  23625569.740      956230.213 5    760723.62621
  22417504.311   -12087046.422 6  -9275872.60921
  23381592.5684    6662146.05644   5121505.80861
  23498548.3114   -1674012.04744  -1228828.00761
 93  5 21 16 41 59.9980000  0  7G18G19G27G28G 2G29G16
  20517937.178      877001.110 7    697949.39222
  20295312.4904   -3884009.90446  -2990835.45662
  20993842.857    -9445960.487 6  -7288167.27822
  23628970.076      974108.390 5    774654.66021
  22408064.014   -12136653.996 6  -9314527.84221
  23388733.248     6699635.891 5   5150718.58621
  23493770.1154   -1699098.08444  -1248375.57861
 93  5 21 16 42 14.9980000  0  7G18G19G27G28G 2G29G16
  20521181.514      894053.998 7    711237.33022
  20292885.3574   -3896761.08946  -3000771.44862
  20986212.287    -9486063.123 7  -7319416.06522
  23632395.389      992101.243 5    788675.06321
  22398639.529   -12186187.845 6  -9353125.62421
  23395872.8654    6737179.85145   5179973.55361
  23489028.3114   -1724051.28544  -1267819.65461
 93  5 21 16 42 29.9980000  0  7G18G19G27G28G 2G29G16
  20524452.5294     911233.07347    724623.61362
  20290467.0064   -3909464.25946  -3010670.02962
  20978587.2014   -9526134.98647  -7350640.88662
  23635845.201     1010211.545 5    802786.93621
  22389220.475   -12235648.892 6  -9391666.67121
  23403034.0374    6774776.17845   5209269.30061
  23484297.545    -1748871.146 3  -1287159.80121
 93  5 21 16 42 44.9980000  0  7G18G19G27G28G 2G29G16
  20527743.4124     928536.40647    738106.72562
  20288062.1154   -3922118.63446  -3020530.58562
  20970968.4434   -9566175.61546  -7381841.37362
  23639308.373     1028438.325 5    816989.60821
  22379830.248   -12285038.961 6  -9430152.43521
  23410200.3894    6812422.99245   5238604.41761
  23479604.693    -1773558.466 4  -1306396.68021
 93  5 21 16 42 59.9980000  0  7G18G19G27G28G 2G29G16
  20531059.2724     945960.65447    751684.04862
  20285660.2174   -3934726.22146  -3030354.68562
  20963353.115    -9606186.472 6  -7413018.64422
  23642803.3264    1046779.30745    831281.24761
  22370438.193   -12334364.812 6  -9468588.13921
  23417368.6934    6850113.12045   5267973.26461
  23474931.6474   -1798115.50644  -1325532.06561
 93  5 21 16 43 14.9980000  0  7G18G19G27G28G 2G29G16
  20534396.693      963504.909 7    765354.88122
  20283270.2954   -3947286.40646  -3040141.84462
  20955746.045    -9646163.272 7  -7444169.37822
  23646307.467     1065234.874 5    845662.19421
  22361066.600   -12383627.380 6  -9506974.54621
  23424549.8424    6887843.50945   5297373.51961
  23470286.248    -1822539.849 3  -1344563.99821
 93  5 21 16 43 29.9980000  0  7G18G19G27G28G 2G29G16
  20537757.951      981162.276 7    779113.84822
  20280890.2874   -3959801.61846  -3049893.95862
  20948147.5844   -9686106.17247  -7475293.71762
  23649846.107     1083798.538 5    860127.36521
  22351703.615   -12432827.535 6  -9545312.30421
  23431733.545     6925610.653 5   5326802.39221
  23465661.6864   -1846833.93743
 93  5 21 16 43 44.9980000  0  7G18G19G27G28G 2G29G16
  20541138.232      998929.826 7    792958.67722
  20278516.053    -3972274.334 6  -3059612.96922
  20940550.9904   -9726015.80247  -7506392.11862
  23653397.8344    1102467.25545    874674.40361
  22342352.170   -12481967.892 6  -9583603.46721
  23438928.147     6963412.391 5   5356258.23221
  23461063.6864         -0.41853
 93  5 21 16 43 59.9980000  0  7G18G19G27G28G 2G29G16
  20544544.326     1016812.150 7    806892.93422
  20276149.4754   -3984704.09746  -3069298.50861
  20932965.1074   -9765890.40847  -7537463.23762
  23656968.647     1121244.424 5    889305.93021
  22333010.232   -12531046.871 6  -9621846.81921
  23446127.857     7001251.569 5   5385743.23221
  23456487.8184     -24037.61343
 93  5 21 16 44 14.9980000  0  7G18G19G27G28G 2G29G16
  20547963.732     1034803.842 7    820912.41622
  20273793.1154   -3997095.20546  -3078953.90661
  20925380.4674   -9805731.26446  -7568508.05262
  23660566.522     1140127.428 5    904019.95121
  22323688.061   -12580067.757 6  -9660044.90021
  23453335.9824    7039127.19545   5415256.63861
  23451936.4204     -47945.30943
 93  5 21 16 44 29.9980000  0  7G18G19G27G28G 2G29G16
  20551409.631     1052902.482 7    835015.22722
  20271438.5144   -4009447.04946  -3088578.72761
  20917808.3734   -9845536.81247  -7599525.35862
  23664172.131     1159114.037 5    918814.67921
  22314365.0924  -12629031.09746  -9698198.13361
  23460555.4514    7077042.81045   5444801.19761
  23447411.5294     -71723.53443
 93  5 21 16 44 44.9980000  0  7G18G19G27G28G 2G29G16
  20554875.334     1071106.912 7    849200.48122
  20269097.7874   -4021754.60946  -3098169.04361
  20910241.7404   -9885301.44047  -7630510.77162
  23667807.1474    1178204.09845    933690.03261
  22305062.7174  -12677936.05546  -9736305.88161
  23467773.732     7115002.248 5   5474379.89821
  23442912.2174     -95368.47643        -0.08271
 93  5 21 16 44 59.9980000  0  7G18G19G27G28G 2G29G16
  20558357.1544    1089415.52647    863466.92462
  20266767.0924   -4034015.40546  -3107722.91461
  20902682.6004   -9925024.19047  -7661463.55862
  23671462.365     1197395.019 5    948643.97021
  22295767.834   -12726781.353 6  -9774367.13121
  23475010.959     7153005.278 5   5503992.57221
  23438441.209     -118878.856 3    -18319.86421
 93  5 21 16 45 14.9980000  0  7G18G19G27G28G 2G29G16
  20561860.662     1107823.271 7    877810.59622
  20264441.9904   -4046233.58046  -3117243.57961
  20895129.3114   -9964710.54647  -7692387.98562
  23675130.2404    1216680.72145    963671.76661
  22286478.615   -12775571.483 6  -9812385.38821
  23482242.654     7191047.268 5   5533635.60121
  23433995.522     -142259.852 4    -36538.81621
 93  5 21 16 45 29.9980000  0  7G18G19G27G28G 2G29G16
  20565383.397     1126331.229 7    892232.36223
  20262126.4124   -4058404.46546  -3126727.39061
  20887584.1864  -10004361.46846  -7723284.79962
  23678821.0614    1236063.27945    978775.04461
  22277209.068   -12824300.388 6  -9850355.94021
  23489489.2484    7229133.22845   5563312.91361
  23429564.787     -165510.923 4    -54656.52921
 93  5 21 16 45 44.9980000  0  7G18G19G27G28G 2G29G16
  20568924.076     1144949.394 7    906740.00823
  20259819.4824   -4070520.22946  -3136168.25461
  20880046.2564  -10043973.49747  -7754151.31062
  23682526.436     1255553.286 5    993962.04521
  22267951.123   -12872961.085 6  -9888273.34921
  23496751.5144    7267273.35645   5593032.42361
  23425168.951     -188625.388 4    -72667.78921
 93  5 21 16 45 59.9980000  0  7G18G19G27G28G 2G29G16
  20572489.1864    1163670.49847    921327.85762
  20257524.561    -4082588.062 6  -3145571.77222
  20872514.2094  -10083557.63047  -7784996.08362
  23686259.803     1275144.603 5   1009227.98021
  22258703.818   -12921563.814 6  -9926145.58621
  23504016.7874    7305457.27045   5622786.04161
  23420795.7794    -211612.39544    -90579.74061
 93  5 21 16 46 14.9980000  0  7G18G19G27G28G 2G29G16
  20576070.373     1182494.470 7    935995.86622
  20255236.8114   -4094601.42846  -3154932.84562
  20864988.1784  -10123110.38847  -7815816.40862
  23690003.982     1294841.137 5   1024575.90321
  22249467.279   -12970104.476 6  -9963969.47121
  23511294.592     7343688.721 5   5652576.72721
  23416446.3034    -234467.48345   -108388.91261
 93  5 21 16 46 29.9980000  0  7G18G19G27G28G 2G29G16
  20579672.451     1201414.962 7    950739.09222
  20252961.5454   -4106564.11846  -3164254.42362
  20857467.1394  -10162636.53247  -7846615.99562
  23693771.7874    1314637.04945   1040001.25861
  22240234.123   -13018588.809 6 -10001749.44521
  23518578.8654    7381961.72445   5682399.77461
  23412117.928     -257196.339 4   -126099.70721
 93  5 21 16 46 44.9980000  0  7G18G19G27G28G 2G29G16
  20583292.061     1220437.569 7    965561.88622
  20250697.6864   -4118468.13646  -3173530.28162
  20849948.6004  -10202129.11946  -7877389.43462
  23697556.9044    1334537.98845   1055508.44961
  22231022.045   -13067009.745 6 -10039480.03121
  23525868.2174    7420279.81545   5712257.96861
  23407815.9044    -279792.10144   -143706.77461
 93  5 21 16 46 59.9980000  0  7G18G19G27G28G 2G29G16
  20586929.693     1239559.083 7    980461.74222
  20248438.5144   -4130319.43246  -3182765.05662
  20842437.7404  -10241594.86746  -7908141.96962
  23701364.4434    1354539.82445   1071094.28661
  22221820.342   -13115370.949 6 -10077164.06921
  23533174.701     7458634.394 5   5742144.58721
  23403542.9514    -302261.78644   -161215.62761
 93  5 21 16 47 14.9980000  0  7G18G19G27G28G 2G29G16
  20590591.475     1258788.933 7    995446.02822
  20246196.5534   -4142111.47346  -3191953.66762
  20834934.5144  -10281026.76147  -7938868.11162
  23705195.154     1374650.837 5   1086765.18621
  22212632.1154  -13163665.02146 -10114795.80861
  23540472.3424    7497031.91145   5772064.65061
  23399286.4674    -324600.90244   -178622.73361
 93  5 21 16 47 29.9980000  0  7G18G19G27G28G 2G29G16
  20594268.0844    1278124.71847   1010512.84562
  20243961.8504   -4153845.12846  -3201096.78462
  20827438.5454  -10320425.53547  -7969568.45462
  23709038.4674    1394871.61845   1102521.61161
  22203451.8114  -13211894.32546 -10152377.05061
  23547790.3114    7535469.31345   5802015.80561
  23395064.8974    -346813.95645   -195931.60161
 93  5 21 16 47 44.9980000  0  7G18G19G27G28G 2G29G16
  20597968.373     1297573.309 7   1025667.57122
  20241742.2174   -4165516.68246  -3210191.49862
  20819948.209   -10359783.316 7  -8000236.84322
  23712912.4674    1415206.74845   1118367.12461
  22194287.725   -13260054.240 6 -10189904.23521
  23555111.561     7573949.576 5   5832000.34521
  23390866.4204    -368894.16345   -213136.98061
 93  5 21 16 47 59.9980000  0  7G18G19G27G28G 2G29G16
  20601690.498     1317128.667 7   1040905.49622
  20239533.256    -4177131.938 6  -3219242.36122
  20812469.1074  -10399101.79347  -8030874.62362
  23716799.5224    1435648.83345   1134296.01261
  22185138.748   -13308152.071 6 -10227383.04721
  23562437.8034    7612467.40545   5862014.17661
  23386685.9824    -390845.14044   -230241.65561
 93  5 21 16 48 14.9980000  0  7G18G19G27G28G 2G29G16
  20605430.701     1336785.833 7   1056222.74022
  20237331.326    -4188695.165 6  -3228252.68522
  20804992.6784  -10438380.95547  -8061481.74962
  23720709.740     1456191.264 5   1150303.09021
  22175994.5454  -13356188.17246 -10264813.75161
  23569765.022     7651018.108 4   5892053.63821
  23382537.7484    -412666.60244   -247245.37861
 93  5 21 16 48 29.9980000  0  7G18G19G27G28G 2G29G16
  20609189.865     1356549.338 7   1071622.85822
  20235144.0294   -4200205.85046  -3237222.04762
  20797526.2254  -10477616.89247  -8092055.19762
  23724639.9044    1476834.94345   1166389.03361
  22166864.225   -13404160.036 6 -10302194.41221
  23577123.5144    7689604.50445   5922120.90761
  23378402.107     -434353.834 4   -264144.53021
 93  5 21 16 48 44.9980000  0  7G18G19G27G28G 2G29G16
  20612975.467     1376423.883 7   1087109.49522
  20232962.8894   -4211661.37446  -3246148.43562
  20790070.7954  -10516807.93847  -8122593.67562
  23728588.764     1497584.428 5   1182557.47221
  22157746.459   -13452063.559 6 -10339521.81521
  23584469.717     7728231.113 5   5952219.47321
  23374303.8574    -455901.26244
 93  5 21 16 48 59.9980000  0  7G18G19G27G28G 2G29G16
  20616776.647     1396408.263 7   1102681.72122
  20230791.7014   -4223065.36646  -3255034.66263
  20782617.4594  -10555958.23547  -8153100.39962
  23732556.3574    1518436.56045   1198805.87761
  22148643.350   -13499900.593 6 -10376797.41721
  23591829.5454    7766894.30445   5982346.57761
  23370234.0924    -477313.13544
 93  5 21 16 49 14.9980000  0  7G18G19G27G28G 2G29G16
  20620601.178     1416503.549 7   1118340.36522
  20228632.6394   -4234420.71446  -3263882.99163
  20775177.6934  -10595071.09647  -8183577.93962
  23736540.5764    1539390.36745   1215133.48761
  22139559.2324  -13547672.94946 -10414022.61861
  23599194.936     7805594.004 5   6012502.09921
  23366182.428     -498592.781 4
 93  5 21 16 49 29.9980000  0  7G18G19G27G28G 2G29G16
  20624446.662     1436713.115 7   1134088.05922
  20226479.4754   -4245722.51246  -3272689.59063
  20767741.6154  -10634140.19447  -8214021.39462
  23740549.9044    1560451.19545   1231544.51761
  22130477.3504  -13595375.34446 -10451193.30061
  23606565.412     7844336.941 5   6042691.33021
  23362159.5374    -519733.07844        -0.33071
 93  5 21 16 49 44.9980000  0  7G18G19G27G28G 2G29G16
  20628311.303     1457028.725 7   1149918.38522
  20224337.6784   -4256981.64546  -3281462.93863
  20760313.4824  -10673176.48647  -8244439.28562
  23744575.092     1581609.408 5   1248031.41121
  22121412.897   -13643015.412 6 -10488315.41321
  23613937.0454    7883113.87344   6072907.05461
  23358163.568     -540742.960 4    -16371.65721
 93  5 21 16 49 59.9980000  0  7G18G19G27G28G 2G29G16
  20632201.0454    1477456.47447   1165836.08662
  20222204.5844   -4268196.01746  -3290201.41463
  20752891.7254  -10712177.78447  -8274829.89462
  23748620.0844    1602868.99945   1264597.31661
  22112355.014   -13690589.128 6 -10525385.82321
  23621333.178     7921930.949 4   6103154.02521
  23354185.943     -561617.872 3    -32637.80321
 93  5 21 16 50 14.9980000  0  7G18G19G27G28G 2G29G16
  20636109.936     1497994.465 7   1181839.68822
  20220078.4124   -4279366.59846  -3298905.76063
  20745473.0924  -10751145.89447  -8305194.64662
  23752689.3974    1624232.84645   1281244.42861
  22103321.232   -13738093.831 6 -10562402.46021
  23628724.7254    7960788.82744   6133432.78961
  23350238.9434    -582359.13443    -48799.83261
 93  5 21 16 50 29.9980000  0  7G18G19G27G28G 2G29G16
  20640039.061     1518638.253 7   1197925.72922
  20217958.5064   -4290498.53946  -3307580.00363
  20738065.7484  -10790087.33347  -8335538.62662
  23756771.2014    1645699.07245   1297971.34461
  22094292.193   -13785533.925 6 -10599368.74821
  23636126.5144    7999682.36944   6163739.41861
  23346321.6004    -602973.30744    -64862.83161
 93  5 21 16 50 44.9980000  0  7G18G19G27G28G 2G29G16
  20643984.568     1539390.335 7   1214096.17022
  20215851.8894   -4301586.64746  -3316220.08463
  20730660.4514  -10829000.88047  -8365860.85562
  23760877.3264    1667273.40145   1314782.49961
  22085279.5294  -13832906.86846 -10636282.71861
  23643543.639     8038618.660 4   6194079.33421
  23342425.1784    -623459.72844    -80826.24961
 93  5 21 16 50 59.9980000  0  7G18G19G27G28G 2G29G16
  20647954.381     1560245.569 7   1230346.98022
  20213746.6864   -4312635.04846  -3324829.23062
  20723259.4204  -10867891.11247  -8396164.92462
  23765001.2404    1688949.68145   1331673.08761
  22076275.7564  -13880217.14946 -10673147.85461
  23650944.2404    8077589.77244   6224446.35761
  23338550.7724    -643826.37344    -96696.38061
 93  5 21 16 51 14.9980000  0  7G18G19G27G28G 2G29G16
  20651942.381     1581212.164 7   1246684.56522
  20211655.6474   -4323637.30546  -3333402.40462
  20715865.3114  -10906749.69147  -8426444.32562
  23769148.1394    1710732.50845   1348646.66761
  22067283.748   -13927460.492 6 -10709960.82821
  23658378.0924    8116598.93545   6254843.05161
  23334690.5534    -664070.25344   -112470.88461
 93  5 21 16 51 29.9980000  0  7G18G19G27G28G 2G29G16
  20655954.600     1602279.518 7   1263100.66122
  20209567.7644   -4334597.44446  -3341942.77962
  20708475.1934  -10945579.64947  -8456701.43262
  23773309.373     1732614.705 5   1365697.71721
  22058305.522   -13974645.210 6 -10746728.11721
  23665801.3264    8155642.09144   6285266.23461
  23330864.6704    -684195.03644   -128152.52861
 93  5 21 16 51 44.9980000  0  7G18G19G27G28G 2G29G16
  20659984.053     1623449.045 7   1279596.38922
  20207493.2954   -4345509.97046  -3350446.04762
  20701095.0294  -10984377.54947  -8486933.56562
  23777497.7404    1754598.17545   1382827.66661
  22049335.490   -14021768.715 6 -10783447.71621
  23673240.928     8194719.574 4   6315716.13221
  23327059.0844    -704197.51944   -143738.88561
 93  5 21 16 51 59.9980000  0  7G18G19G27G28G 2G29G16
  20664029.686     1644724.485 7   1296174.64122
  20205424.1234   -4356368.26446  -3358907.05862
  20693717.053   -11023137.185 7  -8517135.85722
  23781697.732     1776685.698 5   1400038.71021
  22040386.201   -14068826.115 6 -10820115.80721
  23680686.6864    8233836.49944   6346196.78861
  23323268.9044    -724073.75044   -159226.90061
 93  5 21 16 52 14.9980000  0  7G18G19G27G28G 2G29G16
  20668093.764     1666102.027 7   1312832.42922
  20203369.6394   -4367173.91546  -3367327.05162
  20686347.4434  -11061859.07647  -8547308.76162
  23785920.8264    1798874.53445   1417328.68561
  22031439.022   -14115819.802 6 -10856734.24821
  23688139.0454    8272991.27344   6376706.92861
  23319515.092     -743822.833 4   -174615.79121
 93  5 21 16 52 29.9980000  0  7G18G19G27G28G 2G29G16
  20672183.600     1687580.731 7   1329569.06522
  20201323.7954   -4377924.33646  -3375704.00562
  20678989.3034  -11100541.50247  -8577450.89962
  23790159.990     1821161.309 5   1434694.99121
  22022512.607   -14162749.324 6 -10893302.69421
  23695589.0844    8312184.05044   6407246.66561
  23315784.0534    -763443.29644   -189904.47761
 93  5 21 16 52 44.9980000  0  7G18G19G27G28G 2G29G16
  20676290.584     1709161.872 7   1346385.51622
  20199288.4754   -4388619.63146  -3384037.99662
  20671632.326   -11139183.210 7  -8607561.30022
  23794423.959     1843542.356 5   1452134.73721
  22013591.303   -14209619.092 6 -10929824.56621
  23703062.826     8351414.051 5   6437815.42021
  23312078.678     -782935.300 4   -205093.09721
 93  5 21 16 52 59.9980000  0  7G18G19G27G28G 2G29G16
  20680418.482     1730849.077 7   1363284.61222
  20197263.053    -4399258.867 6  -3392328.32923
  20664288.9824  -11177779.47247  -8637636.31462
  23798697.162     1866018.346 5   1469648.46121
  22004680.428   -14256427.856 6 -10966298.90721
  23710538.670     8390680.074 5   6468412.25221
  23308384.6154    -802297.24243   -220180.28761
 93  5 21 16 53 14.9980000  0  7G18G19G27G28G 2G29G16
  20684569.209     1752643.875 7   1380267.55022
  20195250.1784   -4409840.99746  -3400574.14163
  20656955.6074  -11216325.46647  -8667672.15062
  23802994.397     1888590.762 5   1487237.33821
  21995789.342   -14303173.837 6 -11002724.33221
  23718006.8114    8429980.91244   6499036.18961
  23304731.7794    -821526.71244   -235164.30961
 93  5 21 16 53 29.9980000  0  7G18G19G27G28G 2G29G16
  20688735.8114    1774537.66047   1397327.61562
  20193247.1154   -4420370.39946  -3408778.87163
  20649627.428   -11254825.100 7  -8697671.84622
  23807301.834     1911256.292 5   1504898.77821
  21986906.522   -14349860.996 6 -11039103.91721
  23725497.334     8469314.125 4   6529685.40021
  23301096.8504    -840626.53943   -250047.32461
 93  5 21 16 53 44.9980000  0  7G18G19G27G28G 2G29G16
  20692919.9514    1796532.85447   1414466.69762
  20191251.2254   -4430845.26746  -3416941.10862
  20642311.2874  -11293276.57647  -8727634.02662
  23811638.7254    1934019.46945   1522636.28961
  21978032.162   -14396484.812 6 -11075434.14921
  23732991.959     8508680.252 4   6560360.22621
  23297487.084     -859593.589 4   -264826.84321
 93  5 21 16 53 59.9980000  0  7G18G19G27G28G 2G29G16
  20697125.740     1818630.604 7   1431685.70422
  20189269.436    -4441271.638 6  -3425065.56322
  20635003.7014  -11331684.12247  -8757561.97562
  23815986.490     1956877.314 5   1540447.57721
  21969172.2254  -14443046.23246 -11111715.77061
  23740473.779     8548074.975 3   6591057.33721
  23293905.4284    -878430.45444   -279504.93761
 93  5 21 16 54 14.9980000  0  7G18G19G27G28G 2G29G16
  20701346.904     1840834.099 7   1448987.11022
  20187293.4124   -4451651.06846  -3433153.43663
  20627703.0374  -11370045.63947  -8787454.06462
  23820355.6004    1979832.82144   1558334.96961
  21960323.193   -14489542.725 6 -11147946.78021
  23747999.4594    8587501.19743   6621778.97661
  23290346.9984    -897132.33544   -294077.83761
 93  5 21 16 54 29.9980000  0  7G18G19G27G28G 2G29G16
  20705594.8034    1863143.37347   1466370.94762
  20185324.8344   -4461984.56646  -3441205.51563
  20620412.412   -11408362.750 7  -8817311.53122
  23824740.982     2002885.435 4   1576298.00421
  21951483.545   -14535975.458 6 -11184128.11721
  23755486.897     8626956.594 3   6652523.34721
  23286812.1784    -915700.26844   -308546.36961
 93  5 21 16 54 44.9980000  0  7G18G19G27G28G 2G29G16
  20709857.756     1885557.853 7   1483836.75522
  20183370.1394   -4472272.21846  -3449221.87163
  20613128.0764  -11446633.98347  -8847133.26662
  23829148.772     2026036.491 5   1594337.75521
  21942663.8184  -14582344.18646 -11220259.59061
  23763007.8814    8666440.55744   6683290.00661
  23283305.4124    -934137.92445   -322913.35661
 93  5 21 16 54 59.9980000  0  7G18G19G27G28G 2G29G16
  20714144.240     1908076.923 7   1501384.06522
  20181419.7174   -4482515.88346  -3457203.95363
  20605855.4044  -11484862.36347  -8876921.60762
  23833572.709     2049286.717 5   1612454.80221
  21933849.654   -14628648.418 6 -11256340.78921
  23770525.9514    8705951.80944   6714077.92661
  23279812.779     -952448.114 4   -337181.05721
 93  5 21 16 55 14.9980000  0  7G18G19G27G28G 2G29G16
  20718449.1784    1930694.67847   1519008.26462
  20179479.2644   -4492717.03146  -3465152.90163
  20598587.4594  -11523052.00347  -8906679.75862
  23838016.662     2072631.182 5   1630645.26921
  21925055.5374  -14674888.89846 -11292372.32561
  23778042.326     8745485.516 4   6744883.35121
  23276355.9364    -970632.45145   -351350.66561
 93  5 21 16 55 29.9980000  0  7G18G19G27G28G 2G29G16
  20722773.631     1953413.142 7   1536710.94022
  20177547.4044   -4502868.60446  -3473063.22663
  20591326.217   -11561202.416 7  -8936407.33622
  23842475.123     2096071.835 5   1648910.69921
  21916269.8184  -14721061.23146 -11328350.75761
  23785567.3814    8785048.55844   6775711.62561
  23272927.061     -988687.088 4   -365419.22721
 93  5 21 16 55 44.9980000  0  7G18G19G27G28G 2G29G16
  20727114.115     1976233.157 7   1554492.75022
  20175625.264    -4512971.614 6  -3480935.70923
  20584075.0614  -11599315.56547  -8966105.89962
  23846954.2794    2119609.19445   1667251.47161
  21907492.404   -14767165.726 6 -11364276.32321
  23793123.186     8824643.153 4   6806564.48221
  23269505.0374   -1006613.09444   -379387.55761
 93  5 21 16 55 59.9980000  0  7G18G19G27G28G 2G29G16
  20731479.193     1999152.761 7   1572352.16322
  20173713.0614   -4523030.81346  -3488774.04663
  20576829.5454  -11637395.79947  -8995778.80462
  23851452.170     2143238.012 5   1685663.51021
  21898735.0534  -14813205.27546 -11400151.28261
  23800642.990     8864267.736 3   6837440.70321
  23266116.162    -1024415.581 4   -393259.58521
 93  5 21 16 56 14.9980000  0  7G18G19G27G28G 2G29G16
  20735853.459     2022162.957 7   1590282.15922
  20171804.4674   -4533051.60446  -3496582.46162
  20569586.8504  -11675448.93247  -9025430.58262
  23855962.4824    2166951.82245   1704141.77061
  21889982.451   -14859184.709 6 -11435979.39421
  23808198.7564    8903919.79343   6868338.32161
  23262760.0844   -1042099.30844   -407039.13961
 93  5 21 16 56 29.9980000  0  7G18G19G27G28G 2G29G16
  20740251.967     2045264.505 7   1608283.34422
  20169904.2794   -4543024.68846  -3504353.69862
  20562353.6864  -11713471.37447  -9055058.46062
  23860496.147     2190754.429 5   1722689.24021
  21881244.936   -14905100.198 6 -11471757.68321
  23815754.7094    8943601.69843   6899259.18961
  23259418.5534   -1059661.99045   -420724.37161
 93  5 21 16 56 44.9980000  0  7G18G19G27G28G 2G29G16
  20744662.068     2068454.256 7   1626353.26122
  20168016.279    -4552950.881 6  -3512088.41622
  20555118.7174  -11751464.48147  -9084663.45762
  23865037.9514    2214643.64945   1741304.20461
  21872520.0294  -14950954.17346 -11507488.03561
  23823296.6074    8983310.75343   6930201.22061
  23256093.2174   -1077107.24544   -434318.09161
 93  5 21 16 56 59.9980000  0  7G18G19G27G28G 2G29G16
  20749095.123     2091735.140 7   1644494.18522
  20166137.498    -4562827.088 6  -3519784.16822
  20547896.3184  -11789426.69847  -9114244.41162
  23869603.514     2238623.789 5   1759989.98621
  21863808.2564  -14996743.40746 -11543167.95361
  23830871.217     9023048.442 4   6961165.56121
  23252790.4284   -1094430.29744   -447816.56161
 93  5 21 16 57 14.9980000  0  7G18G19G27G28G 2G29G16
  20753540.607     2115108.804 7   1662707.40922
  20164268.6154   -4572650.25946  -3527438.58962
  20540677.647   -11827357.369 7  -9143800.76222
  23874182.272     2262695.946 5   1778747.49121
  21855111.170   -15042465.736 6 -11578795.72621
  23838437.045     9062814.134 4   6992151.72521
  23249526.2954   -1111626.34844   -461216.08661
 93  5 21 16 57 29.9980000  0  7G18G19G27G28G 2G29G16
  20758008.7794    2138575.59547   1680993.19462
  20162408.529    -4582418.900 6  -3535050.52522
  20533467.3184  -11865254.58447  -9173331.05662
  23878782.4674    2286860.70545   1797577.14061
  21846417.092   -15088122.197 6 -11614372.16821
  23846001.717     9102608.933 3   7023160.60121
  23246281.709    -1128694.457 4   -474515.88021
 93  5 21 16 57 44.9980000  0  7G18G19G27G28G 2G29G16
  20762492.889     2162141.955 7   1699356.57222
  20160558.3504   -4592131.14446  -3542618.51662
  20526263.3424  -11903113.04047  -9202831.14762
  23883398.748     2311125.983 5   1816485.10021
  21837744.5454  -15133708.27046 -11649893.77461
  23853586.818     9142436.803 4   7054195.22421
  23243052.1934   -1145629.85444   -487712.31661
 93  5 21 16 57 59.9980000  0  7G18G19G27G28G 2G29G16
  20766994.2564    2185805.38047   1717795.56662
  20158722.311    -4601791.443 6  -3550146.02822
  20519066.1074  -11940934.41247  -9232302.33862
  23888034.8184    2335487.03145   1835467.71261
  21829079.076   -15179225.717 6 -11685361.89421
  23861175.5684    9182292.32944   7085251.37961
  23239855.498    -1162434.656 4   -500806.96721
 93  5 21 16 58 14.9980000  0  7G18G19G27G28G 2G29G16
  20771518.178     2209567.086 7   1736311.15922
  20156896.8894   -4611395.99146  -3557630.08962
  20511877.5294  -11978716.98747  -9261743.30862
  23892686.357     2359944.132 4   1854525.17421
  21820434.139   -15224673.559 6 -11720775.79121
  23868751.1704    9222175.60843   7116329.18061
  23236689.342    -1179104.430 5   -513796.39821
 93  5 21 16 58 29.9980000  0  7G18G19G27G28G 2G29G16
  20776058.123     2233426.141 7   1754902.61822
  20155076.9754   -4620943.18046  -3565069.45662
  20504693.615   -12016463.377 7  -9291156.06922
  23897359.912     2384495.161 4   1873655.82821
  21811800.5064  -15270055.07546 -11756138.00161
  23876358.256     9262081.469 4   7147424.58821
  23233545.4594   -1195641.65144   -526682.55061
 93  5 21 16 58 44.9980000  0  7G18G19G27G28G 2G29G16
  20780617.584     2257389.750 7   1773575.53622
  20153275.9364   -4630432.08946  -3572463.41262
  20497517.8034  -12054169.89247  -9320537.75262
  23902051.975     2409142.048 5   1892861.15121
  21803172.404   -15315369.235 6 -11791447.71521
  23883949.4674    9302013.22343   7178540.16661
  23230418.0684   -1212042.83144   -539462.73261
 93  5 21 16 58 59.9980000  0  7G18G19G27G28G 2G29G16
  20785198.006     2281457.428 7   1792329.55622
  20151476.4364   -4639866.86746  -3579815.19362
  20490350.6394  -12091838.90647  -9349890.23663
  23906757.0684    2433882.83344   1912139.64661
  21794562.7724  -15360618.54946 -11826706.90561
  23891562.0144    9341970.89843   7209675.91561
  23227320.9754   -1228311.09644   -552139.29561
 93  5 21 16 59 14.9980000  0  7G18G19G27G28G 2G29G16
  20789795.397     2305625.876 7   1811162.09522
  20149692.639    -4649250.008 6  -3587126.74122
  20483188.100   -12129473.903 7  -9379216.19323
  23911483.615     2458711.934 4   1931486.97821
  21785961.3894  -15405807.71346 -11861919.23261
  23899164.3894    9381952.72043   7240830.47361
  23224248.139    -1244451.562 3   -564716.31321
 93  5 21 16 59 29.9980000  0  7G18G19G27G28G 2G29G16
  20794415.592     2329893.478 7   1830071.89722
  20147914.0924   -4658581.79446  -3594398.26462
  20476032.2874  -12167074.42147  -9408515.29462
  23916219.256     2483625.069 4   1950899.78321
  21777376.1624  -15450938.71446 -11897086.24061
  23906768.131     9421959.001 3   7272004.16721
  23221203.5294   -1260466.20743   -577195.23461
 93  5 21 16 59 44.9980000  0  7G18G19G27G28G 2G29G16
  20799052.318     2354263.150 7   1849061.22822
  20146149.3504   -4667859.95546  -3601628.00962
  20468887.4674  -12204637.28247  -9437785.05163
  23920982.1624    2508624.42444   1970379.78861
  21768798.8114  -15496009.38446 -11932206.22861
  23914406.5294    9461995.52044   7303201.34761
  23218182.857    -1276352.395 3   -589574.13321
 93  5 21 16 59 59.9980000  0  7G18G19G27G28G 2G29G16
  20803706.779     2378728.988 7   1868125.49222
  20144392.506    -4677091.031 6  -3608821.05622
  20461743.6544  -12242167.51047  -9467029.36863
  23925753.131     2533704.013 5   1989922.30021
  21760234.6314  -15541022.78646 -11967281.59861
  23922023.6004    9502057.64844   7334418.48361
  23215176.6934   -1292115.47543   -601857.05961
 93  5 21 17  0 14.9980000  0  7G18G19G27G28G 2G29G16
  20808384.232     2403291.967 7   1887265.45922
  20142648.178    -4686269.580 6  -3615973.19522
  20454609.2014  -12279662.93247  -9496246.58362
  23930538.9754    2558864.74345   2009528.04761
  21751678.232   -15585979.495 6 -12002312.78121
  23929652.6474    9542148.13543   7365657.72561
  23212203.7954   -1307754.75244   -614043.51961
 93  5 21 17  0 29.9980000  0  7G18G19G27G28G 2G29G16
  20813074.342     2427954.485 7   1906482.98622
  20140911.9284   -4695392.92046  -3623082.28962
  20447480.4904  -12317120.61747  -9525434.38762
  23935349.5924    2584110.49445   2029200.05461
  21743135.615   -15630877.453 6 -12037298.18421
  23937292.998     9582267.201 4   7396919.23121
  23209252.7874   -1323269.85843   -626133.21261
 93  5 21 17  0 44.9980000  0  7G18G19G27G28G 2G29G16
  20817787.154     2452712.773 7   1925775.13522
  20139184.0224   -4704468.53546  -3630154.20662
  20440357.8344  -12354543.13847  -9554594.79362
  23940163.6934    2609437.15345   2048935.10061
  21734602.4754  -15675720.24946 -12072240.61661
  23944920.8264    9622410.01144   7428199.22861
  23206325.022    -1338664.941 3   -638129.38721
 93  5 21 17  0 59.9980000  0  7G18G19G27G28G 2G29G16
  20822514.123     2477564.471 7   1945140.07022
  20137465.0684   -4713496.63046  -3637189.08562
  20433245.529   -12391928.329 7  -9583726.09123
  23945002.897     2634847.223 5   2068735.14421
  21726074.5294  -15720505.64946 -12107138.31961
  23952568.357     9662577.555 4   7459498.52721
  23203418.8264   -1353937.47144   -650030.07061
 93  5 21 17  1 14.9980000  0  7G18G19G27G28G 2G29G16
  20827263.295     2502514.329 7   1964581.49822
  20135759.4984   -4722467.56946  -3644179.43862
  20426140.9434  -12429267.43447  -9612821.49463
  23949856.147     2660348.013 5   2088605.90021
  21717570.545   -15765223.788 6 -12141983.60721
  23960217.303     9702776.795 4   7490822.52521
  23200536.8654   -1369080.00943   -661829.43361
 93  5 21 17  1 29.9980000  0  7G18G19G27G28G 2G29G16
  20832028.584     2527556.260 7   1984094.66022
  20134060.8814   -4731387.22246  -3651129.82562
  20419043.5684  -12466563.29747  -9641883.20262
  23954720.740     2685935.110 5   2108543.92421
  21709075.311   -15809876.233 6 -12176777.69121
  23967877.928     9743003.578 3   7522167.97421
  23197675.4124   -1384094.41643   -673528.98061
 93  5 21 17  1 44.9980000  0  7G18G19G27G28G 2G29G16
  20836811.6784    2552692.60947   2003681.40562
  20132374.6004   -4740256.07646  -3658040.62562
  20411953.9594  -12503814.68547  -9670910.25162
  23959609.5614    2711611.70645   2128551.65261
  21700588.123   -15854460.706 6 -12211518.82521
  23975528.8424    9783258.50543   7553535.31661
  23194848.209    -1398979.510 4   -685127.77221
 93  5 21 17  1 59.9980000  0  7G18G19G27G28G 2G29G16
  20841611.9434    2577924.64647   2023342.70462
  20130693.6314   -4749074.89446  -3664912.44162
  20404874.8894  -12541020.83847  -9699902.05062
  23964511.9754    2737379.58045   2148630.50461
  21692117.943   -15898974.334 6 -12246204.75221
  23983206.1544    9823539.14143   7584922.75861
  23192030.4284   -1413736.60443   -696626.83561
 93  5 21 17  2 14.9980000  0  7G18G19G27G28G 2G29G16
  20846431.2174    2603253.10247   2043079.14062
  20129030.1864   -4757841.56646  -3671743.61962
  20397803.8734  -12578178.38747  -9728855.97862
  23969431.4364    2763241.35945   2168782.54361
  21683658.037   -15943414.492 6 -12280833.42621
  23990870.6314    9863844.55843   7616329.44661
  23189254.1704   -1428366.67544   -708026.91161
 93  5 21 17  2 29.9980000  0  7G18G19G27G28G 2G29G16
  20851271.7174    2628684.14747   2062895.52362
  20127371.0614   -4766552.26146  -3678531.18462
  20390741.0844  -12615283.92847  -9757769.37862
  23974373.1784    2789202.45044   2189011.97461
  21675221.186   -15987775.645 6 -12315400.54021
  23998549.3114    9904179.05943   7647758.83661
  23186496.6624   -1442862.80844   -719322.58261
 93  5 21 17  2 44.9980000  0  7G18G19G27G28G 2G29G16
  20856128.3974    2654209.02047   2082785.02862
  20125723.0374   -4775216.14546  -3685282.26162
  20383688.9984  -12652345.28147  -9786648.34262
  23979330.8654    2815255.37344   2209312.95161
  21666788.740   -16032061.299 6 -12349908.83221
  24006220.561     9944538.654 3   7679207.77021
  23183765.311    -1457231.582 4   -730519.06921
 93  5 21 17  2 59.9980000  0  7G18G19G27G28G 2G29G16
  20861005.9904    2679831.85447   2102750.83762
  20124083.7094   -4783828.06246  -3691992.85462
  20376645.7014  -12689356.79347  -9815488.48662
  23984305.2014    2841405.02344   2229689.30661
  21658378.0844  -16076265.10746 -12384353.34561
  24013917.342     9984931.827 3   7710682.86721
  23181049.7324   -1471469.22944   -741613.33761
 93  5 21 17  3 14.9980000  0  7G18G19G27G28G 2G29G16
  20865899.709     2705550.348 7   2122791.20722
  20122452.7874   -4792388.04746  -3698662.98162
  20369613.8114  -12726319.89547  -9844290.90862
  23989298.834     2867647.303 4   2250137.81421
  21649983.537   -16120390.126 6 -12418736.47021
  24021595.842    10025356.408 3   7742182.42721
  23178362.264    -1485580.617 4   -752609.23821
 93  5 21 17  3 29.9980000  0  7G18G19G27G28G 2G29G16
  20870812.357     2731362.036 7   2142904.18622
  20120831.8814   -4800902.26046  -3705297.43562
  20362588.6004  -12763238.16847  -9873058.38862
  23994310.5144    2893975.54544   2270653.30761
  21641600.826   -16164443.565 6 -12453063.80921
  24029303.209    10065807.352 2   7773702.54521
  23175700.3734   -1499571.76443   -763511.42961
 93  5 21 17  3 44.9970000  0  7G18G19G27G28G 2G29G16
  20875742.501     2757268.530 7   2163091.04622
  20119223.845    -4809366.503 6  -3711892.96722
  20355572.1424  -12800108.49447  -9901788.50662
  23999335.7354    2920389.16844   2291235.32061
  21633228.532   -16208422.067 6 -12487332.75621
  24037001.439    10106282.067 2   7805241.16621
  23173062.5874   -1513440.34544   -774318.14461
 93  5 21 17  3 59.9970000  0  7G18G19G27G28G 2G29G16
  20880689.1184    2783268.32347   2183350.59362
  20117618.5644   -4817785.42146  -3718453.16362
  20348562.4154  -12836941.38647  -9930489.45462
  24004379.548     2946886.949 4   2311882.92921
  21624873.103   -16252338.347 6 -12521553.22121
  24044697.946    10146777.438 2   7836795.88821
  23170442.7284   -1527193.21943   -785034.67661
 93  5 21 17  4 14.9970000  0  7G18G19G27G28G 2G29G16
  20885654.978     2809357.840 7   2203680.06822
  20116027.5014   -4826156.20646  -3724975.85862
  20341560.8214  -12873730.82847  -9959156.54662
  24009437.6894    2973466.26043   2332594.07361
  21616529.806   -16296187.757 6 -12555721.57721
  24052413.665    10187292.653 2   7868366.07421
  23167852.235    -1540826.031 3   -795657.64221
 93  5 21 17  4 29.9970000  0  7G18G19G27G28G 2G29G16
  20890636.2984    2835535.02747   2224077.84562
  20114441.3684   -4834478.13346  -3731460.48062
  20334568.876   -12910477.849 7  -9987790.57722
  24014511.2824    3000127.52343   2353369.07461
  21608198.259   -16339973.681 6 -12589840.46321
  24060136.5404   10227830.19843   7899953.66061
  23165283.782    -1554334.615 4   -806183.82821
 93  5 21 17  4 44.9970000  0  7G18G19G27G28G 2G29G16
  20895632.939     2861801.993 7   2244545.59022
  20112869.884    -4842746.346 6  -3737903.24922
  20327583.2594  -12947177.87847 -10016387.99963
  24019603.649     3026871.907 4   2374208.84521
  21599877.212   -16383694.166 6 -12623908.35321
  24067845.204    10268391.411 3
  23162734.3144   -1567713.52044   -816608.98061
 93  5 21 17  4 59.9970000  0  7G18G19G27G28G 2G29G16
  20900648.353     2888154.063 7   2265079.63922
  20111304.0324   -4850964.43146  -3744306.95562
  20320610.9624  -12983832.65247 -10044950.15863
  24024706.649     3053694.757 4   2395109.73621
  21591569.837   -16427355.532 6 -12657930.17921
  24075571.9854   10308969.14443
  23160220.970    -1580968.297 4   -826937.36921
 93  5 21 17  5 14.9970000  0  7G18G19G27G28G 2G29G16
  20905676.399     2914595.045 6   2285682.97922
  20109754.6264   -4859128.11446  -3750668.27262
  20313642.8534  -13020438.68547 -10073474.32763
  24029821.4544    3080598.04344   2416073.32561
  21583271.884   -16470958.241 6 -12691906.30021
  24083294.7434   10349562.42743        -0.36971
  23157717.4784   -1594094.10044   -837165.28261
 93  5 21 17  5 29.9970000  0  7G18G19G27G28G 2G29G16
  20910726.2594    2941120.97847   2306352.51162
  20108207.860    -4867242.386 6  -3756991.09022
  20306687.0714  -13057001.58347 -10101964.89463
  24034957.1574    3107576.83244   2437095.76461
  21574982.603   -16514509.136 6 -12725842.04421
  24091020.103    10390164.873 3     31637.82021
  23155245.7354   -1607093.98744   -847295.05661
 93  5 21 17  5 44.9970000  0  7G18G19G27G28G 2G29G16
  20915789.7744    2967734.44047   2327090.24362
  20106674.9314   -4875306.26946  -3763274.63662
  20299734.9464  -13093522.24947 -10130422.55863
  24040105.8374    3134633.55344   2458178.92761
  21566709.9854  -16558003.56946 -12759733.80361
  24098751.853    10430775.964 2     63282.67821
  23152797.3924   -1619966.24344   -857325.41561
 93  5 21 17  5 59.9970000  0  7G18G19G27G28G 2G29G16
  20920875.267     2994433.573 7   2347894.74822
  20105148.1814   -4883317.58446  -3769517.22462
  20292795.2124  -13130000.13147 -10158846.86663
  24045267.259     3161768.947 4   2479323.35321
  21558445.5404  -16601439.42446 -12793579.91361
  24106483.353    10471394.698 2     94933.54821
  23150370.728    -1632710.883 4   -867256.30521
 93  5 21 17  6 14.9970000  0  7G18G19G27G28G 2G29G16
  20925971.0484    3021224.38947   2368770.67362
  20103637.7284   -4891271.44246  -3775715.03262
  20285860.8604  -13166427.55547 -10187231.87562
  24050445.267     3188990.120 4   2500534.64321
  21550192.251   -16644809.522 6 -12827374.77722
  24114217.540    10512030.048 3    126597.32221
  23147964.8604   -1645321.24543   -877082.61161
 93  5 21 17  6 29.9970000  0  7G18G19G27G28G 2G29G16
  20931085.6494    3048109.09447   2389719.76662
  20102134.7984   -4899168.90046  -3781868.90762
  20278940.7354  -13202806.85747 -10215579.37763
  24055645.5954    3216294.15844   2521810.51861
  21541948.493   -16688117.523 6 -12861121.25321
  24121950.2284   10552682.36042    158274.34161
  23145589.3454   -1657801.78243   -886807.70961
 93  5 21 17  6 44.9970000  0  7G18G19G27G28G 2G29G16
  20936224.196     3075088.813 7   2410742.90122
  20100642.3994   -4907009.29846  -3787978.31062
  20272026.3144  -13239141.74447 -10243892.26863
  24060858.993     3243681.066 5   2543150.94721
  21533723.1424  -16731363.89746 -12894819.71462
  24129686.704    10593350.415 3    189963.64521
  23143239.993    -1670156.082 4   -896434.46721
 93  5 21 17  6 59.9970000  0  7G18G19G27G28G 2G29G16
  20941373.126     3102164.931 7   2431841.15022
  20099159.7284   -4914792.95746  -3794043.50762
  20265119.0094  -13275433.29147 -10272171.38763
  24066085.1424    3271148.46945   2564554.09061
  21525501.157   -16774549.125 6 -12928470.52521
  24137428.696    10634032.782 3    221664.01921
  23140912.0794   -1682390.60444   -905967.87361
 93  5 21 17  7 14.9970000  0  7G18G19G27G28G 2G29G16
  20946544.4624    3129336.94547   2453014.11862
  20097690.9394   -4922523.08046  -3800066.97962
  20258220.681   -13311686.692 7 -10300420.78523
  24071326.157     3298693.645 5   2586017.85521
  21517297.0174  -16817675.89446 -12962075.78661
  24145179.017    10674731.542 3    253377.23421
  23138615.782    -1694509.299 4   -915411.00521
 93  5 21 17  7 29.9970000  0  7G18G19G27G28G 2G29G16
  20951735.923     3156610.821 7   2474266.46422
  20096227.2594   -4930193.39046  -3806043.85062
  20251332.6654  -13347897.54247 -10328637.02363
  24076585.2124    3326320.88845   2607545.57761
  21509098.9624  -16860738.63546 -12995631.15461
  24152924.0404   10715452.84142    285107.97061
  23136319.5244   -1706507.76843   -924760.47461
 93  5 21 17  7 44.9970000  0  7G18G19G27G28G 2G29G16
  20956941.454     3183983.439 7   2495595.75322
  20094780.9784   -4937807.69546  -3811977.06962
  20244447.3924  -13384070.73747 -10356823.93563
  24081857.165     3354028.474 5   2629135.90321
  21500915.571   -16903738.699 6 -13029137.68121
  24160678.2434   10756193.21642    316853.60061
  23134061.360    -1718390.335 3   -934019.65121
 93  5 21 17  7 59.9970000  0  7G18G19G27G28G 2G29G16
  20962170.603     3211456.721 7   2517003.48122
  20093343.4234   -4945358.84246  -3817861.08962
  20237570.5174  -13420201.31347 -10384977.62863
  24087145.1034    3381822.01945   2650793.21461
  21492749.251   -16946669.389 6 -13062590.15321
  24168437.985    10796958.798 2    348618.85321
  23131823.165    -1730151.940 3   -943184.53321
 93  5 21 17  8 14.9970000  0  7G18G19G27G28G 2G29G16
  20967417.5174    3239029.63447   2538488.84162
  20091920.0014   -4952846.06246  -3823695.29362
  20230704.3764  -13456288.77047 -10413097.72163
  24092448.962     3409700.593 4   2672516.77321
  21484590.290   -16989535.148 6 -13095992.02721
  24176199.1654   10837752.40343    380405.91161
  23129611.571    -1741792.369 4   -952255.00121
 93  5 21 17  8 29.9970000  0  7G18G19G27G28G 2G29G16
  20972684.048     3266696.199 7   2560047.17722
  20090508.8144   -4960276.24046  -3829485.04662
  20223841.8764  -13492340.60047 -10441190.05163
  24097767.751     3437656.864 4   2694300.88421
  21476446.048   -17032340.757 6 -13129347.03121
  24183965.743    10878569.023 3    412210.97221
  23127422.7124   -1753315.60944   -961234.21461
 93  5 21 17  8 44.9970000  0  7G18G19G27G28G 2G29G16
  20977967.649     3294455.378 7   2581677.67922
  20089104.7904   -4967645.95146  -3835227.68262
  20216991.1104  -13528355.75747 -10469253.81663
  24103103.7674    3465691.47144   2716146.03461
  21468310.1734  -17075081.67946 -13162651.61961
  24191735.759    10919408.941 3    444034.13621
  23125245.2204   -1764718.70743   -970119.73461
 93  5 21 17  8 59.9970000  0  7G18G19G27G28G 2G29G16
  20983264.0484    3322302.23147   2603376.49062
  20087710.8844   -4974956.89646  -3840924.53362
  20210144.3064  -13564333.81647 -10497288.66263
  24108456.345     3493803.251 4   2738051.29021
  21460189.0324  -17117755.75046 -13195904.13361
  24199514.181    10960269.183 2    475873.16521
  23123091.407    -1775999.675 3   -978910.13021
 93  5 21 17  9 14.9970000  0  7G18G19G27G28G 2G29G16
  20988577.7674    3350233.45346   2625141.04862
  20086331.517    -4982213.449 6  -3846579.00823
  20203303.7904  -13600274.72347 -10525294.56263
  24113820.5484    3521989.51744   2760014.61161
  21452084.923   -17160362.869 6 -13229104.47321
  24207288.368    11001146.809 2
  23120983.915    -1787155.256 3   -987602.81121
 93  5 21 17  9 29.9970000  0  7G18G19G27G28G 2G29G16
  20993909.4704    3378250.49246   2646972.47961
  20084961.540    -4989411.030 6  -3852187.51823
  20196474.1964  -13636171.97147 -10553266.43763
  24119196.478     3550254.224 4   2782039.06621
  21443983.985   -17202895.823 6 -13262247.01421
  24215078.6894   11042042.97943
  23118882.1344   -1798177.35444   -996191.45261
 93  5 21 17  9 44.9970000  0  7G18G19G27G28G 2G29G16
  20999257.556     3406346.036 6   2668865.08521
  20083601.6964   -4996555.23646  -3857754.44463
  20189650.0714  -13672029.35947 -10581207.25663
  24124583.3214    3578591.43143   2804120.01661
  21435907.165   -17245359.856 6 -13295335.86521
  24222860.774    11082950.299 3
  23116804.1654   -1809072.74644  -1004681.35161
 93  5 21 17  9 59.9970000  0  7G18G19G27G28G 2G29G16
  21004618.8924    3434519.68746   2690818.55261
  20082250.7284   -5003644.35846  -3863278.43563
  20182836.5794  -13707841.24747 -10609112.61963
  24129994.259     3607004.552 3   2826260.12621
  21427843.868   -17287752.596 6 -13328369.15821
  24230646.6894   11123871.94442        -0.22271
  23114761.1424   -1819838.85644  -1013070.61661
 93  5 21 17 10 14.9970000  0  7G18G19G27G28G 2G29G16
  21009997.149     3462771.721 7   2712833.09722
  20080915.2354   -5010679.09146  -3868760.05363
  20176027.3684  -13743605.99447 -10636981.25363
  24135413.6574    3635492.00143   2848458.13061
  21419789.985   -17330074.141 6 -13361346.97021
  24238428.939    11164810.030 2     31899.47021
  23112727.8764   -1830477.65643  -1021360.57261
 93  5 21 17 10 29.9970000  0  7G18G19G27G28G 2G29G16
  21015385.6734    3491095.31846   2734903.40061
  20079583.618    -5017668.815 6  -3874206.60023
  20169232.9154  -13779328.92447 -10664817.30963
  24140850.829     3664047.822 3   2870709.42421
  21411744.634   -17372330.147 6 -13394273.71021
  24246228.5094   11205756.87542     63805.93161
  23110731.2354   -1840994.79143  -1029555.73461
 93  5 21 17 10 44.9970000  0  7G18G19G27G28G 2G29G16
  21020789.5644    3519495.35346   2757033.25961
  20078262.8604   -5024610.46046  -3879615.68362
  20162445.4314  -13815003.97147 -10692616.03263
  24146299.3604    3692677.81944   2893018.51661
  21403715.884   -17414512.623 6 -13427143.16622
  24254025.0094   11246715.62743     95721.67961
  23108755.009    -1851385.740 4  -1037652.64121
 93  5 21 17 10 59.9970000  0  7G18G19G27G28G 2G29G16
  21026204.743     3547970.494 6   2779221.65922
  20076951.0564   -5031507.05346  -3884989.65162
  20155662.0484  -13850632.73347 -10720378.69963
  24151763.165     3721381.107 4   2915384.71321
  21395702.149   -17456630.115 6 -13459961.97322
  24261814.7984   11287680.98943    127642.60761
  23106806.5714   -1861655.88344  -1045655.34161
 93  5 21 17 11 14.9970000  0  7G18G19G27G28G 2G29G16
  21031642.3994    3576526.50346   2801473.06862
  20075646.3374   -5038358.66346  -3890328.57562
  20148892.4854  -13886211.64647 -10748102.52063
  24157240.1104    3750160.08444   2937809.88161
  21387704.696   -17498683.227 6 -13492730.61322
  24269618.032    11328656.657 3    159571.53521
  23104870.439    -1871805.147 4  -1053563.89321
 93  5 21 17 11 29.9970000  0  7G18G19G27G28G 2G29G16
  21037094.157     3605170.597 7   2823793.11922
  20074349.3214   -5045158.96946  -3895627.52462
  20142132.3844  -13921734.57147 -10775782.72063
  24162730.110     3779020.277 4   2960298.32221
  21379710.251   -17540667.023 6 -13525445.23322
  24277409.2284   11369650.28642    191514.50061
  23102962.9934   -1881832.39444  -1061377.33961
 93  5 21 17 11 44.9970000  0  7G18G19G27G28G 2G29G16
  21042561.774     3633900.129 7   2846179.73722
  20073070.1574   -5051911.50346  -3900889.23662
  20135382.9544  -13957207.65747 -10803424.08663
  24168236.8764    3807957.66143   2982846.93861
  21371736.064   -17582589.691 6 -13558112.23822
  24285226.274    11410659.690 3    223469.74321
  23101076.1964   -1891745.30044  -1069101.71261
 93  5 21 17 11 59.9970000  0  7G18G19G27G28G 2G29G16
  21048043.126     3662714.706 7   2868632.63222
  20071790.040    -5058619.317 6  -3906116.11222
  20128642.4394  -13992632.85547 -10831028.12563
  24173755.2354    3836970.91443   3005454.67261
  21363766.860   -17624453.308 6 -13590733.21222
  24293025.946    11451683.815 3    255436.45121
  23099208.485    -1901545.985 4  -1076738.57821
 93  5 21 17 12 14.9970000  0  7G18G19G27G28G 2G29G16
  21053541.478     3691614.786 7   2891152.15422
  20070522.9624   -5065281.55346  -3911307.47262
  20121910.0174  -14028012.81047 -10858596.92263
  24179294.446     3866059.621 3   3028121.19221
  21355812.1494  -17666254.42846 -13623305.49162
  24300831.149    11492723.838 3    287415.52621
  23097367.681    -1911230.655 4  -1084285.07321
 93  5 21 17 12 29.9970000  0  7G18G19G27G28G 2G29G16
  21059057.126     3720600.509 7   2913738.40622
  20069262.8214   -5071894.78546  -3916460.64462
  20115183.2284  -14063348.88747 -10886131.53563
  24184843.7594    3895222.34643   3050845.39161
  21347873.0954  -17707992.47746 -13655828.64062
  24308638.8454   11533780.50642    319407.61861
  23095544.493    -1920796.727 4
 93  5 21 17 12 44.9970000  0  7G18G19G27G28G 2G29G16
  21064589.8994    3749672.81047   2936392.11661
  20068019.6034   -5078457.56346  -3921574.50262
  20108468.6814  -14098639.63347 -10913630.81063
  24190403.970     3924459.276 3   3073627.41021
  21339943.517   -17749668.028 6 -13688303.07322
  24316475.431    11574851.115 2    351410.54721
  23093754.884    -1930241.082 4
 93  5 21 17 12 59.9970000  0  7G18G19G27G28G 2G29G16
  21070140.8604    3778836.85147   2959117.31461
  20066777.9074   -5084966.19146  -3926646.16962
  20101761.7514  -14133884.05247 -10941093.98363
  24195984.806     3953770.424 3   3096467.25521
  21332024.142   -17791280.395 6 -13720728.27822
  24324271.696    11615937.772 2    383425.97421
  23091978.228    -1939563.273 4
 93  5 21 17 13 14.9970000  0  7G18G19G27G28G 2G29G16
  21075707.595     3808088.518 7   2981910.79021
  20065550.1034   -5091422.17246  -3931676.80462
  20095063.2594  -14169084.02947 -10968522.53363
  24201569.3064    3983150.52742   3119360.83361
  21324115.235   -17832832.085 6 -13753106.20822
  24332112.134    11657038.897 1    415452.64121
  23090228.181    -1948766.595 4
 93  5 21 17 13 29.9970000  0  7G18G19G27G28G 2G29G16
  21081289.2434    3837427.25647   3004772.09961
  20064331.603    -5097821.968 6  -3936663.67222
  20088373.4074  -14204238.06847 -10995915.29063
  24207177.2514    4012600.83942   3142309.12361
  21316219.579   -17874315.931 6 -13785431.26522
  24339918.7744   11698158.68542    447493.86161
  23088497.7984   -1957846.98244
 93  5 21 17 13 44.9970000  0  6G18G19G27G28G 2G16
  21086886.4854    3866847.73446
  20063125.4544   -5104167.33546  -3941608.11262
  20081693.665   -14239351.745 7 -11023276.57823
  24212794.6894    4042119.28142
  21308333.8764  -17915735.18746 -13817706.00162
  23086786.8924   -1966805.44744
 93  5 21 17 13 59.9970000  0  6G18G19G27G28G 2G16
  21092501.204     3896354.748 6
  20061929.9154   -5110450.73746  -3946504.27962
  20075019.3764  -14274417.32947 -11050600.40463
  24218424.6894    4071713.96342
  21300471.3534  -17957082.86346 -13849924.96262
  23085115.9854   -1975632.64644        -0.04671
 93  5 21 17 14 14.9970000  0  6G18G19G27G28G 2G16
  21098133.1034    3925941.50746
  20060743.9784   -5116674.73246  -3951354.15362
  20068355.4154  -14309439.71347 -11077890.56363
  24224066.3064    4101380.06641
  21292614.103   -17998361.553 6 -13882090.16522
  23083457.243    -1984334.840 4     -6780.94821
 93  5 21 17 14 29.9970000  0  7G18G19G27G28G 2G29G16
  21103775.704     3955601.536 6
  20059569.7824   -5122843.63046  -3956161.08662
  20061699.6814  -14344424.71947 -11105151.60563
  24229726.2594    4131113.44342
  21284773.017   -18039578.117 6 -13914206.96122
  24371246.0644         -0.63052
  23081821.056    -1992920.252 4    -13470.89221
 93  5 21 17 14 44.9970000  0  7G18G19G27G28G 2G29G16
  21109435.4624    3985344.29547
  20058408.9934   -5128951.46646  -3960920.44762
  20055049.704   -14379363.339 7 -11132376.50323
  24235403.5954    4160922.68242
  21276942.0404  -18080729.30846 -13946272.80662
  24379090.7204      41174.74243
  23080207.8144   -2001384.19744    -20066.20861
 93  5 21 17 14 59.9970000  0  7G18G19G27G28G 2G29G16
  21115112.095     4015175.133 7
  20057258.6104   -5134997.44846  -3965631.59962
  20048406.6654  -14414253.07547 -11159563.29763
  24241091.7124    4190811.14842
  21269124.2044  -18121809.79346 -13978283.57262
  24386935.220       82360.296 2
  23078620.8604   -2009726.87644    -26567.01661
 93  5 21 17 15 14.9970000  0  7G18G19G27G28G 2G29G16
  21120809.2674    4045089.40947
  20056119.5324   -5140983.20446  -3970295.83562
  20041779.2124  -14449097.63447 -11186714.89863
  24246795.4704    4220773.74642
  21261322.220   -18162822.071 6 -14010241.17822
  24394766.6494     123554.00442
  23077055.8764   -2017953.52744    -32977.36861
 93  5 21 17 15 29.9970000  0  6G18G19G27G28G 2G16
  21126518.540     4075087.587 7
  20054991.0484   -5146904.17346  -3974909.58262
  20035158.517   -14483893.422 7 -11213828.47323
  24252510.4074    4250814.51842
  21253529.556   -18203761.162 6 -14042141.74922
  23075519.173    -2026059.959 4    -39294.11321
 93  5 21 17 15 44.9970000  0  6G18G19G27G28G 2G16
  21132239.024     4105173.394 7
  20053876.7044   -5152759.67546  -3979472.31862
  20028545.8844  -14518640.98247 -11240904.49263
  24258237.8994    4280933.93941
  21245755.0954  -18244627.15347 -14073985.37562
  23073998.610    -2034045.485 4    -45516.62021
 93  5 21 17 15 59.9970000  0  6G18G19G27G28G 2G16
  21137979.4704    4135340.87446
  20052774.2514   -5158555.12746  -3983988.24862
  20021942.7514  -14553343.47547 -11267945.39263
  24263987.8994    4311125.91441
  21237989.603   -18285428.362 7 -14105778.51222
  23072500.634    -2041917.165 4    -51650.38921
 93  5 21 17 16 14.9970000  0  5G18G19G27G 2G16
  21143738.392     4165586.604 6
  20051684.0874   -5164293.90446  -3988460.03162
  20015345.1574  -14588002.76947 -11294952.62063
  21230240.7824  -18326169.39347 -14137524.75862
  23071016.9854   -2049680.71544    -57699.94561
 93  5 21 17 16 29.9970000  0  5G18G19G27G 2G16
  21149511.204     4195920.972 7   3284117.55821
  20050600.5244   -5169970.04846  -3992883.00963
  20008762.110   -14622611.723 7 -11321920.62223
  21222496.7824  -18366843.37347 -14169218.75662
  23069564.251    -2057326.677 4    -63657.81921
 93  5 21 17 16 44.9970000  0  5G18G19G27G 2G16
  21155299.821     4226346.109 6   3307825.44022
  20049536.0094   -5175584.18846  -3997257.66662
  20002186.4464  -14657165.53847 -11348845.67363
  21214770.5564  -18407449.29147 -14200859.72262
  23068134.2434   -2064849.13644    -69519.47261
 93  5 21 17 16 59.9970000  0  5G18G19G27G 2G16
  21161101.1424    4256851.08046   3331595.51061
  20048475.2434   -5181146.78546  -4001592.16662
  19995620.6424  -14691671.70447 -11375733.58563
  21207051.8844  -18447994.13947 -14232453.09862
  23066727.2594   -2072256.74245    -75291.62261
 93  5 21 17 17 14.9970000  0  5G18G19G27G 2G16
  21166921.4624    4287434.59046   3355426.79362
  20047427.9314   -5186654.82546  -4005884.14963
  19989063.0404  -14726127.67347 -11402582.38363
  21199347.728   -18488476.559 6 -14263997.82922
  23065337.5014   -2079547.32544    -80972.64061
 93  5 21 17 17 29.9970000  0  5G18G19G27G 2G16
  21172758.071     4318099.508 6   3379321.51221
  20046391.7594   -5192105.74646  -4010131.62463
  19982516.0794  -14760527.53347 -11429387.46463
  21191658.6264  -18528894.33047 -14295492.18662
  23063971.540    -2086716.081 3    -86558.65821
 93  5 21 17 17 44.9970000  0  5G18G19G27G 2G16
  21178608.6344    4348844.37746   3403278.53161
  20045364.6734   -5197502.68246  -4014337.02463
  19975980.8454  -14794871.14647 -11456148.71563
  21183981.181   -18569250.083 7 -14326938.21622
  23062634.501    -2093762.731 4    -92049.55021
 93  5 21 17 17 59.9970000  0  5G18G19G27G 2G16
  21184476.189     4379664.818 7   3427294.43021
  20044344.3534   -5202849.46146  -4018503.34563
  19969453.9154  -14829160.72347 -11482867.85963
  21176313.1814  -18609548.04847 -14358339.22262
  23061312.946    -2100689.516 4    -97447.06121
 93  5 21 17 18 14.9970000  0  5G18G19G27G 2G16
  21190356.0644    4410563.41347   3451371.22862
  20043340.5404   -5208141.14346  -4022626.73263
  19962940.1424  -14863391.95847 -11509541.55063
  21168656.368   -18649782.306 7 -14389690.57622
  23060016.649    -2107491.727 3   -102747.51121
 93  5 21 17 18 29.9970000  0  5G18G19G27G 2G16
  21196247.2284    4441536.16146   3475505.79661
  20042340.1104   -5213385.12346  -4026712.95662
  19956435.3604  -14897572.34447 -11536175.62363
  21161012.048   -18689955.208 7 -14420994.12422
  23058752.173    -2114172.110 4   -107953.03021
 93  5 21 17 18 44.9970000  0  5G18G19G27G 2G16
  21202155.470     4472583.614 6   3499698.60221
  20041354.2514   -5218578.39546  -4030759.66662
  19949945.235   -14931699.168 7 -11562767.93623
  21153378.7824  -18730062.41347 -14452246.48362
  23057500.4074   -2120727.16044   -113060.86561
 93  5 21 17 18 59.9970000  0  5G18G19G27G 2G16
  21208077.556     4503705.592 6   3523949.46821
  20040374.134    -5223717.858 6  -4034764.45122
  19943459.1034  -14965771.79347 -11589318.03163
  21145760.454   -18770102.120 7 -14483446.23922
  23056278.1964   -2127158.99244   -118072.69361
 93  5 21 17 19 14.9970000  0  5G18G19G27G 2G16
  21214016.5954    4534902.33646   3548258.58761
  20039407.1184   -5228800.53346  -4038724.98562
  19936984.399   -14999792.344 7 -11615827.53923
  21138152.423   -18810075.516 7 -14514594.31922
  23055075.118    -2133469.501 4   -122990.00721
 93  5 21 17 19 29.9970000  0  5G18G19G27G 2G16
  21219966.978     4566175.801 6   3572627.50521
  20038450.8454   -5233824.38646  -4042639.68062
  19930519.7514  -15033760.84547 -11642296.49563
  21130559.439   -18849983.334 7 -14545691.30822
  23053903.0404   -2139657.92644   -127812.18461
 93  5 21 17 19 44.9970000  0  5G18G19G27G 2G16
  21225932.001     4597524.464 6   3597055.01321
  20037505.0874   -5238790.25846  -4046509.20262
  19924064.9854  -15067680.66547 -11668727.52363
  21122972.032   -18889826.237 7 -14576737.70922
  23052746.532    -2145726.029 4   -132540.60021
 93  5 21 17 19 59.9970000  0  5G18G19G27G 2G16
  21231909.9784    4628939.38946   3621534.13861
  20036570.1894   -5243703.26246  -4050337.52662
  19917617.6104  -15101559.68447 -11695126.75163
  21115406.235   -18929609.554 7 -14607737.68422
  23051612.8844   -2151681.16844   -137180.97861
 93  5 21 17 20 14.9970000  0  5G18G19G27G 2G16
  21237901.485     4660426.736 6   3646069.71321
  20035649.9314   -5248555.73246  -4054118.67062
  19911179.6894  -15135392.77847 -11721490.20563
  21107847.9154  -18969325.04447 -14638684.80562
  23050502.524    -2157519.543 4   -141730.37521
 93  5 21 17 20 29.9970000  0  5G18G19G27G 2G16
  21243906.985     4691986.236 6   3670661.50321
  20034732.5564   -5253349.18646  -4057853.83262
  19904753.0404  -15169180.40347 -11747818.22163
  21100304.689   -19008973.650 7 -14669579.81822
  23049408.517    -2163242.665 3   -146189.95221
 93  5 21 17 20 44.9970000  0  5G18G19G27G 2G16
  21249922.9544    4723618.17946   3695309.74161
  20033836.548    -5258083.559 6  -4061542.96622
  19898331.9074  -15202920.33847 -11774109.08163
  21092770.165   -19048558.464 7 -14700425.11422
  23048342.8764   -2168853.11144   -150561.75361
 93  5 21 17 20 59.9970000  0  5G18G19G27G 2G16
  21255958.7674    4755323.87046   3720015.44561
  20032947.3454   -5262756.33746  -4065184.10162
  19891919.1814  -15236610.33847 -11800361.02763
  21085251.642   -19088077.256 7 -14731218.95622
  23047298.915    -2174353.282 4   -154847.62121
 93  5 21 17 21 14.9970000  0  5G18G19G27G 2G16
  21262008.0954    4787102.30346   3744777.82961
  20032067.5484   -5267371.16546  -4068780.07462
  19885513.118   -15270252.659 7 -11826575.80723
  21077744.4314  -19127532.33047 -14761963.16062
  23046271.696    -2179745.682 4   -159049.51321
 93  5 21 17 21 29.9970000  0  5G18G19G27G 2G16
  21268066.103     4818956.782 6   3769599.47821
  20031198.6344   -5271925.63746  -4072329.02262
  19879126.1964  -15303842.96347 -11852750.06963
  21070248.603   -19166919.557 7 -14792654.49422
  23045269.9464   -2185026.91345   -163164.73661
 93  5 21 17 21 44.9970000  0  5G18G19G27G 2G16
  21274145.3684    4850887.56646   3794480.58261
  20030346.4704   -5276421.79446  -4075832.52262
  19872744.6734  -15337379.69647 -11878882.58763
  21062762.876   -19206235.968 7 -14823290.63722
  23044284.7124   -2190195.23745   -167192.05161
 93  5 21 17 21 59.9970000  0  5G18G19G27G 2G16
  21280235.5324    4882890.57846   3819417.96861
  20029499.1104   -5280864.14446  -4079294.10062
  19866371.7514  -15370866.12847 -11904975.90863
  21055294.2044  -19245485.22147 -14853874.46462
  23043316.564    -2195253.909 4   -171133.87421
 93  5 21 17 22 14.9970000  0  5G18G19G27G 2G16
  21286338.853     4914971.764 6   3844416.26421
  20028666.2594   -5285249.67946  -4082711.40962
  19860010.3844  -15404298.15647 -11931026.83363
  21047843.392   -19284664.224 7 -14884403.55122
  23042380.1424   -2200199.61645   -174987.68361
 93  5 21 17 22 29.9970000  0  5G18G19G27G 2G16
  21292458.462     4947130.275 6   3869474.82121
  20027841.3144   -5289580.85446  -4086086.34762
  19853658.0484  -15437679.70547 -11957038.42763
  21040396.7594  -19323776.88347 -14914880.93662
  23041454.9234   -2205035.44344   -178755.90861
 93  5 21 17 22 44.9970000  0  5G18G19G27G 2G16
  21298590.3294    4979368.92246   3894595.82261
  20027028.6184   -5293855.50946  -4089417.25462
  19847315.4314  -15471006.93147 -11983007.69263
  21032967.134   -19362822.887 7 -14945306.37522
  23040558.3604   -2209760.45444   -182437.68061
 93  5 21 17 22 59.9970000  0  5G18G19G27G 2G16
  21304743.759     5011685.387 6   3919777.45521
  20026223.1034   -5298074.85646  -4092705.06462
  19840983.0714  -15504282.10647 -12008936.39663
  21025550.579   -19401801.797 7 -14975679.53822
  23039675.962    -2214377.259 4   -186035.22921
 93  5 21 17 23 14.9970000  0  5G18G19G27G 2G16
  21310909.439     5044081.939 6   3945021.50021
  20025433.2124   -5302233.98846  -4095945.94862
  19834661.8454  -15537502.83347 -12034822.67663
  21018147.267   -19440709.529 7 -15005997.22922
  23038826.8144   -2218879.19544   -189543.25761
 93  5 21 17 23 29.9970000  0  5G18G19G27G 2G16
  21317087.8214    5076553.94046   3970324.32761
  20024654.5644   -5306335.26946  -4099141.76262
  19828351.3764  -15570671.74747 -12060668.58763
  21010751.720   -19479553.983 7 -15036265.61422
  23037987.923    -2223266.371 4   -192961.85321
 93  5 21 17 23 44.9970000  0  5G18G19G27G 2G16
  21323281.6034    5109101.54846   3995686.07361
  20023883.1034   -5310376.92146  -4102291.10362
  19822048.1424  -15603788.55447 -12086473.88163
  21003375.7434  -19518335.66747 -15066485.10162
  23037178.3684   -2227536.34744   -196289.09661
 93  5 21 17 23 59.9970000  0  5G18G19G27G 2G16
  21329490.9854    5141723.11146   4021105.44161
  20023124.7824   -5314358.08446  -4105393.30062
  19815756.6104  -15636854.43647 -12112239.49763
  20996008.329   -19557056.302 7 -15096657.00922
  23036383.024    -2231689.614 4   -199525.42021
 93  5 21 17 24 14.9970000  0  5G18G19G27G 2G16
  21335708.9234    5174410.67646   4046576.24761
  20022378.8294   -5318283.49246
  19809474.0324  -15669875.07747 -12137969.86963
  20988649.689   -19595721.144 7 -15126785.44122
  23035618.7984   -2235732.30544
 93  5 21 17 24 29.9970000  0  5G18G19G27G 2G16
  21341946.907     5207168.820 6   4072102.04621
  20021644.5714   -5322145.66946
  19803197.564   -15702844.269 7 -12163660.13423
  20981306.5564  -19634322.75047 -15156864.60362
  23034873.5714   -2239657.16744
 93  5 21 17 24 44.9970000  0  5G18G19G27G 2G16
  21348192.259     5239994.827 6   4097680.73021
  20020920.0094   -5325948.71846
  19796934.1264  -15735761.18147 -12189309.66963
  20973970.204   -19672862.800 7 -15186895.79022
  23034149.4784   -2243465.18444
 93  5 21 17 24 59.9970000  0  5G18G19G27G 2G16
  21354448.2594    5272889.24646   4123312.70561
  20020205.962    -5329693.597 6
  19790682.0094  -15768623.30147 -12214916.51663
  20966645.345   -19711338.568 7 -15216876.89122
  23033435.8374   -2247151.04943
 93  5 21 17 25 14.9970000  0  5G18G19G27G 2G16
  21360721.8144    5305851.20346   4148997.31161
  20019508.1734   -5333381.18946  -4120216.53662
  19784434.5484  -15801433.64247 -12240483.01263
  20959337.6264  -19749751.04147 -15246808.67962
  23032767.7354   -2250714.27844
 93  5 21 17 25 29.9970000  0  5G18G19G27G 2G16
  21367007.9704    5338877.63446   4174732.16461
  20018815.5644   -5337016.74346  -4123049.44562
  19778204.517   -15834195.939 7 -12266012.05923
  20952039.5874  -19788106.75247 -15276696.23862
  23032109.493    -2254160.607 4
 93  5 21 17 25 44.9970000  0  5G18G19G27G 2G16
  21373301.7904    5371972.46646   4200520.30561
  20018135.228    -5340598.340 6  -4125840.31022
  19771978.7744  -15866905.51747 -12291500.03863
  20944753.837   -19826397.821 7 -15306533.41422
  23031467.196    -2257489.961 4        -0.21531
 93  5 21 17 25 59.9970000  0  5G18G19G27G 2G16
  21379614.2284    5405138.17746   4226363.68261
  20017461.5174   -5344123.98046  -4128587.56362
  19765764.2044  -15899559.55847 -12316944.74163
  20937483.8844  -19864617.72047 -15336315.14262
  23030863.423    -2260702.223 4     -2503.29421
 93  5 21 17 26 14.9970000  0  5G18G19G27G 2G16
  21385937.3924    5438370.60546   4252259.04561
  20016801.6654   -5347597.06046  -4131293.87162
  19759562.7904  -15932159.58647 -12342347.35163
  20930217.5014  -19902769.11247 -15366043.48462
  23030277.5174   -2263804.75144     -4920.86061
 93  5 21 17 26 29.9970000  0  5G18G19G27G 2G16
  21392275.431     5471672.399 6   4278208.46521
  20016151.0874   -5351016.01846  -4133958.00162
  19753367.1184  -15964704.49047 -12367707.00963
  20922972.228   -19940851.888 7 -15395718.35922
  23029705.251    -2266795.521 4     -7251.35521
 93  5 21 17 26 44.9970000  0  5G18G19G27G 2G16
  21398629.087     5505053.259 6   4304219.50821
  20015511.3844   -5354371.30846  -4136572.51962
  19747188.4934  -15997184.33347 -12393015.97463
  20915739.243   -19978859.241 7 -15425334.46822
  23029156.829    -2269670.419 4     -9491.58321
 93  5 21 17 26 59.9970000  0  5G18G19G27G 2G16
  21404994.837     5538510.877 6   4330290.35021
  20014884.5954   -5357663.18746  -4139137.62062
  19741018.3374  -16029602.59347 -12418276.94963
  20908521.4394  -20016793.90947 -15454893.94362
  23028634.5404   -2272433.79844    -11644.86661
 93  5 21 17 27 14.9970000  0  5G18G19G27G 2G16
  21411375.6034    5572042.29946   4356418.69761
  20014272.6814   -5360891.02946  -4141652.83162
  19734858.8534  -16061963.37847 -12443493.14263
  20901317.5954  -20054659.27947 -15484399.41462
  23028125.7124   -2275091.52945    -13715.86261
 93  5 21 17 27 29.9970000  0  5G18G19G27G 2G16
  21417767.978     5605644.765 6   4382602.40821
  20013672.8764   -5364053.98446  -4144117.47162
  19728714.0014  -16094268.14147 -12468665.68363
  20894122.2824  -20092458.64547 -15513853.45162
  23027640.5094   -2277649.66045    -15709.22161
 93  5 21 17 27 44.9970000  0  5G18G19G27G 2G16
  21424178.5954    5639317.15546   4408840.60561
  20013079.5794   -5367150.45246  -4146530.30662
  19722575.6264  -16126515.68347 -12493793.62763
  20886942.962   -20130187.361 7 -15543252.43022
  23027176.149    -2280105.471 5    -17622.83321
 93  5 21 17 27 59.9970000  0  5G18G19G27G 2G16
  21430600.3994    5673058.20446   4435132.29361
  20012503.8684   -5370177.79446  -4148889.28762
  19716452.1814  -16158704.22447 -12518875.59863
  20879775.048   -20167845.846 7 -15572596.68822
  23026725.618    -2282455.459 4    -19454.02321
 93  5 21 17 28 14.9970000  0  5G18G19G27G 2G16
  21437035.7824    5706868.87846   4461478.24261
  20011941.1344   -5373134.34846  -4151193.09762
  19710335.2674  -16190830.88347 -12543909.34563
  20872626.259   -20205436.627 7 -15601888.18822
  23026299.1424   -2284694.68645    -21198.88961
 93  5 21 17 28 29.9970000  0  5G18G19G27G 2G16
  21443479.2904    5740745.02046   4487875.20861
  20011390.9074   -5376026.99846  -4153447.12662
  19704235.1894  -16222902.10847 -12568899.90163
  20865481.337   -20242968.872 7 -15631134.07022
  23025894.0174   -2286827.86145    -22861.10261
 93  5 21 17 28 44.9970000  0  5G18G19G27G 2G16
  21449937.8764    5774683.57146   4514320.79961
  20010850.2984   -5378861.00546  -4155655.43962
  19698141.9784  -16254921.46747 -12593850.04363
  20858349.485   -20280445.884 7 -15660336.92622
  23025513.8374   -2288856.58245    -24441.96761
 93  5 21 17 28 59.9970000  0  5G18G19G27G 2G16
  21456408.4234    5808690.44146   4540819.62761
  20010322.774    -5381631.344 6  -4157814.15922
  19692059.2594  -16286883.15947 -12618755.24963
  20851229.5954  -20317859.88147 -15689490.68462
  23025143.157    -2290773.023 5    -25935.33821
 93  5 21 17 29 14.9970000  0  5G18G19G27G 2G16
  21462895.7044    5842764.17546   4567370.54361
  20009809.8294   -5384342.16446  -4159926.48962
  19685987.095   -16318788.306 7 -12643616.38923
  20844122.2514  -20355211.98847 -15718596.22162
  23024806.3534   -2292573.05945    -27337.96161
 93  5 21 17 29 29.9970000  0  5G18G19G27G 2G16
  21469391.4314    5876902.03946   4593971.44561
  20009302.493    -5386996.854 6  -4161995.09122
  19679926.3764  -16350634.93347 -12668431.93763
  20837026.6104  -20392502.61347 -15747653.84862
  23024481.564    -2294256.906 5    -28650.06121
 93  5 21 17 29 44.9970000  0  5G18G19G27G 2G16
  21475895.720     5911093.113 6   4620613.81521
  20008806.8994   -5389606.78346  -4164028.80362
  19673876.8294  -16382431.68547 -12693208.62763
  20829943.532   -20429738.893 7 -15776669.11322
  23024180.126    -2295831.469 5    -29877.02021
 93  5 21 17 29 59.9970000  0  5G18G19G27G 2G16
  21482413.9934    5945342.54746   4647301.65261
  20008319.7354   -5392168.66846  -4166025.08962
  19667837.8144  -16414171.05247 -12717940.58163
  20822864.2514  -20466918.15647 -15805639.96862
  23023905.548    -2297291.716 5    -31014.90521
 93  5 21 17 30 14.9970000  0  5G18G19G27G 2G16
  21488943.1734    5979650.58146   4674035.14661
  20007840.5174   -5394683.88146  -4167984.99862
  19661809.439   -16445853.404 7 -12742628.11523
  20815798.9314  -20504044.93347 -15834569.91862
  23023650.376    -2298642.463 5    -32067.46921
 93  5 21 17 30 29.9970000  0  5G18G19G27G 2G16
  21495483.5094    6014022.52146   4700818.44661
  20007368.712    -5397150.148 6  -4169906.78122
  19655788.3534  -16477478.28247 -12767270.87563
  20808748.9234  -20541114.35147 -15863455.17162
  23023407.9234   -2299886.15044    -33036.57961
 93  5 21 17 30 44.9970000  0  5G18G19G27G 2G16
  21502038.509     6048461.193 6   4727653.73421
  20006912.548    -5399561.341 6  -4171785.64322
  19649785.3844  -16509042.78447 -12791866.58863
  20801702.337   -20578120.680 7 -15892291.25322
  23023192.8994   -2301022.03444    -33921.71661
 93  5 21 17 30 59.9970000  0  5G18G19G27G 2G16
  21508602.2984    6082956.38646   4754533.05761
  20006462.4784   -5401922.14546  -4173625.23462
  19643786.1654  -16540554.25547 -12816420.96863
  20794673.118   -20615068.043 7 -15921081.39322
  23022996.501    -2302058.403 4    -34729.27821
 93  5 21 17 31 14.9970000  0  5G18G19G27G 2G16
  21515176.814     6117510.288 6   4781458.15421
  20006024.2744   -5404227.25746  -4175421.43662
  19637802.2514  -16572008.59247 -12840930.83263
  20787654.3294  -20651953.05247 -15949822.95162
  23022821.993    -2302992.540 5    -35457.18521
 93  5 21 17 31 29.9970000  0  5G18G19G27G 2G16
  21521765.1574    6152126.18346   4808431.54361
  20005599.337    -5406471.254 6  -4177170.01622
  19631827.2744  -16603401.27247 -12865392.65863
  20780648.9854  -20688770.99047 -15978512.23962
  23022660.4464   -2303825.76345    -36106.49161
 93  5 21 17 31 44.9960000  0  5G18G19G27G 2G16
  21528358.762     6186805.125 6   4835454.05721
  20005183.2314   -5408649.63746  -4178867.46162
  19625868.5904  -16634729.88947 -12889804.55863
  20773653.832   -20725518.505 7 -16007146.65122
  23022523.770    -2304559.933 5    -36678.60821
 93  5 21 17 31 59.9960000  0  5G18G19G27G 2G16
  21534973.434     6221550.805 6   4862528.57021
  20004780.2704   -5410762.86746  -4180514.14062
  19619914.5514  -16666004.29747 -12914174.23063
  20766672.9024  -20762204.09647 -16035732.81962
  23022403.434    -2305197.298 5    -37175.25921
 93  5 21 17 32 14.9960000  0  5G18G19G27G 2G16
  21541602.8484    6256364.21746   4889655.87361
  20004392.0904   -5412803.92146  -4182104.58062
  19613975.5204  -16697221.25147 -12938499.12663
  20759703.5204  -20798820.95347 -16064265.43162
  23022296.5744   -2305735.48944    -37594.64161
 93  5 21 17 32 29.9960000  0  5G18G19G27G 2G16
  21548239.4814    6291242.28846   4916833.56261
  20004014.7854   -5414777.45946  -4183642.41162
  19608042.7704  -16728386.10947 -12962783.42063
  20752753.4734  -20835366.97247 -16092742.84962
  23022215.676    -2306177.212 5    -37938.86721
 93  5 21 17 32 44.9960000  0  5G18G19G27G 2G16
  21554889.770     6326190.489 6   4944065.87921
  20003658.2314   -5416675.24546  -4185121.20862
  19602126.2934  -16759490.73647 -12987020.79363
  20745814.2934  -20871832.25547 -16121157.35162
  23022150.4024   -2306510.19945    -38198.36761
 93  5 21 17 32 59.9960000  0  5G18G19G27G 2G16
  21561547.8404    6361198.26846   4971344.63861
  20003305.1454   -5418505.14546  -4186547.11262
  19596214.6064  -16790540.83147 -13011215.66163
  20738888.1374  -20908224.79547 -16149515.16362
  23022105.2384   -2306737.76845    -38375.73161
 93  5 21 17 33 14.9960000  0  5G18G19G27G 2G16
  21568219.2154    6396266.20446   4998670.25661
  20002973.3564   -5420270.29346  -4187922.55362
  19590319.7544  -16821535.92547 -13035367.67963
  20731971.7384  -20944545.51247 -16177817.00962
  23022090.7704   -2306858.93845
 93  5 21 17 33 29.9960000  0  5G18G19G27G 2G16
  21574903.527     6431395.488 6   5026043.68821
  20002652.1914   -5421974.05846  -4189250.16462
  19584430.4494  -16852476.58747 -13059477.27663
  20725079.3244  -20980797.69647 -16206065.46662
  23022081.2154   -2306875.48545
 93  5 21 17 33 44.9960000  0  5G18G19G27G 2G16
  21581604.1844    6466594.80146   5053471.70061
  20002337.3014   -5423608.19846  -4190523.52062
  19578554.5204  -16883353.56847 -13083537.26363
  20718191.965   -21016973.703 7 -16234254.54322
  23022099.1844   -2306778.70545
 93  5 21 17 33 59.9960000  0  5G18G19G27G 2G16
  21588311.4734    6501859.77646   5080950.86961
  20002037.7774   -5425176.96246  -4191745.94262
  19572691.7854  -16914168.41947 -13107548.82663
  20711324.379   -21053077.559 7 -16262387.40622
  23022140.6994   -2306566.75345
 93  5 21 17 34 14.9960000  0  5G18G19G27G 2G16
  21595039.645     6537182.212 6   5108474.79921
  20001752.8244   -5426688.71546  -4192923.93462
  19566838.6684  -16944925.02147 -13131515.00463
  20704466.004   -21089115.667 7 -16290469.04322
  23022202.7464   -2306246.27245
 93  5 21 17 34 29.9960000  0  5G18G19G27G 2G16
  21601770.926     6572565.392 6   5136046.05621
  20001472.7384   -5428143.28546  -4194057.37662
  19560998.465   -16975617.375 7 -13155431.10923
  20697621.7624  -21125085.51047 -16318497.47662
  23022282.512    -2305816.992 5    -37658.38421
 93  5 21 17 34 44.9960000  0  5G18G19G27G 2G16
  21608512.731     6608009.105 6   5163664.48021
  20001210.0124   -5429541.27746  -4195146.72162
  19555169.5434  -17006244.07047 -13179296.06463
  20690787.4654  -21160991.95947 -16346476.51462
  23022386.348    -2305279.090 5    -37239.23221
 93  5 21 17 34 59.9960000  0  5G18G19G27G 2G16
  21615271.207     6643517.590 6   5191333.39621
  20000953.7544   -5430874.07346  -4196185.26862
  19549355.7234  -17036800.18047 -13203106.01163
  20683966.1604  -21196835.80347 -16374406.77262
  23022505.356    -2304630.867 5    -36734.16321
 93  5 21 17 35 14.9960000  0  5G18G19G27G 2G16
  21622036.691     6679091.415 6   5219053.21521
  20000713.2074   -5432143.25346  -4197174.24962
  19543551.4654  -17067287.25447 -13226862.16963
  20677159.9104  -21232619.67047 -16402290.30162
  23022649.090    -2303876.548 5    -36146.40921
 93  5 21 17 35 29.9960000  0  5G18G19G27G 2G16
  21628821.0354    6714727.51346   5246821.55661
  20000484.2544   -5433349.69546  -4198114.33862
  19537766.3794  -17097710.26147 -13250568.40963
  20670357.7544  -21268347.74047 -16430130.34562
  23022815.8324   -2303020.37445    -35479.25061
 93  5 21 17 35 44.9960000  0  5G18G19G27G 2G16
  21635615.8564    6750426.90346   5274639.23461
  20000265.7544   -5434489.80346  -4199002.73962
  19531987.3164  -17128066.91947 -13274222.94663
  20663574.8794  -21304016.35447 -16457924.06562
  23022997.1454   -2302059.94245    -34730.88361
 93  5 21 17 35 59.9960000  0  5G18G19G27G 2G16
  21642420.520     6786186.576 6   5302503.87221
  20000063.0274   -5435561.21346  -4199837.60562
  19526223.152   -17158358.140 7 -13297826.48023
  20656794.9654  -21339624.14947 -16485670.39962
  23023198.934    -2300992.358 5    -33899.04821
 93  5 21 17 36 14.9960000  0  5G18G19G27G 2G16
  21649239.816     6822000.928 6   5330411.11421
  19999870.9184   -5436567.21046  -4200621.50562
  19520471.0044  -17188589.53747 -13321383.41163
  20650029.2234  -21375173.18247 -16513370.93562
  23023424.379    -2299821.313 5    -32986.55621
 93  5 21 17 36 29.9960000  0  5G18G19G27G 2G16
  21656065.1844    6857874.43246   5358364.46061
  19999691.9884   -5437504.73346  -4201352.04962
  19514729.7854  -17218757.94447 -13344891.25163
  20643276.856   -21410657.869 7 -16541021.32122
  23023662.949    -2298547.402 5    -31993.94421
 93  5 21 17 36 44.9960000  0  5G18G19G27G 2G16
  21662902.426     6893807.835 6   5386364.47921
  19999525.7854   -5438372.38446  -4202028.14262
  19509001.6764  -17248862.93747 -13368349.68263
  20636536.7704  -21446075.52747 -16568619.48562
  23023933.504    -2297168.393 5    -30919.40321
 93  5 21 17 36 59.9960000  0  5G18G19G27G 2G16
  21669753.941     6929798.279 6   5414408.95421
  19999374.6524   -5439170.65646  -4202650.17762
  19503283.0744  -17278907.62847 -13391761.12763
  20629810.7854  -21481427.40947 -16596166.40562
  23024216.0984   -2295683.11145    -29762.06061
 93  5 21 17 37 14.9960000  0  5G18G19G27G 2G16
  21676605.582     6965841.839 6   5442494.81721
  19999236.2624   -5439907.41546  -4203224.28362
  19497579.2704  -17308895.90847 -13415128.60563
  20623093.5044  -21516714.25247 -16623662.64062
  23024512.832    -2294095.028 5    -28524.60621
 93  5 21 17 37 29.9960000  0  5G18G19G27G 2G16
  21683475.2234    7001937.79946   5470621.48461
  19999103.5664   -5440585.51446  -4203752.68562
  19491879.8874  -17338826.06247 -13438450.79863
  20616394.6294  -21551933.16947 -16651105.94462
  23024834.801    -2292402.936 5    -27206.12521
 93  5 21 17 37 44.9960000  0  5G18G19G27G 2G16
  21690356.8564    7038086.60746   5498789.31961
  19998987.645    -5441206.057 6  -4204236.23422
  19486197.8164  -17368695.38347 -13461725.58663
  20609703.6064  -21587081.73847 -16678494.43462
  23025174.621    -2290608.114 5    -25807.56721
 93  5 21 17 37 59.9960000  0  5G18G19G27G 2G16
  21697248.1764    7074287.02246   5526997.41861
  19998881.1064   -5441772.71246  -4204677.78962
  19480525.3564  -17398503.74847 -13484952.87563
  20603031.8564  -21622164.32747 -16705831.51062
  23025534.0354   -2288714.09245    -24331.73961
 93  5 21 17 38 14.9960000  0  5G18G19G27G 2G16
  21704145.645     7110544.200 6   5555249.71621
  19998783.551    -5442283.861 6  -4205076.09622
  19474864.2074  -17428247.95347 -13508130.17763
  20596366.1604  -21657178.93447 -16733115.60562
  23025914.441    -2286719.971 5    -22777.91721
 93  5 21 17 38 29.9960000  0  5G18G19G27G 2G16
  21711053.2074    7146856.41746   5583544.93161
  19998696.4414   -5442744.17246  -4205434.78562
  19469217.0204  -17457931.00747 -13531259.82563
  20589715.1214  -21692131.20847 -16760351.13662
  23026312.496    -2284634.412 5    -21152.82121
 93  5 21 17 38 44.9960000  0  5G18G19G27G 2G16
  21717977.809     7183229.812 6   5611887.78621
  19998617.832    -5443147.423 6  -4205749.01922
  19463579.7934  -17487546.88047 -13554337.12663
  20583076.0744  -21727018.09447 -16787535.71562
  23026729.395    -2282451.714 5    -19452.03421
 93  5 21 17 38 59.9960000  0  5G18G19G27G 2G16
  21724909.910     7219662.113 6   5640276.54521
  19998555.5664   -5443492.44946  -4206017.87762
  19457959.3954  -17517097.38947 -13577363.48763
  20576447.637   -21761841.591 7 -16814670.89522
  23027162.2154   -2280170.93745    -17674.84561
 93  5 21 17 39 14.9960000  0  5G18G19G27G 2G16
  21731854.129     7256153.192 6   5668711.11321
  19998499.496    -5443777.684 6  -4206240.14522
  19452345.8244  -17546581.21647 -13600337.88963
  20569836.6684  -21796600.86147 -16841756.03662
  23027618.5664   -2277793.60745    -15822.38161
 93  5 21 17 39 29.9960000  0  5G18G19G27G 2G16
  21738811.707     7292701.230 6   5697190.06021
  19998456.598    -5444004.515 6  -4206416.91122
  19446750.9344  -17575997.80747 -13623259.90663
  20563230.4654  -21831295.38747 -16868790.71862
  23028085.184    -2275322.398 5    -13896.80521
 93  5 21 17 39 44.9960000  0  5G18G19G27G 2G16
  21745775.7314    7329309.70946   5725716.11261
  19998425.0204   -5444168.03846
  19441165.3564  -17605344.34747 -13646127.34063
  20556643.0044  -21865922.04447 -16895772.52362
  23028568.8954   -2272755.12145    -11896.34261
 93  5 21 17 39 59.9960000  0  5G18G19G27G 2G16
  21752754.254     7365978.863 6   5754289.43021
  19998408.4884   -5444267.83646
  19435594.3634  -17634621.57147 -13668940.75763
  20550066.3164  -21900483.75447 -16922703.71962
  23029081.652    -2270090.930 5     -9820.36521
 93  5 21 17 40 14.9960000  0  5G18G19G27G 2G16
  21759744.2624    7402707.50246   5782909.10461
  19998399.6134   -5444301.18246
  19430036.3404  -17663831.07847 -13691701.41263
  20543503.3954  -21934979.31147 -16949583.36262
  23029607.152    -2267327.272 5     -7666.91621
 93  5 21 17 40 29.9960000  0  5G18G19G27G 2G16
  21766746.488     7439493.266 6   5811573.29021
  19998406.2624   -5444265.99646
  19424485.9734  -17692974.84547 -13714410.83663
  20536952.8014  -21969406.55847 -16976409.78562
  23030153.2544   -2264464.44545     -5436.16161
 93  5 21 17 40 44.9960000  0  5G18G19G27G 2G16
  21773752.832     7476330.914 6   5840277.91221
  19998426.2464   -5444166.05746
  19418954.8794  -17722057.39847 -13737072.56363
  20530409.9344  -22003770.31547 -17003186.72762
  23030714.816    -2261505.562 5     -3130.55521
 93  5 21 17 40 59.9960000  0  5G18G19G27G 2G16
  21780771.887     7513216.163 6   5869019.62721
  19998453.7544   -5444005.62746
  19413429.8244  -17751081.57447 -13759688.80063
  20523884.981   -22038072.279 7 -17029915.51922
  23031299.5204   -2258450.48145      -750.00461
 93  5 21 17 41 14.9960000  0  5G18G19G27G 2G16
  21787800.0904    7550147.89246   5897797.55061
  19998496.5044   -5443784.82746
  19407920.2624  -17780047.16047 -13782259.37263
  20517364.246   -22072313.344 7 -17056596.85822
  23031897.8634   -2255300.27145      1704.69961
 93  5 21 17 41 29.9960000  0  5G18G19G27G 2G16
  21794836.5514    7587125.97846   5926611.60961
  19998550.7624   -5443505.96346  -4206028.49962
  19402418.5904  -17808957.06247 -13804786.56463
  20510863.6374  -22106497.97747 -17083234.22862
  23032512.0354   -2252057.01945      4231.87161
 93  5 21 17 41 44.9960000  0  5G18G19G27G 2G16
  21801888.1844    7624158.21946   5955467.86861
  19998618.2464   -5443162.24946  -4205760.67662
  19396927.4184  -17837806.68047 -13827266.77863
  20504370.566   -22140621.643 7 -17109824.08822
  23033149.4344   -2248711.31345      6838.87361
 93  5 21 17 41 59.9960000  0  5G18G19G27G 2G16
  21808940.246     7661242.748 6   5984364.86021
  19998693.2464   -5442754.57846  -4205443.01962
  19391449.0204  -17866599.08247 -13849702.41163
  20497886.3324  -22174691.29147 -17136371.85662
  23033801.3094   -2245266.64945      9523.02661
 93  5 21 17 42 14.9960000  0  5G18G19G27G 2G16
  21816003.387     7698374.716 6   6013298.81621
  19998784.481    -5442283.375 6  -4205075.85622
  19385978.9184  -17895337.54647 -13872096.01563
  20491416.613   -22208710.047 7 -17162879.96222
  23034474.996    -2241725.663 5     12282.21721
 93  5 21 17 42 29.9960000  0  5G18G19G27G 2G16
  21823082.199     7735556.163 6   6042271.33621
  19998888.035    -5441743.618 6  -4204655.28722
  19380523.8324  -17924018.85247 -13894445.07763
  20484949.6294  -22242673.68047 -17189345.12462
  23035167.8244   -2238087.56945     15117.07061
 93  5 21 17 42 44.9960000  0  5G18G19G27G 2G16
  21830166.957     7772788.080 6   6071283.17121
  19999003.0354   -5441138.38646  -4204183.69162
  19375075.8404  -17952640.28447 -13916747.49263
  20478500.340   -22276584.048 7 -17215768.77322
  23035880.1524   -2234353.68245     18026.60261
 93  5 21 17 42 59.9960000  0  5G18G19G27G 2G16
  21837261.348     7810072.767 6   6100336.12221
  19999129.1844   -5440467.16146  -4203660.68762
  19369641.8954  -17981196.94747 -13938999.43363
  20472051.5274  -22310437.54147 -17242148.10562
  23036605.0904   -2230519.76045     21014.02261
 93  5 21 17 43 14.9960000  0  5G18G19G27G 2G16
  21844367.6914    7847408.33846   6129428.75061
  19999269.246    -5439727.610 6  -4203084.42422
  19364221.6524  -18009689.52547 -13961201.42963
  20465625.598   -22344233.506 7 -17268482.61622
  23037364.4264   -2226585.55145     24079.63661
 93  5 21 17 43 29.9960000  0  5G18G19G27G 2G16
  21851477.316     7884797.353 6   6158562.99221
  19999422.746    -5438917.810 6  -4202453.42822
  19358809.6374  -18038115.31547 -13983351.39363
  20459205.3014  -22377970.52447 -17294771.19462
  23038127.7314   -2222550.66345     27223.66461
 93  5 21 17 43 44.9960000  0  5G18G19G27G 2G16
  21858604.637     7922239.385 6   6187738.54921
  19999590.8634   -5438040.23246  -4201769.61162
  19353415.5204  -18066472.66647 -14005448.02463
  20452797.0124  -22411648.33247 -17321013.62862
  23038909.496    -2218415.166 5     30446.11521
 93  5 21 17 43 59.9960000  0  5G18G19G27G 2G16
  21865736.520     7959726.207 6   6216949.03521
  19999769.457    -5437100.858 6  -4201037.64822
  19348029.3324  -18094764.04847 -14027493.25463
  20446397.6454  -22445270.87847 -17347213.01062
  23039717.2154   -2214187.83345     33740.09561
 93  5 21 17 44 14.9960000  0  5G18G19G27G 2G16
  21872884.496     7997258.933 6   6246195.26321
  19999962.6214   -5436096.71546  -4200255.20762
  19342661.4024  -18122984.91947 -14049483.54163
  20440011.6134  -22478832.34347 -17373364.80162
  23040538.215    -2209867.574 5     37106.51621
 93  5 21 17 44 29.9960000  0  5G18G19G27G 2G16
  21880032.816     8034847.040 6   6275484.63521
  20000166.4494   -5435016.71646  -4199413.65862
  19337305.2234  -18151122.42647 -14071408.87063
  20433640.7384  -22512317.70247 -17399457.27362
  23041382.535    -2205443.887 5     40553.48621
 93  5 21 17 44 44.9960000  0  5G18G19G27G 2G16
  21887196.2154    8072482.44046   6304810.89561
  20000385.293    -5433872.560 6  -4198522.12722
  19331967.7624  -18179183.70147 -14093274.79263
  20427281.4734  -22545735.54647 -17425497.14662
  23042245.676    -2200924.577 5     44074.99421
 93  5 21 17 44 59.9960000  0  5G18G19G27G 2G16
  21894371.035     8110162.192 6   6334171.68321
  20000612.5274   -5432667.59046  -4197583.19162
  19326640.8564  -18207170.70147 -14115082.84263
  20420932.2384  -22579086.93047 -17451485.22662
  23043124.7074   -2196308.92045     47671.60261
 93  5 21 17 45 14.9960000  0  5G18G19G27G 2G16
  21901550.129     8147883.682 6   6363565.00121
  20000855.106    -5431400.457 6  -4196595.82722
  19321329.2854  -18235087.72747 -14136836.36763
  20414595.8564  -22612372.30347 -17477421.87462
  23044017.0274   -2191599.59945     51341.16461
 93  5 21 17 45 29.9960000  0  5G18G19G27G 2G16
  21908730.324     8185652.372 6   6392995.12521
  20001108.9884   -5430065.86746  -4195555.89362
  19316030.9884  -18262928.46447 -14158530.44463
  20408277.6374  -22645589.39147 -17503305.30762
  23044930.7464   -2186794.38945     55085.49761
 93  5 21 17 45 44.9960000  0  5G18G19G27G 2G16
  21915927.2384    8223470.22946   6422463.53361
  20001375.520    -5428663.203 6  -4194462.91922
  19310749.4574  -18290688.44147 -14180161.59663
  20401966.582   -22678736.781 7 -17529134.43222
  23045858.3794   -2181894.94645     58903.17161
 93  5 21 17 45 59.9960000  0  5G18G19G27G 2G16
  21923132.0744    8261328.10246   6451963.11361
  20001655.707    -5427199.129 6  -4193322.10322
  19305477.5204  -18318377.76147 -14201737.68163
  20395675.5354  -22711819.19747 -17554912.93562
  23046810.0824   -2176909.62245     62787.83061
 93  5 21 17 46 14.9960000  0  5G18G19G27G 2G16
  21930346.7934    8299227.32246   6481494.96161
  20001946.559    -5425669.685 6  -4192130.33622
  19300225.3954  -18345995.63147 -14223258.09263
  20389389.1844  -22744831.42747 -17580636.74562
  23047776.9344   -2171835.77345     66741.46861
 93  5 21 17 46 29.9960000  0  5G18G19G27G 2G16
  21937567.2704    8337167.08146   6511058.36161
  20002246.387    -5424075.473 6  -4190888.11522
  19294980.1914  -18373543.75547 -14244724.16363
  20383124.3874  -22777772.92447 -17606305.44262
  23048759.6604   -2166670.37345     70766.41561
 93  5 21 17 46 44.9960000  0  5G18G19G27G 2G16
  21944791.981     8375147.497 6   6540653.45321
  20002563.184    -5422418.145 6  -4189596.70722
  19289750.6914  -18401023.48747 -14266136.94463
  20376865.7234  -22810646.14947 -17631920.93362
  23049757.363    -2161413.162 5     74862.91721
 93  5 21 17 46 59.9960000  0  5G18G19G27G 2G16
  21952031.527     8413168.979 6   6570280.52421
  20002890.059    -5420697.828 6  -4188256.21422
  19284536.4024  -18428435.84647 -14287497.21363
  20370627.1294  -22843450.26547 -17657482.57862
  23050778.1684   -2156062.84045     79031.96161
 93  5 21 17 47 14.9960000  0  5G18G19G27G 2G16
  21959272.285     8451222.508 6   6599932.56621
  20003230.207    -5418920.960 6  -4186871.65622
  19279328.0594  -18455791.66947 -14308813.43963
  20364392.5594  -22876195.96147 -17682998.69562
  23051810.3484   -2150629.73845     83265.51661
 93  5 21 17 47 29.9960000  0  5G18G19G27G 2G16
  21966521.777     8489315.656 6   6629615.48321
  20003577.504    -5417079.413 6  -4185436.70122
  19274135.9814  -18483083.14347 -14330079.51063
  20358177.8714  -22908878.08247 -17708465.27662
  23052866.7464   -2145110.07445     87566.53861
 93  5 21 17 47 44.9960000  0  5G18G19G27G 2G16
  21973775.949     8527449.610 6   6659330.21221
  20003944.2774   -5415174.99346  -4183952.74562
  19268956.2854  -18510310.28947 -14351295.47563
  20351966.6454  -22941497.73947 -17733883.17762
  23053933.551    -2139503.714 5     91935.11321
 93  5 21 17 47 59.9960000  0  5G18G19G27G 2G16
  21981039.1604    8565628.42446   6689079.88061
  20004316.551    -5413203.729 6  -4182416.70422
  19263785.4414  -18537472.82847 -14372461.08563
  20345775.1454  -22974048.04447 -17759247.03762
  23055017.8484   -2133804.48645     96376.03961
 93  5 21 17 48 14.9960000  0  5G18G19G27G 2G16
  21988309.699     8603849.068 6   6718862.15021
  20004705.3404   -5411168.28046  -4180830.65062
  19258630.7854  -18564571.96847 -14393577.29263
  20339592.9494  -23006531.46247 -17784558.78962
  23056114.457    -2128011.051 5    100890.38521
 93  5 21 17 48 29.9960000  0  5G18G19G27G 2G16
  21995591.4024    8642107.38245   6748673.78561
  20005103.223    -5409071.827 6  -4179197.07222
  19253483.2384  -18591608.69347 -14414644.86763
  20333423.6294  -23038956.81147 -17809825.28462
  23057236.0274   -2122128.91445    105473.84961
 93  5 21 17 48 44.9960000  0  5G18G19G27G 2G16
  22002876.1294    8680408.31445   6778518.62361
  20005516.246    -5406911.499 6  -4177513.71222
  19248354.3404  -18618578.53247 -14435660.32763
  20327261.4104  -23071323.62147 -17835046.16662
  23058371.2854   -2116158.30745    110126.22961
 93  5 21 17 48 59.9960000  0  5G18G19G27G 2G16
  22010173.9574    8718749.93945   6808395.18761
  20005937.1844   -5404689.07346  -4175781.96462
  19243231.1064  -18645485.23647 -14456626.58663
  20321116.2234  -23103636.01047 -17860224.65062
  23059521.7934   -2110107.32845    114841.25661
 93  5 21 17 49 14.9960000  0  5G18G19G27G 2G16
  22017479.5274    8757139.45645   6838309.04961
  20006373.3324   -5402397.49946  -4173996.33762
  19238127.2154  -18672322.52647 -14477538.75963
  20314977.1214  -23135888.93747 -17885356.79062
  23060695.6914   -2103972.20745    119621.85061
 93  5 21 17 49 29.9960000  0  5G18G19G27G 2G16
  22024801.0594    8795579.73546   6868262.47161
  20006820.465    -5400034.879 6  -4172155.34122
  19233031.9104  -18699087.06947 -14498394.23763
  20308849.7464  -23168080.85947 -17910441.39562
  23061873.8634   -2097752.96645    124467.98861
 93  5 21 17 49 44.9960000  0  5G18G19G27G 2G16
  22032122.527     8834067.207 6   6898252.66021
  20007286.2624   -5397607.06746  -4170263.55162
  19227952.0824  -18725780.18247 -14519194.05963
  20302735.8954  -23200212.33347 -17935478.90262
  23063078.2704   -2091454.54645    129375.84061
 93  5 21 17 49 59.9960000  0  5G18G19G27G 2G16
  22039452.5594    8872596.48446   6928275.41061
  20007757.715    -5395116.204 6  -4168322.63822
  19222885.7384  -18752404.67047 -14539940.41263
  20296630.934   -23232284.878 7 -17960470.48022
  23064282.465    -2085079.851 4    134343.08521
 93  5 21 17 50 14.9960000  0  5G18G19G27G 2G16
  22046798.7074    8911172.92046   6958334.91661
  20008246.731    -5392557.042 6  -4166328.49922
  19217835.2624  -18778953.26447 -14560627.62063
  20290542.0124  -23264292.68847 -17985411.62762
  23065518.3564   -2078622.07145    139375.11061
 93  5 21 17 50 29.9960000  0  5G18G19G27G 2G16
  22054146.8564    8949796.89745   6988431.44061
  20008749.6994   -5389929.06346  -4164280.72062
  19212799.8324  -18805424.54347 -14581254.58063
  20284461.8014  -23296239.21347 -18010305.01962
  23066765.418    -2072082.940 5    144470.50621
 93  5 21 17 50 44.9960000  0  5G18G19G27G 2G16
  22061505.6844    8988470.27146   7018566.49261
  20009262.2704   -5387231.49846  -4162178.73062
  19207773.3714  -18831822.42147 -14601824.35263
  20278396.9344  -23328123.74147 -18035150.09862
  23068020.4264   -2065466.40545    149626.21361
 93  5 21 17 50 59.9960000  0  5G18G19G27G 2G16
  22068872.6134    9027191.40545   7048738.77661
  20009786.8484   -5384467.24946  -4160024.77562
  19202764.699   -18858149.798 7 -14622339.18023
  20272338.371   -23359947.441 7 -18059947.78722
  23069292.7314   -2058772.10545    154842.52661
 93  5 21 17 51 14.9960000  0  5G18G19G27G 2G16
  22076251.824     9065958.679 5   7078946.99221
  20010323.5744   -5381637.64446  -4157819.89962
  19197767.9884  -18884406.64347 -14642799.06063
  20266297.7314  -23391710.46947 -18084698.18262
  23070582.4884   -2051996.48045    160122.24461
 93  5 21 17 51 29.9960000  0  5G18G19G27G 2G16
  22083629.715     9104769.136 5   7109188.86221
  20010872.8564   -5378745.37046  -4155566.18462
  19192785.3634  -18910592.03747 -14663203.25863
  20260262.5824  -23423414.12847 -18109402.31962
  23071886.6294   -2045136.79345    165467.39461
 93  5 21 17 51 44.9960000  0  5G18G19G27G 2G16
  22091025.809     9143620.996 5   7139462.98021
  20011438.7934   -5375789.85746  -4153263.18862
  19187812.4104  -18936703.74647 -14683550.04163
  20254239.449   -23455057.073 7 -18134059.14122
  23073210.4104   -2038190.86745    170879.78361
 93  5 21 17 51 59.9960000  0  5G18G19G27G 2G16
  22098430.3564    9182515.59045   7169770.42461
  20012009.7854   -5372768.89846  -4150909.20162
  19182859.051   -18962740.070 7 -14703838.07723
  20248230.7234  -23486640.47047 -18158669.57462
  23074546.598    -2031155.514 5    176361.85821
 93  5 21 17 52 14.9960000  0  5G18G19G27G 2G16
  22105834.7774    9221447.95746   7200107.30061
  20012599.3014   -5369686.59446  -4148507.40962
  19177921.0904  -18988706.47547 -14724071.62763
  20242228.777   -23518171.947 7 -18183239.54422
  23075904.176    -2024034.474 5    181910.69521
 93  5 21 17 52 29.9960000  0  5G18G19G27G 2G16
  22113250.9494    9260424.52645   7230478.57961
  20013200.3164   -5366535.46046  -4146051.98862
  19172990.9104  -19014595.73147 -14744245.07063
  20236243.6994  -23549646.80147 -18207765.40462
  23077279.566    -2016821.007 5    187531.54121
 93  5 21 17 52 44.9960000  0  5G18G19G27G 2G16
  22120680.5984    9299442.72646   7260882.34361
  20013814.012    -5363314.172 6  -4143541.91022
  19168083.5664  -19040408.99147 -14764359.29563
  20230263.1134  -23581064.77847 -18232246.94062
  23078673.8324   -2009516.53445    193223.30761
 93  5 21 17 52 59.9960000  0  5G18G19G27G 2G16
  22128112.4494    9338499.93346   7291316.45561
  20014439.2704   -5360024.45946  -4140978.51462
  19163183.6454  -19066145.44347 -14784413.67163
  20224295.0204  -23612425.17847 -18256683.60662
  23080072.9264   -2002120.33345    198986.54861
 93  5 21 17 53 14.9960000  0  5G18G19G27G 2G16
  22135552.301     9377595.166 6   7321780.22721
  20015077.1454   -5356665.36346  -4138361.04362
  19158299.9184  -19091802.65847 -14804406.30663
  20218338.2774  -23643723.31347 -18281071.75662
  23081500.3014   -1994627.81745    204824.83261
 93  5 21 17 53 29.9960000  0  5G18G19G27G 2G16
  22142997.746     9416725.110 6   7352271.03321
  20015726.441    -5353237.405 6  -4135689.93022
  19153432.9104  -19117383.04447 -14824339.06963
  20212393.621   -23674960.077 7 -18305412.07922
  23082944.8634   -1987044.79945    210733.64161
 93  5 21 17 53 44.9960000  0  5G18G19G27G 2G16
  22150453.0904    9455891.39446   7382790.18861
  20016396.918    -5349737.685 6  -4132962.86822
  19148580.5204  -19142884.02747 -14844209.96263
  20206461.0354  -23706132.75147 -18329702.46162
  23084407.9734   -1979370.94245    216713.27361
 93  5 21 17 53 59.9960000  0  5G18G19G27G 2G16
  22157908.9814    9495090.54945   7413334.90761
  20017074.504    -5346169.540 6  -4130182.51522
  19143739.1994  -19168311.88647 -14864023.87563
  20200542.2544  -23737244.63247 -18353945.48062
  23085878.7314   -1971613.25145    222758.18961
 93  5 21 17 54 14.9960000  0  5G18G19G27G 2G16
  22165374.676     9534320.417 5   7443903.55221
  20017767.035    -5342531.779 6  -4127347.91322
  19138917.9654  -19193669.32247 -14883782.92063
  20194633.7774  -23768295.87247 -18378141.24762
  23087371.8014   -1963774.74944    228866.11061
 93  5 21 17 54 29.9960000  0  5G18G19G27G 2G16
  22172849.1454    9573579.04846   7474494.65261
  20018468.8954   -5338825.87446  -4124460.19862
  19134104.7854  -19218959.36747 -14903489.44963
  20188737.6604  -23799284.14647 -18402287.95362
  23088879.0274   -1955853.61744    235038.39261
 93  5 21 17 54 44.9960000  0  5G18G19G27G 2G16
  22180322.137     9612869.565 6   7505110.58421
  20019189.2074   -5335050.07746  -4121518.02062
  19129303.7154  -19244178.16747 -14923140.45963
  20182853.1764  -23830205.34547 -18426382.38162
  23090397.379    -1947848.941 4    241275.76521
 93  5 21 17 54 59.9960000  0  5G18G19G27G 2G16
  22187810.363     9652193.208 5   7535752.30921
  20019921.3794   -5331208.08446  -4118524.26862
  19124517.6454  -19269327.56947 -14942737.39563
  20176981.3634  -23861061.09347 -18450425.81062
  23091934.7854   -1939763.78644    247575.88961
 93  5 21 17 55 14.9960000  0  5G18G19G27G 2G16
  22195298.2154    9691545.85945   7566416.66561
  20020662.6454   -5327304.52446  -4115482.53062
  19119746.2704  -19294411.82547 -14962283.56263
  20171117.8794  -23891856.44247 -18474422.17962
  23093499.6994   -1931603.02945    253934.88461
 93  5 21 17 55 29.9960000  0  5G18G19G27G 2G16
  22202796.7544    9730935.41645   7597109.76061
  20021417.8244   -5323332.39046  -4112387.36862
  19114985.4574  -19319421.84247 -14981771.88763
  20165273.1914  -23922586.39947 -18498367.59662
  23095058.340    -1923361.828 4    260356.55821
 93  5 21 17 55 44.9960000  0  5G18G19G27G 2G16
  22210295.2234    9770354.95745   7627826.21261
  20022186.9654   -5319297.91246  -4109243.61962
  19110239.1294  -19344360.40847 -15001204.53963
  20159436.6994  -23953262.57547 -18522271.10162
  23096636.2704   -1915048.64844    266834.36261
 93  5 21 17 55 59.9960000  0  5G18G19G27G 2G16
  22217799.113     9809804.132 5   7658565.77121
  20022966.3794   -5315201.39846  -4106051.54462
  19105510.1374  -19369228.37347 -15020582.17563
  20153610.4104  -23983886.02347 -18546133.52462
  23098243.246    -1906662.630 5    273368.90321
 93  5 21 17 56 14.9960000  0  5G18G19G27G 2G16
  22225315.715     9849288.367 5   7689332.66221
  20023761.1214   -5311037.40546  -4102806.87962
  19100792.6064  -19394021.68647 -15039901.64563
  20147789.4574  -24014453.24647 -18569952.12862
  23099851.7464   -1898199.70944    279963.35861
 93  5 21 17 56 29.9960000  0  5G18G19G27G 2G16
  22232832.160     9888807.742 5   7720126.92821
  20024565.996    -5306809.622 6  -4099512.52222
  19096085.8794  -19418740.09647 -15059162.74463
  20141982.4814  -24044966.24347 -18593728.48162
  23101474.668    -1889658.951 4    286618.44721
 93  5 21 17 56 44.9960000  0  5G18G19G27G 2G16
  22240358.152     9928360.656 5   7750947.32421
  20025381.7234   -5302523.58946  -4096172.75962
  19091395.2934  -19443383.69447 -15078365.54563
  20136189.1454  -24075428.67647 -18617465.43962
  23103115.6214   -1881041.71244    293333.14361
 93  5 21 17 56 59.9960000  0  5G18G19G27G 2G16
  22247895.8954    9967943.50145   7781791.05061
  20026203.6134   -5298180.69946  -4092788.70262
  19086721.1524  -19467954.52147 -15097511.64463
  20130401.4184  -24105845.25747 -18641166.66462
  23104771.902    -1872354.122 4    300102.64721
 93  5 21 17 57 14.9960000  0  5G18G19G27G 2G16
  22255432.988    10007554.032 5   7812656.32921
  20027044.785    -5293777.438 6  -4089357.60522
  19082060.8404  -19492451.12347 -15116599.90663
  20124621.7154  -24136212.30647 -18664829.29962
  23106439.6454   -1863592.37244    306929.98161
 93  5 21 17 57 29.9960000  0  5G18G19G27G 2G16
  22262970.684    10047192.483 5   7843543.37621
  20027893.246    -5289309.874 6  -4085876.40222
  19077416.2074  -19516869.89247 -15135627.51963
  20118851.5744  -24166526.66947 -18688450.86862
  23108114.574    -1854754.140 4    313816.86121
 93  5 21 17 57 44.9960000  0  5G18G19G27G 2G16
  22270522.9964   10086860.26445   7874453.27461
  20028757.9344   -5284775.14146  -4082342.85662
  19072782.082   -19541210.630 7 -15154594.33723
  20113091.8164  -24196784.97547 -18712028.76562
  23109806.6064   -1845838.94943    320763.77161
 93  5 21 17 57 59.9960000  0  5G18G19G27G 2G16
  22278077.9964   10126553.93145   7905383.34261
  20029626.7234   -5280174.76146  -4078758.14362
  19068161.2074  -19565479.48247 -15173505.13163
  20107348.895   -24226988.512 7 -18735563.97722
  23111524.3244   -1836848.56944    327769.21461
 93  5 21 17 58 14.9960000  0  5G18G19G27G 2G16
  22285641.387    10166282.971 6   7936340.95421
  20030522.3484   -5275499.82746  -4075115.35262
  19063559.1684  -19589670.65247 -15192355.39963
  20101614.2704  -24257125.06047 -18759046.99162
  23113251.777    -1827774.248 3    334840.09121
 93  5 21 17 58 29.9960000  0  5G18G19G27G 2G16
  22293199.0904   10206043.64445   7967323.23061
  20031429.7314   -5270754.70546  -4071417.86762
  19058970.7234  -19613785.53547 -15211146.21063
  20095891.8564  -24287197.15947 -18782479.78562
  23114991.457    -1818619.963 3    341973.26221
 93  5 21 17 58 44.9960000  0  5G18G19G27G 2G16
  22300779.2774   10245836.70445   7998330.72161
  20032343.0824   -5265936.35746  -4067663.31262
  19054396.0124  -19637820.61747 -15229874.84763
  20090180.6294  -24317200.91047 -18805859.32962
  23116755.762    -1809383.628 4    349170.36821
 93  5 21 17 58 59.9950000  0  5G18G19G27G 2G16
  22308352.9374   10285658.52245   8029360.63361
  20033271.8434   -5261040.41646  -4063848.30362
  19049840.5464  -19661774.60247 -15248540.28563
  20084480.3044  -24347131.70647 -18829182.02162
  23118516.538    -1800069.653 3    356427.99821
 93  5 21 17 59 14.9950000  0  5G18G19G27G 2G16
  22315933.8044   10325512.42245   8060415.55561
  20034222.0154   -5256067.62546  -4059973.41762
  19045297.8194  -19685651.46347 -15267145.63163
  20078800.8514  -24376992.24347 -18852449.97662
  23120312.2734   -1790679.39444    363745.06861
 93  5 21 17 59 29.9950000  0  5G18G19G27G 2G16
  22323520.4994   10365392.00845   8091490.49261
  20035179.0774   -5251023.31246  -4056042.79562
  19040766.7654  -19709451.41547 -15285691.05263
  20073133.8194  -24406784.42647 -18875664.65762
  23122105.4054   -1781220.30744    371115.70861
 93  5 21 17 59 44.9950000  0  5G18G19G27G 2G16
  22331121.2574   10405302.28545   8122589.35261
  20036155.194    -5245904.132 6  -4052053.83522
  19036252.9134  -19733171.02647 -15304173.86263
  20067475.7414  -24436505.28147 -18898823.75962
  23123920.0234   -1771689.39744    378542.37561
 93  5 21 17 59 59.9950000  0  5G18G19G27G 2G16
  22338721.687    10445242.950 5   8153711.90021
  20037140.9294   -5240712.64146  -4048008.52462
  19031753.8514  -19756810.59447 -15322594.30263
  20061835.2654  -24466157.58647 -18921929.44562
  23125746.2734   -1762088.22844    386023.75561
 93  5 21 18  0 14.9950000  0  5G18G19G27G 2G16
  22346325.3194   10485214.54345   8184858.52261
  20038145.9374   -5235451.38646  -4043908.85062
  19027270.9834  -19780367.82847 -15340950.59263
  20056203.6164  -24495741.83847 -18944982.10962
  23127586.554    -1752415.119 4    393561.22021
 93  5 21 18  0 29.9950000  0  5G18G19G27G 2G16
  22353936.241    10525216.094 5   8216028.51621
  20039156.0854   -5230124.33546  -4039757.91762
  19022803.5234  -19803842.81747 -15359242.79063
  20050590.5544  -24525261.61647 -18967984.53162
  23129444.616    -1742672.951 4    401152.47921
 93  5 21 18  0 44.9950000  0  5G18G19G27G 2G16
  22361556.015    10565248.501 5   8247222.51221
  20040184.8194   -5224733.39746  -4035557.19362
  19018349.2964  -19827235.07647 -15377470.52563
  20044985.0934  -24554719.49247 -18990938.70862
  23131309.179    -1732860.626 4    408798.43221
 93  5 21 18  0 59.9950000  0  5G18G19G27G 2G16
  22369180.9994   10605304.23345   8278434.69361
  20041217.663    -5219286.244 6  -4031312.67522
  19013914.6794  -19850553.12747 -15395640.42763
  20039387.5074  -24584122.97847 -19013850.51262
  23133193.569    -1722984.990 5    416493.68721
 93  5 21 18  1 14.9950000  0  5G18G19G27G 2G16
  22376807.0934   10645384.48645   8309665.95961
  20042268.187    -5213784.984 6  -4027025.99222
  19009491.3984  -19873795.04647 -15413751.02163
  20033803.3584  -24613476.80947 -19036723.62362
  23135087.515    -1713045.992 4    424238.34221
 93  5 21 18  1 29.9950000  0  5G18G19G27G 2G16
  22384437.0074   10685491.46945   8340918.09561
  20043322.7804   -5208227.58546  -4022695.55562
  19005084.3354  -19896955.66347 -15431798.25463
  20028226.1634  -24642781.82747 -19059558.70062
  23136990.2734   -1703038.38744    432036.43761
 93  5 21 18  1 44.9950000  0  5G18G19G27G 2G16
  22392078.2654   10725627.17045   8372192.60661
  20044394.788    -5202610.355 6  -4018318.51122
  19000692.0854  -19920035.27147 -15449782.36163
  20022657.3984  -24672039.97447 -19082357.25562
  23138909.3354   -1692958.73945    439890.69961
 93  5 21 18  1 59.9950000  0  5G18G19G27G 2G16
  22399720.343    10765796.979 5   8403493.68721
  20045471.0544   -5196931.72046  -4013893.60462
  18996315.8514  -19943034.56547 -15467703.89763
  20017099.8904  -24701250.23147 -19105118.49062
  23140844.1944   -1682800.91545    447805.84461
 93  5 21 18  2 14.9950000  0  5G18G19G27G 2G16
  22407372.085    10805998.500 5   8434819.45721
  20046566.1874   -5191194.46346  -4009423.02662
  18991954.0694  -19965957.63847 -15485566.02863
  20011549.8824  -24730413.01547 -19127842.73762
  23142784.999    -1672567.116 4    455780.20021
 93  5 21 18  2 29.9950000  0  5G18G19G27G 2G16
  22415018.858    10846233.410 5   8466171.26421
  20047664.9054   -5185392.95846  -4004902.38262
  18987606.0464  -19988804.00547 -15503368.39763
  20006008.3274  -24759524.94747 -19150527.34962
  23144747.655    -1662254.776 4    463815.75221
 93  5 21 18  2 44.9950000  0  5G18G19G27G 2G16
  22422686.2884   10886498.78845   8497546.80561
  20048787.937    -5179523.978 6  -4000329.17322
  18983274.3194  -20011575.67247 -15521112.55463
  20000479.7654  -24788586.55347 -19173172.75262
  23146730.9524   -1651868.26044    471909.10961
 93  5 21 18  2 59.9950000  0  5G18G19G27G 2G16
  22430356.171    10926789.656 5   8528942.18721
  20049916.9994   -5173584.34546  -3995700.90462
  18978955.6794  -20034275.14347 -15538800.45463
  19994956.4914  -24817595.77147 -19195777.32862
  23148723.187    -1641411.094 5    480057.53221
 93  5 21 18  3 14.9950000  0  6G18G19G27G15G 2G16
  22438031.8124   10967103.31145   8560355.32361
  20051060.0774   -5167572.03846  -3991016.00062
  18974650.0934  -20056901.55947 -15556431.43163
  23569811.7574         -0.67153
  19989446.1944  -24846553.35147 -19218341.67362
  23150723.249    -1630885.567 5    488259.18321
 93  5 21 18  3 29.9950000  0  6G18G19G27G15G 2G16
  22445700.5544   11007442.85445   8591788.66661
  20052220.155    -5161480.785 6  -3986269.58122
  18970361.6014  -20079447.99447 -15574000.07663
  23561125.3354     -45630.67343
  19983949.1554  -24875452.62547 -19240860.59062
  23152735.741    -1620285.890 4    496518.65921
 93  5 21 18  3 44.9950000  0  6G18G19G27G15G 2G16
  22453386.5694   11047800.56045   8623236.15661
  20053394.7334   -5155315.08646  -3981465.15562
  18966080.7884  -20101925.59747 -15591515.09663
  23552447.6794     -91217.34943
  19978457.9834  -24904296.67647 -19263336.46462
  23154766.858    -1609620.474 4    504829.33121
 93  5 21 18  3 59.9950000  0  6G18G19G27G15G 2G16
  22461069.1944   11088182.08545   8654702.21961
  20054578.702    -5149069.049 6  -3976598.12822
  18961817.4684  -20124330.87647 -15608973.75363
  23543776.1324    -136755.96543
  19972981.6794  -24933076.55847 -19285762.33562
  23156807.710    -1598884.652 4    513194.89121
 93  5 21 18  4 14.9950000  0  6G18G19G27G15G 2G16
  22468759.413    11128582.792 5   8686183.20821
  20055786.9054   -5142746.81946  -3971671.73362
  18957567.0304  -20146665.58047 -15626377.41863
  23535120.2804    -182250.11543
  19967519.4294  -24961794.68047 -19308140.09062
  23158866.4134   -1588087.09244    521608.53561
 93  5 21 18  4 29.9950000  0  6G18G19G27G15G 2G16
  22476448.7414   11169002.43145   8717678.96761
  20057002.648    -5136343.430 6  -3966682.09022
  18953330.3744  -20168921.33247 -15643719.56363
  23526473.8124    -227695.15543        -0.46571
  19962067.6944  -24990447.87147 -19330467.25762
  23160927.358    -1577227.845 4    530070.21921
 93  5 21 18  4 44.9950000  0  6G18G19G27G15G 2G16
  22484143.9294   11209435.54845   8749185.20461
  20058237.335    -5129863.275 6  -3961632.64422
  18949112.4214  -20191099.62247 -15661001.34963
  23517841.8274    -273095.89244    -35377.55161
  19956623.8744  -25019044.10147 -19352750.02862
  23163003.1714   -1566313.65644    538574.75061
 93  5 21 18  4 59.9950000  0  6G18G19G27G15G 2G16
  22491836.0934   11249887.22945   8780705.92361
  20059486.546    -5123305.718 6  -3956522.87022
  18944909.5304  -20213192.79547 -15678216.80263
  23509212.7184    -318446.23543    -70715.43561
  19951192.0624  -25047576.85647 -19374983.34062
  23165097.890    -1555335.892 5    547128.82721
 93  5 21 18  5 14.9950000  0  6G18G19G27G15G 2G16
  22499540.210    11290356.846 5   8812240.61221
  20060749.343    -5116676.703 6  -3951357.42322
  18940721.0384  -20235199.02047 -15695364.51663
  23500581.593     -363747.199 3   -106014.78221
  19945772.991   -25076050.492 7 -19397170.57022
  23167207.077    -1544291.602 5    555734.73821
 93  5 21 18  5 29.9950000  0  6G18G19G27G15G 2G16
  22507251.858    11330848.009 5   8843792.09321
  20062017.366    -5109979.565 6  -3946138.89422
  18936547.6244  -20257116.88047 -15712443.36863
  23491964.632     -408997.839 2   -141274.95121
  19940371.7264  -25104464.00848 -19419310.97062
  23169316.5304   -1533179.44845    564393.53961
 93  5 21 18  5 44.9950000  0  6G18G19G27G15G 2G16
  22514960.6404   11371361.70645   8875361.11861
  20063309.2414   -5103212.39446  -3940865.78262
  18932394.2574  -20278947.46447 -15729454.21063
  23483367.835     -454196.514 3   -176494.58121
  19934973.9374  -25132813.92247 -19441401.80062
  23171440.671    -1521998.668 5    573105.80521
 93  5 21 18  5 59.9950000  0  6G18G19G27G15G 2G16
  22522668.944    11411894.389 5   8906944.94721
  20064604.4294   -5096382.05546  -3935543.45262
  18928257.3904  -20300696.71647 -15746401.67963
  23474781.6714    -499348.94843   -211678.21661
  19929589.3744  -25161104.55547 -19463446.43962
  23173581.9374   -1510755.38445    581866.77461
 93  5 21 18  6 14.9950000  0  6G18G19G27G15G 2G16
  22530389.874    11452444.847 5   8938542.58621
  20065919.983    -5089492.711 6  -3930175.14622
  18924136.0624  -20322362.37447 -15763284.00563
  23466202.3124    -544455.08243   -246825.77561
  19924215.5234  -25189337.70147 -19485446.29562
  23175731.0694   -1499449.15945    590676.79461
 93  5 21 18  6 29.9950000  0  6G18G19G27G15G 2G16
  22538103.327    11493009.276 5   8970151.16521
  20067236.3744   -5082545.81646  -3924761.98262
  18920025.9444  -20343942.57247 -15780099.74263
  23457619.444     -589513.480 3   -281936.07321
  19918856.4604  -25217515.04447 -19507402.66762
  23177896.1014   -1488077.44444    599537.84361
 93  5 21 18  6 44.9950000  0  6G18G19G27G15G 2G16
  22545830.437    11533593.856 5   9001775.40121
  20068577.015    -5075535.383 6  -3919299.32722
  18915936.1324  -20365432.29747 -15796844.98863
  23449060.194     -634516.469 4   -317003.31121
  19913507.5934  -25245628.42947 -19529309.19062
  23180075.9524   -1476629.00045    608458.67261
 93  5 21 18  6 59.9950000  0  6G18G19G27G15G 2G16
  22553559.8744   11574191.66545   9033409.96461
  20069916.937    -5068469.940 6  -3913793.79722
  18911863.6084  -20386841.96647 -15813527.84363
  23440500.7964    -679471.18344   -352032.85561
  19908164.1084  -25273685.20947 -19551171.60962
  23182263.608    -1465110.827 4    617433.82421
 93  5 21 18  7 14.9950000  0  6G18G19G27G15G 2G16
  22561280.765    11614803.934 5   9065055.81721
  20071274.733    -5061349.100 6  -3908245.11222
  18907803.6634  -20408172.45647 -15830149.01163
  23431963.9764    -724377.62545   -387024.84961
  19902838.0694  -25301686.10147 -19572990.49062
  23184467.233    -1453524.384 4    626462.19221
 93  5 21 18  7 29.9950000  0  6G18G19G27G15G 2G16
  22569014.476    11655429.188 5   9096711.78321
  20072640.9134   -5054169.06946  -3902650.30162
  18903759.0934  -20429426.27347 -15846710.43063
  23423421.1554    -769235.19645   -421978.64861
  19897521.6714  -25329631.81047 -19594766.36362
  23186679.3274   -1441875.57344    635539.13561
 93  5 21 18  7 44.9950000  0  6G18G19G27G15G 2G16
  22576749.3194   11696067.15545   9128377.65361
  20074020.4134   -5046924.70546  -3897005.34862
  18899731.0774  -20450606.16747 -15863214.24863
  23414888.3744    -814042.60544   -456893.46061
  19892212.1164  -25357520.60947 -19616497.88362
  23188913.812    -1430166.574 4    644663.00321
 93  5 21 18  7 59.9950000  0  6G18G19G27G15G 2G16
  22584483.2184   11736722.34745   9160056.89661
  20075406.726    -5039609.708 6  -3891305.36922
  18895713.4524  -20471706.76147 -15879656.27463
  23406376.030     -858795.360 4   -491765.65321
  19886918.1794  -25385352.34147 -19638184.95162
  23191154.421    -1418392.382 4    653837.64221
 93  5 21 18  8 14.9950000  0  6G18G19G27G15G 2G16
  22592225.3514   11777393.94945   9191748.94361
  20076816.9524   -5032226.95246  -3885552.58362
  18891714.1554  -20492727.67447 -15896036.20663
  23397872.1944    -903494.90945   -526596.39061
  19881629.5934  -25413133.60747 -19659832.68462
  23193411.601    -1406555.558 4    663061.13721
 93  5 21 18  8 29.9950000  0  6G18G19G27G15G 2G16
  22599971.069    11818083.368 5   9223454.88721
  20078232.538    -5024773.645 6  -3879744.82722
  18887730.1634  -20513666.34747 -15912352.05463
  23389366.241     -948139.207 4   -561384.07521
  19876353.6404  -25440866.60147 -19681442.81762
  23195669.4604   -1394657.76944    672332.08461
 93  5 21 18  8 44.9950000  0  6G18G19G27G15G 2G16
  22607713.866    11858786.843 5   9255171.84221
  20079666.507    -5017255.517 6  -3873886.56022
  18883759.4914  -20534528.33747 -15928608.15663
  23380889.0464    -992733.92645   -596133.16861
  19871082.6874  -25468557.06247 -19703019.78862
  23197944.8044   -1382708.20244    681643.40761
 93  5 21 18  8 59.9950000  0  6G18G19G27G15G 2G16
  22615457.390    11899514.266 5   9286907.39121
  20081109.593    -5009663.452 6  -3867970.68322
  18879806.1874  -20555309.09847 -15944800.95863
  23372419.8274   -1037272.52745   -630838.53061
  19865823.679   -25496199.227 7 -19724559.13022
  23200226.6484   -1370702.77444    690998.24261
 93  5 21 18  9 14.9950000  0  6G18G19G27G15G 2G16
  22623209.1244   11940263.87645   9318660.25861
  20082569.8904   -5001997.99146  -3861997.59462
  18875862.4214  -20576009.64847 -15960931.25663
  23363946.1404   -1081757.62245   -665502.12861
  19860573.8904  -25523794.37647 -19746061.83662
  23202526.405    -1358645.001 4    700393.84421
 93  5 21 18  9 29.9950000  0  6G18G19G27G15G 2G16
  22630971.1634   11981035.39545   9350430.22361
  20084039.898    -4994255.415 6  -3855964.43222
  18871943.6244  -20596627.20947 -15976996.88663
  23355498.124    -1126187.344 5   -700122.61821
  19855331.5774  -25551338.84847 -19767525.05862
  23204833.124    -1346530.849 4    709833.40621
 93  5 21 18  9 44.9950000  0  6G18G19G27G15G 2G16
  22638735.187    12021832.551 5   9382220.09221
  20085532.9214   -4986431.51346  -3849867.89562
  18868034.4054  -20617159.32647 -15992995.94663
  23347052.280    -1170558.509 5   -734697.49521
  19850100.9604  -25578826.89047 -19788944.31162
  23207149.1484   -1334354.65644    719321.31761
 93  5 21 18  9 59.9950000  0  6G18G19G27G15G 2G16
  22646513.2574   12062652.60845   9414027.83761
  20087031.757    -4978534.462 6  -3843714.36522
  18864146.2264  -20637606.67247 -16008928.94763
  23338615.3984   -1214875.85245   -769230.39461
  19844878.9294  -25606264.39047 -19810324.17962
  23209473.554    -1322118.701 4    728855.78021
 93  5 21 18 10 14.9950000  0  6G18G19G27G15G 2G16
  22654282.7734   12103496.92645   9445854.45761
  20088552.312    -4970565.552 6  -3837504.84922
  18860268.5624  -20657965.96647 -16024793.33563
  23330187.6794   -1259136.56943   -803719.20361
  19839670.1484  -25633647.28647 -19831661.49862
  23211821.9994   -1309819.28244    738439.70161
 93  5 21 18 10 29.9950000  0  6G18G19G27G15G 2G16
  22662055.9214   12144355.46645   9477692.15861
  20090075.171    -4962533.620 6  -3831246.21722
  18856411.6484  -20678243.83147 -16040594.26963
  23321774.8274   -1303347.70943   -838169.40061
  19834465.5154  -25660978.93247 -19852958.88062
  23214165.296    -1297466.360 4    748065.31421
 93  5 21 18 10 44.9950000  0  6G18G19G27G15G 2G16
  22669826.679    12185233.063 5   9509544.74921
  20091620.062    -4954430.303 6  -3824931.95622
  18852569.4524  -20698433.23447 -16056326.27363
  23313381.7574   -1347500.80544   -872574.34961
  19829276.9134  -25688246.79347 -19874206.56162
  23216534.3824   -1285049.60044    757740.66461
 93  5 21 18 10 59.9950000  0  6G18G19G27G15G 2G16
  22677613.8354   12226127.66345   9541410.59161
  20093177.8904   -4946253.44746  -3818560.39362
  18848741.5074  -20718537.34547 -16071991.81863
  23304990.2804   -1391596.17944   -906934.29061
  19824103.1404  -25715448.70347 -19895402.84462
  23218912.069    -1272567.767 4    767466.75621
 93  5 21 18 11 14.9950000  0  6G18G19G27G15G 2G16
  22685398.569    12267040.641 5   9573290.73521
  20094747.366    -4937999.560 6  -3812128.80922
  18844935.2414  -20738551.47947 -16087587.24663
  23296611.202    -1435631.263 5   -941247.32421
  19818938.0544  -25742581.78047 -19916545.49762
  23221293.7334   -1260016.66744    777246.78961
 93  5 21 18 11 29.9950000  0  6G18G19G27G15G 2G16
  22693186.968    12307961.537 5   9605177.06921
  20096328.304    -4929679.359 6  -3805645.55422
  18841140.6634  -20758480.43847 -16103116.30963
  23288244.6634   -1479613.33745   -975519.02661
  19813786.8514  -25769653.44347 -19937640.29963
  23223691.9914   -1247402.43944    787076.03461
 93  5 21 18 11 44.9950000  0  6G18G19G27G15G 2G16
  22700970.585    12348896.951 4   9637074.68521
  20097928.116    -4921287.785 6  -3799106.68422
  18837366.6874  -20778318.81547 -16118574.78563
  23279880.3744   -1523534.56545  -1009743.29161
  19808650.0854  -25796660.88147 -19958685.06163
  23226104.3984   -1234721.97644    796956.85761
 93  5 21 18 11 59.9950000  0  6G18G19G27G15G 2G16
  22708765.4604   12389841.90444   9668979.76661
  20099534.4134   -4912832.46146  -3792518.12662
  18833610.8354  -20798071.47147 -16133966.47063
  23271534.030    -1567398.539 5  -1043922.96421
  19803516.1484  -25823612.67747 -19979686.45163
  23228539.0934   -1221982.30044    806883.82761
 93  5 21 18 12 14.9950000  0  6G18G19G27G15G 2G16
  22716559.0384   12430801.92645   9700896.55461
  20101159.460    -4904306.904 6  -3785874.85222
  18829867.6014  -20817728.65547 -16149283.74863
  23263196.7654   -1611196.73445  -1078051.37361
  19798401.9374  -25850503.02047 -20000639.96062
  23230967.0074   -1209178.83944    816860.50061
 93  5 21 18 12 29.9950000  0  6G18G19G27G15G 2G16
  22724365.265    12471769.072 5   9732818.92521
  20102792.2264   -4895714.13646  -3779179.19162
  18826142.6404  -20837297.72847 -16164532.38463
  23254870.7414   -1654935.18345  -1112133.22761
  19793297.0774  -25877336.37347 -20021549.06462
  23233414.327    -1196321.432 4    826879.23921
 93  5 21 18 12 44.9950000  0  6G18G19G27G15G 2G16
  22732158.187    12512744.391 5   9764747.62721
  20104444.3584   -4887053.34546  -3772430.53462
  18822438.1324  -20856779.18447 -16179712.73763
  23246562.5544   -1698613.95944  -1146168.57961
  19788200.0544  -25904115.88447 -20042416.22062
  23235873.9374   -1183410.74144    836939.47261
 93  5 21 18 12 59.9950000  0  6G18G19G27G15G 2G16
  22739952.773    12553729.286 5   9796683.81521
  20106100.9914   -4878322.95746  -3765627.64162
  18818747.5234  -20876173.64647 -16194825.29763
  23238266.6244   -1742233.21845  -1180157.58061
  19783113.7964  -25930844.32847 -20063243.57462
  23238343.226    -1170445.833 4    847041.97721
 93  5 21 18 13 14.9950000  0  6G18G19G27G15G 2G16
  22747762.3194   12594723.06545   9828626.93761
  20107778.140    -4869526.918 6  -3758773.60522
  18815072.7184  -20895481.46447 -16209870.35463
  23229972.2334   -1785794.52944  -1214101.39261
  19778033.9604  -25957527.43047 -20084035.59262
  23240812.616    -1157429.441 4    857184.57621
 93  5 21 18 13 29.9950000  0  6G18G19G27G15G 2G16
  22755558.7104   12635727.69245   9860578.49261
  20109463.6084   -4860666.77346  -3751869.60362
  18811414.4764  -20914700.14847 -16224845.95663
  23221698.7104   -1829295.80444  -1247998.46161
  19772969.1084  -25984165.31647 -20104792.39162
  23243302.6484   -1144361.50844    867367.35961
 93  5 21 18 13 44.9950000  0  6G18G19G27G15G 2G16
  22763358.7964   12676743.84444   9892539.00861
  20111163.585    -4851740.731 6  -3744914.27022
  18807773.9134  -20933833.43347 -16239755.00763
  23213434.5384   -1872735.85044  -1281847.77661
  19767906.8354  -26010757.22947 -20125513.35862
  23245801.999    -1131242.783 4    877589.70221
 93  5 21 18 13 59.9950000  0  6G18G19G27G15G 2G16
  22771173.679    12717770.220 4   9924507.49721
  20112871.312    -4842749.749 6  -3737908.32322
  18804148.1324  -20952883.98247 -16254599.59463
  23205177.2654   -1916116.75544  -1315651.02361
  19762854.3904  -26037303.86347 -20146199.04762
  23248310.679    -1118078.227 4    887847.76021
 93  5 21 18 14 14.9950000  0  6G18G19G27G15G 2G16
  22778983.655    12758809.765 5   9956486.26121
  20114597.773    -4833690.962 6  -3730849.54322
  18800542.1554  -20971849.09047 -16269377.60263
  23196931.4604   -1959436.77544  -1349406.82461
  19757813.1324  -26063799.45047 -20166844.95862
  23250820.9444   -1104864.37144    898144.22461
 93  5 21 18 14 29.9950000  0  6G18G19G27G15G 2G16
  22786795.9294   12799866.40445   9988478.37161
  20116330.499    -4824559.258 6  -3723733.94622
  18796948.0854  -20990727.39147 -16284087.96663
  23188695.827    -2002693.313 4  -1383113.16421
  19752780.4994  -26090236.85347 -20187445.52562
  23253337.1794   -1091597.71744    908481.82461
 93  5 21 18 14 44.9950000  0  6G18G19G27G15G 2G16
  22794605.0234   12840938.91145  10020482.81361
  20118086.9994   -4815353.16746  -3716560.37862
  18793371.7104  -21009521.16847 -16298732.46863
  23180484.2574   -2045885.74145  -1416769.57961
  19747761.3354  -26116616.48847 -20208001.08362
  23255869.507    -1078275.238 3    918862.92421
 93  5 21 18 14 59.9950000  0  6G18G19G27G15G 2G16
  22802428.2884   12882024.67445  10052497.60061
  20119849.163    -4806073.769 6  -3709329.69622
  18789812.3514  -21028231.43147 -16313311.89063
  23172273.280    -2089013.542 4  -1450375.61021
  19742752.1164  -26142939.73547 -20228512.70762
  23258421.382    -1064895.183 3    929288.90021
 93  5 21 18 15 14.9950000  0  6G18G19G27G15G 2G16
  22810257.9054   12923121.03145  10084520.63461
  20121633.1714   -4796722.73846  -3702043.18462
  18786267.4214  -21046858.92347 -16327826.81963
  23164069.929    -2132077.853 3  -1483932.18121
  19737751.7574  -26169205.83547 -20248979.79462
  23260985.9214   -1051462.80144    939755.65561
 93  5 21 18 15 29.9950000  0  6G18G19G27G15G 2G16
  22818069.429    12964230.334 5  10116553.74121
  20123426.671    -4787297.877 6  -3694699.15622
  18782738.4374  -21065402.25447 -16342276.17263
  23155897.499    -2175075.258 3  -1517436.63621
  19732767.3354  -26195411.25747 -20269399.59962
  23263551.194    -1037978.196 4    950263.11921
 93  5 21 18 15 44.9950000  0  6G18G19G27G15G 2G16
  22825902.4374   13005346.48045  10148592.18761
  20125233.741    -4777802.234 6  -3687299.96722
  18779222.2574  -21083867.45747 -16356664.63563
  23147722.163    -2218010.240 3  -1550892.43521
  19727789.3824  -26221558.33147 -20289773.93962
  23266118.1014   -1024448.35044    960805.82461
 93  5 21 18 15 59.9950000  0  6G18G19G27G15G 2G16
  22833719.851    13046473.297 5  10180638.91521
  20127052.9764   -4768227.76246  -3679839.35462
  18775727.1714  -21102246.11347 -16370985.66663
  23139560.163    -2260876.533 3  -1584294.72421
  19722827.3124  -26247641.51747 -20310098.50262
  23268709.0854   -1010867.85944    971388.00061
 93  5 21 18 16 14.9950000  0  6G18G19G27G15G 2G16
  22841553.2574   13087603.08945  10212688.02361
  20128890.101    -4758583.297 6  -3672324.20422
  18772243.9214  -21120542.35347 -16385242.48063
  23131424.0854   -2303680.96944  -1617648.76861
  19717875.2964  -26273669.48847 -20330380.03862
  23271299.1714    -997240.78444    982006.44161
 93  5 21 18 16 29.9950000  0  6G18G19G27G15G 2G16
  22849377.3664   13128737.96945  10244741.07661
  20130738.952    -4748867.047 6  -3664753.11122
  18768777.9764  -21138753.38847 -16399432.90063
  23123296.390    -2346421.247 5  -1650952.83921
  19712932.1714  -26299643.00147 -20350619.13662
  23273909.5774    -983562.94544    992664.50261
 93  5 21 18 16 44.9950000  0  6G18G19G27G15G 2G16
  22857208.3824   13169878.37745  10276798.40861
  20132601.069    -4739077.610 6  -3657125.00022
  18765332.2494  -21156875.74847 -16413554.22363
  23115173.601    -2389094.231 4  -1684204.44421
  19708000.4214  -26325562.76447 -20370816.35462
  23276517.3904    -969832.86443   1003363.17861
 93  5 21 18 16 59.9950000  0  6G18G19G27G15G 2G16
  22865037.429    13211021.155 5  10308857.62621
  20134475.101    -4729219.485 6  -3649443.35622
  18761900.1244  -21174911.25747 -16427607.86663
  23107058.4054   -2431702.50344  -1717405.63761
  19703075.8744  -26351433.68447 -20390975.50462
  23279137.366     -956056.386 3   1014098.08521
 93  5 21 18 17 14.9950000  0  6G18G19G27G15G 2G16
  22872869.9214   13252170.55645  10340921.97161
  20136365.835    -4719295.066 6  -3641710.05922
  18758484.1084  -21192857.67547 -16441592.09163
  23098968.2104   -2474245.37544  -1750555.93161
  19698165.2654  -26377254.76547 -20411095.82463
  23281770.5544    -942235.51543   1024867.56061
 93  5 21 18 17 29.9950000  0  6G18G19G27G15G 2G16
  22880701.1634   13293328.35544  10372992.86361
  20138265.812    -4709303.510 6  -3633924.44622
  18755084.1244  -21210713.54347 -16455505.75863
  23090882.5544   -2516722.33544  -1783654.84861
  19693261.3434  -26403026.79947 -20431177.92062
  23284405.5934    -928369.81043   1035671.93461
 93  5 21 18 17 44.9950000  0  6G18G19G27G15G 2G16
  22888532.968    13334492.001 4  10405068.28821
  20140181.4444   -4699247.33246  -3626088.47162
  18751702.2734  -21228481.22147 -16469350.70863
  23082814.1014   -2559134.72144  -1816703.40861
  19688366.0074  -26428752.86847 -20451224.21062
  23287049.4994    -914457.02243   1046513.04861
 93  5 21 18 17 59.9950000  0  6G18G19G27G15G 2G16
  22896358.491    13375661.748 4  10437148.49421
  20142107.523    -4689124.845 6  -3618200.83022
  18748341.8194  -21246157.39147 -16483124.34863
  23074755.2804   -2601480.98144  -1849700.46861
  19683476.6404  -26454432.89347 -20471234.61862
  23289709.280     -900493.464 3   1057393.69221
 93  5 21 18 18 14.9950000  0  6G18G19G27G15G 2G16
  22904197.124    13416838.060 4  10469233.82921
  20144043.866    -4678938.994 6  -3610263.83222
  18744996.3744  -21263742.22947 -16496826.81363
  23066710.6944   -2643761.28445  -1882646.13661
  19678597.4444  -26480069.13147 -20491210.90462
  23292380.976     -886477.844 3   1068314.95221
 93  5 21 18 18 29.9950000  0  6G18G19G27G15G 2G16
  22912039.702    13458018.750 4  10501322.56321
  20145993.921    -4668694.166 6  -3602280.86722
  18741666.6554  -21281238.96647 -16510460.64962
  23058680.8904   -2685977.45445  -1915541.78361
  19673728.0774  -26505661.43447 -20511152.95762
  23295045.9834    -872414.46543   1079273.39161
 93  5 21 18 18 44.9950000  0  6G18G19G27G15G 2G16
  22919876.9134   13499208.52945  10533418.41461
  20147956.585    -4658381.597 6  -3594245.12522
  18738352.0774  -21298642.30947 -16524021.69663
  23050658.124    -2728121.290 5  -1948381.08621
  19668869.7024  -26531200.08347 -20531053.19963
  23297737.577     -858299.457 3   1090272.08521
 93  5 21 18 18 59.9950000  0  6G18G19G27G15G 2G16
  22927722.530    13540398.382 5  10565514.26621
  20149931.2104   -4648006.09846  -3586160.32962
  18735057.8514  -21315962.06347 -16537517.61663
  23042644.913    -2770198.127 5  -1981168.16421
  19664018.7734  -26556688.97947 -20550914.66663
  23300431.1324    -844140.36743   1101305.09961
 93  5 21 18 19 14.9950000  0  6G18G19G27G15G 2G16
  22935553.796    13581590.009 5  10597611.51221
  20151919.569    -4637566.216 6  -3578025.37122
  18731778.3274  -21333195.72147 -16550946.43463
  23034654.5544   -2812206.06545  -2013901.58061
  19659178.8584  -26582126.43148 -20570736.06063
  23303136.4524    -829934.66443   1112374.43061
 93  5 21 18 19 29.9950000  0  6G18G19G27G15G 2G16
  22943396.530    13622785.804 5  10629712.03021
  20153916.023    -4627056.185 6  -3569835.75822
  18728514.4444  -21350335.90047 -16564302.42863
  23026678.2334   -2854139.61344  -2046577.04261
  19654350.5544  -26607506.66947 -20590512.87263
  23305846.366     -815673.955 2   1123486.65121
 93  5 21 18 19 44.9950000  0  6G18G19G27G15G 2G16
  22951226.4684   13663974.88044  10661807.29761
  20155929.280    -4616482.636 6  -3561596.64022
  18725271.3904  -21367390.06247 -16577591.38663
  23018707.983    -2896005.120 5  -2079199.48221
  19649526.6324  -26632835.19247 -20610249.37963
  23308569.4684    -801363.83642   1134637.33161
 93  5 21 18 19 59.9950000  0  6G18G19G27G15G 2G16
  22959072.921    13705155.896 5  10693896.27521
  20157953.429    -4605846.262 6  -3553308.57822
  18722041.2734  -21384359.88647 -16590814.63463
  23010750.5544   -2937803.81745  -2111769.79061
  19644721.2964  -26658110.73547 -20629944.60862
  23311303.3664    -787006.78442   1145824.61161
 93  5 21 18 20 14.9950000  0  6G18G19G27G15G 2G16
  22966902.2574   13746330.91545  10725980.52661
  20159991.319    -4595143.837 6  -3544969.03722
  18718827.7734  -21401241.63847 -16603969.24563
  23002811.2574   -2979533.05945  -2144286.07661
  19639920.9604  -26683327.59347 -20649594.10262
  23314053.3514    -772604.52443   1157047.09561
 93  5 21 18 20 29.9950000  0  6G18G19G27G15G 2G16
  22974742.148    13787502.817 5  10758062.41521
  20162039.9994   -4584371.50246  -3536575.04462
  18715635.5694  -21418030.91247 -16617051.79363
  22994883.530    -3021190.257 5  -2176746.15321
  19635133.9214  -26708480.45847 -20669193.74363
  23316797.202     -758158.630 3   1168303.68321
 93  5 21 18 20 44.9950000  0  6G18G19G27G15G 2G16
  22982569.5854   13828668.53544  10790139.45361
  20164104.8744   -4573529.91246  -3528127.08062
  18712455.8744  -21434731.29647 -16630065.08263
  22986965.1944   -3062779.00545  -2209152.91461
  19630361.6874  -26733572.60347 -20688746.05863
  23319554.194     -743675.361 3
 93  5 21 18 20 59.9950000  0  6G18G19G27G15G 2G16
  22990404.874    13869835.968 5  10822217.88621
  20166181.358    -4562614.410 6  -3519621.51522
  18709298.2964  -21451335.50147 -16643003.42163
  22979070.8194   -3104294.27345  -2241502.39761
  19625595.2184  -26758601.62147 -20708249.18862
  23322313.0304    -729147.33943
 93  5 21 18 21 14.9950000  0  6G18G19G27G15G 2G16
  22998242.8354   13911007.87145  10854299.74661
  20168272.569    -4551624.666 6  -3511058.10522
  18706154.5544  -21467839.98747 -16655864.07163
  22971188.905    -3145737.018 5  -2273795.40521
  19620846.6164  -26783569.52347 -20727704.69462
  23325087.437     -714575.327 2
 93  5 21 18 21 29.9950000  0  6G18G19G27G15G 2G16
  23006076.3194   13952185.77844  10886386.31261
  20170374.132    -4540562.079 6  -3502437.92422
  18703036.7654  -21484243.52547 -16668646.04663
  22963312.1084   -3187107.98245  -2306032.47761
  19616103.5624  -26808477.40047 -20747113.42562
  23327872.4444    -699960.01142        -0.40671
 93  5 21 18 21 44.9950000  0  6G18G19G27G15G 2G16
  23013916.1484   13993366.11844  10918474.75061
  20172497.241    -4529427.839 6  -3493761.92122
  18699929.7184  -21500553.90647 -16681355.43963
  22955448.1874   -3228410.73945  -2338216.40061
  19611377.5304  -26833328.49847 -20766477.91662
  23330658.2734    -685306.45942     11417.93961
 93  5 21 18 21 59.9950000  0  6G18G19G27G15G 2G16
  23021750.515    14034559.412 4  10950573.28221
  20174628.569    -4518211.849 6  -3485022.20022
  18696845.2024  -21516765.21347 -16693987.63163
  22947600.530    -3269636.799 4  -2370340.53821
  19606657.9604  -26858116.32447 -20785793.10462
  23333457.3744    -670608.14142     22871.11861
 93  5 21 18 22 14.9950000  0  6G18G19G27G15G 2G16
  23029591.3124   14075760.77644  10982678.12261
  20176781.429    -4506920.834 6  -3476224.02422
  18693778.9834  -21532883.36247 -16706547.22763
  22939773.835    -3310791.964 5  -2402409.41121
  19601953.0934  -26882848.52647 -20805064.95262
  23336264.210     -655871.962 2     34353.82321
 93  5 21 18 22 29.9950000  0  6G18G19G27G15G 2G16
  23037433.9054   14116975.18744  11014793.10861
  20178941.679    -4495552.321 6  -3467365.47222
  18690729.3194  -21548903.09847 -16719030.14463
  22931954.4834   -3351871.47344  -2434419.35361
  19597257.2184  -26907526.32747 -20824294.39962
  23339067.874     -641093.503 2     45869.41321
 93  5 21 18 22 44.9950000  0  6G18G19G27G15G 2G16
  23045276.3744   14158199.73745  11046916.03961
  20181120.749    -4484108.328 6  -3458448.08722
  18687700.6634  -21564827.74647 -16731438.96463
  22924153.202    -3392875.106 4  -2466370.16021
  19592569.8514  -26932154.33747 -20843485.05562
  23341890.515     -626270.241 3     57419.98821
 93  5 21 18 22 59.9950000  0  6G18G19G27G15G 2G16
  23053130.077    14199428.586 5  11079042.24821
  20183310.1084   -4472594.76146  -3449476.50662
  18684685.5384  -21580666.38847 -16743780.76163
  22916370.1014   -3433805.97245  -2498264.28461
  19587892.7024  -26956738.78447 -20862641.77162
  23344718.866     -611404.088 3     69003.90421
 93  5 21 18 23 14.9950000  0  6G18G19G27G15G 2G16
  23060970.8824   14240659.49645  11111170.11961
  20185518.218    -4461009.522 6  -3440449.06322
  18681686.3194  -21596419.28147 -16756055.73963
  22908594.6714   -3474662.36045  -2530100.36561
  19583224.4604  -26981278.60447 -20881763.70862
  23347563.632     -596494.261 3
 93  5 21 18 23 29.9950000  0  6G18G19G27G15G 2G16
  23068820.0624   14281884.00345  11143292.92361
  20187735.929    -4449355.787 6  -3431368.26322
  18678706.1084  -21612094.17947 -16768269.95763
  22900834.038    -3515448.255 5  -2561881.49921
  19578557.9834  -27005777.58647 -20900853.82362
  23350392.866     -581546.269 3
 93  5 21 18 23 44.9950000  0  6G18G19G27G15G 2G16
  23076664.2654   14323107.61045  11175415.13761
  20189965.1014   -4437628.25646  -3422229.95162
  18675739.4524  -21627685.57547 -16780419.09463
  22893081.0934   -3556156.12544  -2593601.85261
  19573907.4444  -27030229.46947 -20919907.23962
  23353258.960     -566553.028 3
 93  5 21 18 23 59.9950000  0  5G18G19G27G15G 2
  23084510.648    14364325.735 4  11207532.98121
  20192207.780    -4425831.222 6  -3413037.48822
  18672786.9444  -21643193.50047 -16792503.20063
  22885352.023    -3596789.766 4  -2625264.36321
  19569264.7024  -27054638.27847 -20938927.09362
 93  5 21 18 24 14.9950000  0  5G18G19G27G15G 2
  23092351.0464   14405537.85044  11239646.19661
  20194469.296    -4413966.267 6  -3403792.08722
  18669853.5304  -21658612.17047 -16804517.75463
  22877631.429    -3637347.873 4  -2656868.02121
  19564627.2184  -27079003.16647 -20957912.71462
 93  5 21 18 24 29.9950000  0  7G18G19G27G15G 2G26G16
  23100192.1714   14446745.55044  11271755.92861
  20196738.9684   -4402029.77546  -3394490.96262
  18666937.3904  -21673935.15147 -16816457.73963
  22869935.2414   -3677826.33844  -2688409.61561
  19559999.6324  -27103321.02647 -20976861.69562
  22727990.4834         -0.83253
  23361860.804          -0.91312
 93  5 21 18 24 44.9950000  0  7G18G19G27G15G 2G26G16
  23108023.4604   14487940.86044  11303856.02761
  20199025.405    -4390028.910 6  -3385139.65322
  18664039.8514  -21689168.14447 -16828327.60263
  22862247.585    -3718231.757 4  -2719894.28821
  19555377.1634  -27127597.07447 -20995778.08862
  22717202.7804     -56690.59744
  23364746.319       15140.472 2
 93  5 21 18 24 59.9950000  0  7G18G19G27G15G 2G26G16
  23115862.296    14529129.414 4  11335950.84821
  20201319.312    -4377958.557 6  -3375734.20422
  18661158.7574  -21704306.97547 -16840124.09063
  22854565.7884   -3758559.44444  -2751318.39861
  19550769.4684  -27151822.67447 -21014655.18262
  22706429.0464    -113303.28044
  23367626.296       30315.826 2
 93  5 21 18 25 14.9950000  0  6G18G19G27G15G 2G26
  23123697.788    14570316.643 4  11368044.66121
  20203634.3434   -4365814.96346  -3366271.68562
  18658297.1014  -21719344.11547 -16851841.34863
  22846913.476    -3798806.910 5  -2782679.97221
  19546165.7104  -27175995.13647 -21033490.86462
  22695671.0934    -169834.11344
 93  5 21 18 25 29.9950000  0  6G18G19G27G15G 2G26
  23131542.0934   14611503.08544  11400137.85561
  20205952.8744   -4353599.40246  -3356753.10762
  18655457.5544  -21734274.36247 -16863475.31063
  22839268.9444   -3838974.87545  -2813979.62961
  19541578.4134  -27200116.19847 -21052286.50462
  22684927.937     -226283.176 5
 93  5 21 18 25 44.9950000  0  6G18G19G27G15G 2G26
  23139380.726    14652689.143 4  11432230.75221
  20208293.5934   -4341318.16646  -3347183.31262
  18652635.1714  -21749099.17047 -16875027.11463
  22831640.202    -3879065.754 5  -2845219.21021
  19536997.5854  -27224189.73047 -21071045.09562
  22674200.5234    -282654.31345        -0.03771
 93  5 21 18 25 59.9940000  0  6G18G19G27G15G 2G26
  23147220.104    14693868.741 5  11464318.59821
  20210640.1744   -4328975.41046  -3337565.60362
  18649834.8934  -21763819.52447 -16886497.51963
  22824029.440    -3919078.836 5  -2876398.15021
  19532424.7914  -27248215.96547 -21089766.84062
  22663485.596     -338945.980 5    -43863.60121
 93  5 21 18 26 14.9940000  0  6G18G19G27G15G 2G26
  23155060.3464   14735050.43144  11496408.09461
  20213005.838    -4316562.810 6  -3327893.46922
  18647053.1974  -21778433.43947 -16897884.99062
  22816418.3934   -3959013.63244  -2907516.11961
  19527863.9554  -27272191.68447 -21108449.21762
  22652790.8854    -395159.18245    -87666.03861
 93  5 21 18 26 29.9940000  0  7G18G19G27G15G 2G26G16
  23162894.3154   14776229.39544  11528495.41061
  20215373.658    -4304084.053 6  -3318169.77322
  18644290.8934  -21792946.20647 -16909193.63762
  22808834.604    -3998868.695 4  -2938571.96521
  19523309.1044  -27296116.67947 -21127092.06762
  22642109.666     -451295.212 5   -131408.35721
  23385107.088       15387.041 3
 93  5 21 18 26 44.9940000  0  7G18G19G27G15G 2G26G16
  23170724.3774   14817403.96644  11560579.35561
  20217764.049    -4291541.309 6  -3308396.22022
  18641547.3074  -21807362.61447 -16920427.20662
  22801266.080    -4038646.194 4  -2969567.34721
  19518768.0884  -27319992.47747 -21145696.58963
  22631440.7214    -507356.36045   -175092.32861
  23388034.580       30811.704 2
 93  5 21 18 26 59.9940000  0  7G18G19G27G15G 2G26G16
  23178560.6974   14858578.10844  11592662.92661
  20220160.4864   -4278927.99446  -3298567.68062
  18638821.0254  -21821682.35847 -16931585.45262
  22793717.6744   -4078341.46945  -3000498.69461
  19514235.1504  -27343813.05247 -21164258.07063
  22620789.252     -563336.737 5   -218713.34121
  23390980.002       46279.577 2
 93  5 21 18 27 14.9940000  0  7G18G19G27G15G 2G26G16
  23186391.002    14899743.872 4  11624740.00021
  20222580.916    -4266245.109 6  -3288684.94322
  18636114.8224  -21835911.68247 -16942673.25062
  22786179.2134   -4117958.36845  -3031368.93561
  19509711.6744  -27367584.62147 -21182781.37563
  22610151.158     -619240.156 5   -262274.41921
  23393929.018       61788.359 2
 93  5 21 18 27 29.9940000  0  7G18G19G27G15G 2G26G16
  23194224.354    14940905.095 3  11656813.53021
  20225004.635    -4253487.058 6  -3278743.62322
  18633423.2294  -21850046.83947 -16953687.67062
  22778653.2214   -4157492.14045  -3062174.40361
  19505194.8934  -27391303.14147 -21201263.33163
  22599528.072     -675063.625 5   -305773.18121
  23396882.3074      77344.96742
 93  5 21 18 27 44.9940000  0  7G18G19G27G15G 2G26G16
  23202056.5104   14982058.95544  11688881.29661
  20227448.283    -4240656.283 6  -3268745.65322
  18630752.5184  -21864094.53947 -16964633.92762
  22771149.8304   -4196944.23045  -3092916.23161
  19500694.1824  -27414967.97747 -21219703.46163
  22588918.604     -730812.518 5   -349213.85221
  23399859.244       92944.747 2        -0.29731
 93  5 21 18 27 59.9940000  0  7G18G19G27G15G 2G26G16
  23209887.143    15023200.942 4  11720939.86221
  20229902.588    -4227752.032 6  -3258690.40522
  18628092.8854  -21878057.96747 -16975514.53362
  22763661.088    -4236315.527 5  -3123595.12721
  19496201.9404  -27438578.98347 -21238101.64663
  22578323.9474    -786488.86845   -392597.97761
  23402833.6824     108583.71842
 93  5 21 18 28 14.9940000  0  7G18G19G27G15G 2G26G16
  23217716.510    15064330.474 4  11752988.65721
  20232375.3464   -4214773.31646  -3248577.15662
  18625454.1664  -21891935.81847 -16986328.44662
  22756177.7834   -4275606.09345  -3154211.09961
  19491719.0494  -27462136.44247 -21256458.10262
  22567739.4324    -842093.54645   -435926.26261
  23405820.1664     124262.38443
 93  5 21 18 28 29.9940000  0  7G18G19G27G15G 2G26G16
  23225538.5804   15105447.83943  11785028.02061
  20234858.6744   -4201722.64946  -3238407.81662
  18622829.768   -21905727.916 7 -16997075.54722
  22748718.940    -4314817.481 5  -3184765.37721
  19487243.9554  -27485644.60847 -21274776.15762
  22557169.2914    -897629.09645   -479200.70361
  23408808.5254     139978.49843
 93  5 21 18 28 44.9940000  0  7G18G19G27G15G 2G26G16
  23233361.1114   15146560.37143  11817063.59261
  20237355.338    -4188595.309 6  -3228178.73722
  18620219.0964  -21919427.88947 -17007750.85862
  22741261.1744   -4353943.05945  -3215252.80061
  19482781.6584  -27509098.90047 -21293052.22663
  22546617.416     -953089.042 5   -522416.21521
  23411803.0254     155735.97643
 93  5 21 18 28 59.9940000  0  7G18G19G27G15G 2G26G16
  23241179.8934   15187665.90243  11849093.70561
  20239868.518    -4175391.700 6  -3217890.24322
  18617631.7604  -21933037.43847 -17018355.69962
  22733835.611    -4392985.164 5  -3245675.17221
  19478329.5184  -27532502.89047 -21311289.09663
  22536074.3384   -1008474.05645   -565573.33761
  23414813.5964     171529.21643
 93  5 21 18 29 14.9940000  0  7G18G19G27G15G 2G26G16
  23249011.0414   15228761.31144  11881115.93961
  20242394.643    -4162116.613 6  -3207546.02822
  18615057.932   -21946558.438 7 -17028891.55522
  22726421.2834   -4431946.93245  -3276034.94361
  19473883.0964  -27555860.98447 -21329490.20363
  22525551.572    -1063789.503 5   -608676.24921
  23417820.346      187350.598 3
 93  5 21 18 29 29.9940000  0  7G18G19G27G15G 2G26G16
  23256824.736    15269852.434 3  11913134.79521
  20244933.057    -4148769.740 6  -3197145.88722
  18612502.9554  -21959983.15547 -17039352.37362
  22719029.315    -4470824.091 5  -3306328.78421
  19469447.5414  -27579170.36047 -21347653.35162
  22515041.775    -1119031.754 5   -651722.12621
  23420836.4244     203203.39842
 93  5 21 18 29 44.9940000  0  7G18G19G27G15G 2G26G16
  23264649.9554   15310941.46343  11945152.07361
  20247490.190    -4135351.772 6  -3186690.34122
  18609968.6354  -21973308.41447 -17049735.69263
  22711653.7524   -4509615.31145  -3336555.66061
  19465021.4084  -27602430.16047 -21365777.86863
  22504543.447    -1174200.239 5   -694710.52921
  23423855.283      219086.346 2        -0.30231
 93  5 21 18 29 59.9940000  0  7G18G19G27G15G 2G26G16
  23272459.8934   15352020.88043  11977161.82661
  20250054.424    -4121868.772 6  -3176184.12622
  18607450.268   -21986538.430 7 -17060044.80923
  22704283.502    -4548324.989 5  -3366719.01921
  19460604.1904  -27625645.12047 -21383867.44563
  22494057.6824   -1229298.66445   -737644.32661
  23426885.111      234990.343 2
 93  5 21 18 30 14.9940000  0  7G18G19G27G15G 2G26G16
  23280273.940    15393096.475 3  12009168.62221
  20252634.330    -4108314.731 6  -3165622.56122
  18604953.3934  -21999667.14747 -17070274.98063
  22696931.072    -4586948.968 5  -3396815.60321
  19456196.9004  -27648810.64947 -21401918.50963
  22483588.2754   -1284320.22945   -780518.25061
  23429928.932      250918.331 2
 93  5 21 18 30 29.9940000  0  7G18G19G27G15G 2G26G16
  23288083.3694   15434168.01543  12041172.23161
  20255225.6434   -4094690.81046  -3155006.54762
  18602472.1504  -22012696.68847 -17080427.87263
  22689592.682    -4625488.222 5  -3426846.20121
  19451795.8614  -27671925.82447 -21419930.33363
  22473130.3304   -1339264.47945   -823331.91161
  23432966.525      266867.890 2
 93  5 21 18 30 44.9940000  0  7G18G19G27G15G 2G26G16
  23295907.9554   15475230.58443  12073168.86561
  20257832.119    -4080999.003 6  -3144337.62122
  18600012.5654  -22025630.39047 -17090506.09063
  22682282.9944   -4663945.29145  -3456812.72361
  19447406.6434  -27694991.76547 -21437903.79663
  22462690.1824   -1394131.43045   -866085.33961
  23435996.2134     282836.24341
 93  5 21 18 30 59.9940000  0  6G18G19G27G15G 2G26
  23303712.3694   15516289.73343  12105162.87861
  20260445.9944   -4067230.36346  -3133608.83262
  18597569.4004  -22038462.36247 -17100505.03363
  22674974.6824   -4702312.43745  -3486709.16461
  19443027.6274  -27717998.84747 -21455831.38863
  22452266.7054   -1448911.06645   -908770.73561
 93  5 21 18 31 14.9940000  0  6G18G19G27G15G 2G26
  23311533.963    15557339.145 3  12137149.23721
  20263086.979    -4053388.476 6  -3122822.97222
  18595146.4554  -22051194.99947 -17110426.57863
  22667695.791    -4740593.916 5  -3516538.85821
  19438661.4634  -27740950.24647 -21473715.59963
  22441860.5964   -1503608.87445   -951392.36261
 93  5 21 18 31 29.9940000  0  6G18G19G27G15G 2G26
  23319347.565    15598372.787 4  12169123.32821
  20265727.1744   -4039477.46446  -3111983.23962
  18592742.4714  -22063831.72647 -17120273.37563
  22660425.440    -4778793.526 5  -3546304.75721
  19434302.3934  -27763850.26647 -21491559.77563
  22431467.1584   -1558228.34945   -993952.96561
 93  5 21 18 31 44.9940000  0  6G18G19G27G15G 2G26
  23327147.994    15639392.591 3  12201086.65421
  20268392.963    -4025496.526 6  -3101089.02722
  18590355.1664  -22076371.01747 -17130044.25063
  22653167.5964   -4816908.94745  -3576005.03061
  19429957.7834  -27786696.21047 -21509361.81062
  22421088.0494   -1612767.44745  -1036450.93661
 93  5 21 18 31 59.9940000  0  6G18G19G27G15G 2G26
  23334958.3544   15680400.86744  12233040.96761
  20271066.119    -4011442.742 6  -3090138.03922
  18587989.6584  -22088810.86647 -17139737.64363
  22645934.8074   -4854936.85545  -3605637.14561
  19425621.3304  -27809482.74247 -21527117.54662
  22410723.7834   -1667222.93745  -1078883.74961
 93  5 21 18 32 14.9940000  0  6G18G19G27G15G 2G26
  23342740.908    15721396.517 3  12264985.42821
  20273753.713    -3997317.016 6  -3079131.00922
  18585640.2834  -22101153.00947 -17149354.90163
  22638711.299    -4892878.035 5  -3635201.66121
  19421294.1044  -27832211.42047 -21544828.20362
  22400371.838    -1721596.008 5  -1121252.33721
 93  5 21 18 32 29.9940000  0  6G18G19G27G15G 2G26
  23350550.916    15762377.889 3  12296918.81621
  20276454.119    -3983122.789 6  -3068070.58922
  18583309.9634  -22113397.47847 -17158896.05063
  22631506.729    -4930732.390 5  -3664698.54721
  19416981.1824  -27854886.10247 -21562496.78862
  22390044.260    -1775886.210 5  -1163556.37321
 93  5 21 18 32 44.9940000  0  6G18G19G27G15G 2G26
  23358347.416    15803347.865 4  12328843.27021
  20279168.744    -3968857.652 6  -3056954.91122
  18580998.7914  -22125539.99447 -17168357.74863
  22624320.143    -4968493.718 5  -3694122.94421
  19412675.885   -27877504.776 7 -21580121.73622
  22379733.002    -1830090.009 6  -1205793.07421
 93  5 21 18 32 59.9940000  0  6G18G19G27G15G 2G26
  23366147.4794   15844300.78444  12360754.46961
  20281891.3854   -3954530.93446  -3045791.27962
  18578705.1744  -22137589.13947 -17177746.70063
  22617150.8934   -5006168.56545  -3723479.94161
  19408382.6044  -27900077.75547 -21597711.06762
  22369432.4004   -1884216.93546  -1247969.87061
 93  5 21 18 33 14.9940000  0  6G18G19G27G15G 2G26
  23373935.268    15885237.006 5  12392652.57821
  20284638.1584   -3940143.15746  -3034580.04362
  18576433.8614  -22149546.21547 -17187063.89463
  22609999.1664   -5043756.93445  -3752769.54161
  19404094.7914  -27922607.53647 -21615266.74262
  22359147.3224   -1938271.32745  -1290090.13861
 93  5 21 18 33 29.9940000  0  6G18G19G27G15G 2G26
  23381717.783    15926159.002 4  12424539.65021
  20287384.0654   -3925694.20946  -3023321.14562
  18574176.0254  -22161409.70747 -17196308.18063
  22602869.5414   -5081258.32445  -3781991.38261
  19399813.4944  -27945093.43447 -21632788.22262
  22348876.7834   -1992250.98246  -1332152.17161
 93  5 21 18 33 44.9940000  0  6G18G19G27G15G 2G26
  23389507.455    15967070.566 4  12456418.61521
  20290146.174    -3911183.144 6  -3012013.85822
  18571934.1974  -22173175.52347 -17205476.35863
  22595749.1744   -5118669.16145  -3811142.61961
  19395544.9714  -27967532.06147 -21650272.87162
  22338616.025    -2046150.590 5  -1374151.85321
 93  5 21 18 33 59.9940000  0  6G18G19G27G15G 2G26
  23397281.5964   16007968.05943  12488286.59361
  20292916.291    -3896613.196 6  -3000660.66122
  18569716.2914  -22184846.17847 -17214570.37163
  22588646.4794   -5155992.29745  -3840225.50161
  19391283.2914  -27989927.59747 -21667723.94262
  22328372.9794   -2099972.93545  -1416091.31661
 93  5 21 18 34 14.9940000  0  6G18G19G27G15G 2G26
  23405075.7214   16048849.46043  12520142.03461
  20295705.674    -3881979.315 6  -2989257.65722
  18567510.0334  -22196424.07247 -17223592.10563
  22581558.713    -5193226.980 5  -3869239.48621
  19387030.4164  -28012282.34647 -21685143.22762
  22318149.080    -2153715.462 5  -1457968.58721
 93  5 21 18 34 29.9940000  0  6G18G19G27G15G 2G26
  23412849.416    16089714.910 3  12551985.06321
  20298498.2994   -3867280.10546  -2977803.75462
  18565326.7134  -22207909.22147 -17232541.57463
  22574484.361    -5230373.103 5  -3898184.48021
  19382782.5804  -28034598.34547 -21702532.31063
  22307936.2444   -2207377.78145  -1499783.34961
 93  5 21 18 34 44.9940000  0  6G18G19G27G15G 2G26
  23420597.666    16130564.981 3
  20301311.9714   -3852515.18346  -2966298.63562
  18563158.1664  -22219300.86147 -17241418.18063
  22567437.760    -5267431.486 5  -3927061.11421
  19378541.7604  -28056876.11147 -21719891.60663
  22297739.3934   -2260960.04345  -1541535.72261
 93  5 21 18 34 59.9940000  0  6G18G19G27G15G 2G26
  23428382.3224   16171404.53843
  20304129.525    -3837675.512 6  -2954735.27422
  18561009.4474  -22230592.26547 -17250216.68463
  22560403.7914   -5304397.87445  -3955866.04161
  19374312.4714  -28079110.37847 -21737217.01563
  22287557.9944   -2314457.85845  -1583222.30561
 93  5 21 18 35 14.9940000  0  6G18G19G27G15G 2G26
  23436161.3464   16212232.32443
  20306972.7054   -3822758.85646  -2943111.94062
  18558880.2134  -22241778.57847 -17258933.28463
  22553390.182    -5341272.492 5  -3984599.46021
  19370087.2684  -28101300.31247 -21754507.87163
  22277391.4084   -2367868.05745  -1624840.60661
 93  5 21 18 35 29.9940000  0  6G18G19G27G15G 2G26
  23443913.4244   16253042.40443
  20309822.627    -3807767.746 6  -2931430.57022
  18556771.2364  -22252859.45247 -17267567.73063
  22546391.7294   -5378058.76545  -4013264.08361
  19365872.5414  -28123446.87647 -21771764.93563
  22267242.705    -2421189.732 5  -1666389.92321
 93  5 21 18 35 44.9940000  0  6G18G19G27G15G 2G26
  23451677.9004   16293836.27442
  20312693.1354   -3792702.13046  -2919691.16362
  18554684.3154  -22263832.56847 -17276118.22063
  22539405.4794   -5414754.00345  -4041857.72861
  19361670.4164  -28145547.24247 -21788985.99863
  22257118.5334   -2474419.94845  -1707867.99361
 93  5 21 18 35 59.9940000  0  6G18G19G27G15G 2G26
  23459438.752    16334611.042 2
  20315573.596    -3777563.261 6  -2907894.66721
  18552613.8694  -22274700.51447 -17284586.75763
  22532438.010    -5451359.392 5  -4070381.36421
  19357470.0494  -28167605.04447 -21806173.89363
  22247009.885    -2527565.225 6  -1749279.84521
 93  5 21 18 36 14.9940000  0  6G18G19G27G15G 2G26
  23467200.971    16375370.620 3
  20318469.463    -3762345.450 6  -2896036.64721
  18550566.9244  -22285463.24347 -17292973.30462
  22525492.6354   -5487871.35945  -4098832.21761
  19353283.3934  -28189616.44147 -21823325.62963
  22236908.572    -2580621.607 6  -1790622.43021
 93  5 21 18 36 29.9940000  0  6G18G19G27G15G 2G26
  23474961.8154   16416117.35744        -0.34571
  20321376.7604   -3747049.21846  -2884117.52861
  18548539.4794  -22296117.79447 -17301275.55562
  22518561.572    -5524287.822 5  -4127208.60721
  19349103.2054  -28211577.83247 -21840438.39863
  22226829.346    -2633587.748 6  -1831894.73121
 93  5 21 18 36 44.9940000  0  6G18G19G27G15G 2G26
  23482705.135    16456844.236 4     31734.70321
  20324301.799    -3731686.683 6  -2872146.74021
  18546531.7214  -22306668.15947 -17309496.62263
  22511647.721    -5560615.680 5  -4155515.96021
  19344934.5804  -28233495.58747 -21857517.15863
  22216767.018    -2686471.858 6  -1873103.07821
 93  5 21 18 36 59.9940000  0  6G18G19G27G15G 2G26
  23490448.5104   16497554.85843     63457.06461
  20327236.2364   -3716253.52846  -2860120.93561
  18544545.7754  -22317109.53147 -17317632.76463
  22504755.8154   -5596848.84345  -4183749.57661
  19340772.6114  -28255363.17647 -21874556.84963
  22206720.033    -2739269.103 6  -1914243.76621
 93  5 21 18 37 14.9940000  0  6G18G19G27G15G 2G26
  23498193.5654   16538249.24943     95166.80961
  20330188.8464   -3700752.15746  -2848041.97262
  18542578.4324  -22327444.89147 -17325686.30063
  22497876.6664   -5632986.59945  -4211908.83361
  19336620.8154  -28277179.84147 -21891556.84562
  22196691.6824   -2791979.72446  -1955316.93961
 93  5 21 18 37 29.9940000  0  6G18G19G27G15G 2G26
  23505930.4794   16578926.45043    126863.10261
  20333147.8934   -3685185.69446  -2835912.30062
  18540629.2914  -22337681.09147 -17333662.55863
  22491015.9084   -5669029.14445  -4239993.91261
  19332480.9404  -28298943.96747 -21908515.91762
  22186674.8464   -2844606.63946  -1996324.89061
 93  5 21 18 37 44.9940000  0  6G18G19G27G15G 2G26
  23513672.4634   16619584.19043    158544.29561
  20336127.588    -3669557.666 6  -2823734.63322
  18538699.1664  -22347825.92547 -17341567.62963
  22484173.744    -5704979.402 5  -4268007.04621
  19328347.0494  -28320658.49247 -21925436.31863
  22176675.815    -2897156.770 6  -2037273.00321
 93  5 21 18 37 59.9940000  0  6G18G19G27G15G 2G26
  23521407.479    16660226.516 3    190213.45321
  20339111.307    -3653864.221 6  -2811505.99421
  18536787.6974  -22357878.12947 -17349400.50963
  22477348.658    -5740834.821 5  -4295946.27121
  19324224.2214  -28342322.56347 -21942317.41063
  22166692.4404   -2949629.89446  -2078161.12061
 93  5 21 18 38 14.9940000  0  7G18G19G27G15G 2G26G13
  23529135.494    16700849.024 3    221867.11121
  20342109.768    -3638107.742 6  -2799228.24222
  18534892.7754  -22367841.63747 -17357164.28963
  22470544.4084   -5776598.74645  -4323814.21861
  19320110.2524  -28363940.31247 -21959162.41163
  22156720.354    -3002027.359 5  -2118990.26921
  23261219.8544         -0.16453
 93  5 21 18 38 29.9940000  0  7G18G19G27G15G 2G26G13
  23536858.291    16741454.913 3    253507.83621
  20345117.8224   -3622284.62646  -2786898.58061
  18533014.8544  -22377711.45247 -17364855.05963
  22463757.4864   -5812266.73745  -4351607.43461
  19316006.9554  -28385506.08947 -21975966.91263
  22146764.9474   -3054343.21146  -2159755.84361
  23246881.5184     -75332.08443
 93  5 21 18 38 44.9940000  0  7G18G19G27G15G 2G26G13
  23544596.2834   16782040.68844
  20348144.5184   -3606398.95346  -2774520.13861
  18531152.8224  -22387489.65347 -17372474.44263
  22456988.244    -5847842.774 5  -4379328.96521
  19311911.1274  -28407025.78947 -21992735.51063
  22136825.6434   -3106581.84246  -2200461.23561
  23232544.1354    -150674.97043
 93  5 21 18 38 59.9940000  0  7G18G19G27G15G 2G26G13
  23552310.4714   16822615.01543
  20351179.768    -3590439.375 6  -2762084.13221
  18529312.2054  -22397168.48247 -17380016.38663
  22450238.3854   -5883318.28945  -4406972.18461
  19307826.8304  -28428490.55447 -22009461.30063
  22126897.4164   -3158734.99745  -2241100.02961
  23218203.8694    -226020.25043
 93  5 21 18 39 14.9940000  0  7G18G19G27G15G 2G26G13
  23560025.143    16863172.385 3
  20354232.6504   -3574406.70746  -2749591.17361
  18527487.7134  -22406753.06347 -17387484.89463
  22443498.1584   -5918697.76344  -4434540.58161
  19303754.6504  -28449903.40847 -22026146.63763
  22116987.3304   -3210805.73245  -2281674.58961
  23203873.7294    -301372.44344
 93  5 21 18 39 29.9940000  0  7G18G19G27G15G 2G26G13
  23567738.877    16903712.475 3
  20357292.4244   -3558299.94146  -2737040.47861
  18525682.1194  -22416243.89047 -17394880.35363
  22436789.807    -5953981.430 4  -4462034.31421
  19299689.9634  -28471262.80447 -22042790.32363
  22107094.729    -3262793.151 5  -2322184.23221
  23189526.4554    -376731.65743
 93  5 21 18 39 44.9940000  0  7G18G19G27G15G 2G26G13
  23575448.002    16944239.818 3
  20360377.260    -3542112.450 6  -2724426.88621
  18523894.619   -22425632.186 7 -17402195.91723
  22430092.5884   -5989165.51044  -4489450.44361
  19295634.0494  -28492566.13147 -22059390.31763
  22097219.963    -3314690.996 5  -2362624.08421
  23175176.5574    -452093.89342
 93  5 21 18 39 59.9940000  0  7G18G19G27G15G 2G26G13
  23583167.150    16984754.974 4
  20363469.4864   -3525845.52146  -2711751.40261
  18522129.1434  -22434913.14447 -17409427.83963
  22423416.854    -6024249.984 4  -4516788.97221
  19291589.4324  -28513816.05847 -22075948.70163
  22087363.3464   -3366494.22645  -2402990.21461
  23160848.9554    -527459.04943
 93  5 21 18 40 14.9940000  0  7G18G19G27G15G 2G26G13
  23590874.8074   17025249.41343        -0.44271
  20366582.557    -3509506.093 6  -2699019.38521
  18520380.4164  -22444091.86547 -17416580.09263
  22416754.611    -6059239.455 5  -4544053.45121
  19287554.2294  -28535020.55547 -22092471.68563
  22077521.986    -3418206.365 5  -2443285.33321
  23146508.2754    -602831.90544
 93  5 21 18 40 29.9940000  0  7G18G19G27G15G 2G26G13
  23598568.619    17065724.705 3     31538.51521
  20369708.1744   -3493090.05346  -2686227.70061
  18518656.6904  -22453165.06947 -17423650.12963
  22410122.1274   -6094129.13045  -4571240.16961
  19283529.7834  -28556176.11947 -22108956.54562
  22067696.174    -3469821.385 5  -2483504.80321
  23132160.2214    -678207.45744
 93  5 21 18 40 44.9940000  0  7G18G19G27G15G 2G26G13
  23606271.7684   17106175.69343     63058.56661
  20372844.479    -3476602.666 6  -2673380.41321
  18516948.1824  -22462136.08147 -17430640.53463
  22403501.744    -6128924.159 5  -4598353.14921
  19279511.6274  -28577290.31847 -22125409.16563
  22057894.924    -3521345.178 5  -2523653.19821
  23117809.3464    -753590.85844
 93  5 21 18 40 59.9940000  0  7G18G19G27G15G 2G26G13
  23613963.330    17146607.092 3     94563.39021
  20375992.854    -3460040.690 6  -2660474.98821
  18515261.8154  -22471001.29647 -17437548.49763
  22396896.0184   -6163619.96345  -4625388.77861
  19275502.2754  -28598359.05348 -22141826.36363
  22048113.971    -3572773.038 5  -2563726.83221
  23103472.1044    -828977.50744        -0.48271
 93  5 21 18 41 14.9940000  0  7G18G19G27G15G 2G26G13
  23621658.666    17187016.159 3    126050.81821
  20379164.205    -3443406.051 6  -2647512.96221
  18513594.8854  -22479762.23747 -17444375.20863
  22390316.8544   -6198216.81545  -4652347.31761
  19271500.7134  -28619383.50247 -22158209.04463
  22038339.174    -3624104.909 5  -2603725.66921
  23089118.5804    -904367.68644
 93  5 21 18 41 29.9940000  0  7G18G19G27G15G 2G26G13
  23629355.9164   17227399.76943    157518.32061
  20382339.7444   -3426703.78146  -2634498.23961
  18511945.893   -22488421.374 7 -17451122.59723
  22383748.479    -6232716.143 5  -4679229.83221
  19267507.7834  -28640369.36647 -22174561.66763
  22028591.885    -3675340.725 5  -2643649.64321
  23074774.4164    -979762.73543
 93  5 21 18 41 44.9940000  0  7G18G19G27G15G 2G26G13
  23637020.1584   17267758.06943    188966.13761
  20385532.283    -3409937.011 6  -2621433.24322
  18510316.8774  -22496978.96847 -17457790.85863
  22377208.6274   -6267118.42945  -4706036.78961
  19263521.2524  -28661321.14547 -22190887.72563
  22018857.9084   -3726482.38645  -2683500.25661
  23060417.2444   -1055163.05743
 93  5 21 18 41 59.9940000  0  7G18G19G27G15G 2G26G13
  23644697.4864   17308088.58943    220392.32061
  20388730.8774   -3393106.90746  -2608318.90861
  18508708.5104  -22505435.77647 -17464380.57863
  22370674.447    -6301423.943 5  -4732768.32321
  19259541.0804  -28682241.73747 -22207189.48563
  22009141.580    -3777531.350 5  -2723278.64921
  23046066.9554   -1130568.83942
 93  5 21 18 42 14.9940000  0  7G18G19G27G15G 2G26G13
  23652358.377    17348391.635 3    251797.13021
  20391949.869    -3376211.811 6  -2595153.92521
  18507118.5724  -22513792.48547 -17470892.30763
  22364163.650    -6335629.510 5  -4759421.97521
  19255565.6194  -28703127.49447 -22223464.09963
  21999450.518    -3828486.620 5  -2762984.02721
  23031717.9794   -1205976.66742
 93  5 21 18 42 29.9940000  0  7G18G19G27G15G 2G26G13
  23660028.361    17388669.108 3
  20395177.658    -3359248.230 6  -2581935.57421
  18505548.9164  -22522049.18347 -17477326.09763
  22357677.9404   -6369733.37945  -4785996.37661
  19251598.3614  -28723974.31947 -22239708.38363
  21989771.330    -3879347.077 5  -2802615.54221
  23017374.6504   -1281384.52342
 93  5 21 18 42 44.9940000  0  7G18G19G27G15G 2G26G13
  23667689.9944   17428926.19543
  20398419.166    -3342215.617 6  -2568663.43021
  18503995.377   -22530201.440 7 -17483678.51523
  22351207.096    -6403734.717 5  -4812490.89521
  19247640.1044  -28744776.57047 -22255917.92663
  21980113.150    -3930111.060 6  -2842171.87421
  23003018.7294   -1356791.77542
 93  5 21 18 42 59.9940000  0  7G18G19G27G15G 2G26G13
  23675347.3694   17469160.38543
  20401671.4004   -3325118.56246  -2555341.08061
  18502464.0414  -22538251.23247 -17489951.08763
  22344754.221    -6437636.943 5  -4838908.15521
  19243691.6434  -28765534.95248 -22272093.28363
  21970469.1434   -3980781.82146  -2881655.54561
  22988674.2914   -1432201.65643
 93  5 21 18 43 14.9940000  0  7G18G19G27G15G 2G26G13
  23683003.557    17509373.874 3        -0.42731
  20404939.2754   -3307956.39246  -2541967.99661
  18500951.7134  -22546197.88347 -17496143.28163
  22338321.690    -6471438.058 5  -4865246.64521
  19239748.3694  -28786245.37947 -22288231.28063
  21960843.541    -4031356.265 6  -2921064.15821
  22974320.7914   -1507612.32143
 93  5 21 18 43 29.9940000  0  7G18G19G27G15G 2G26G13
  23690650.8774   17549567.64043     31319.22661
  20408214.8544   -3290725.33946  -2528541.23461
  18499458.0334  -22554035.67747 -17502250.65763
  22331911.869    -6505135.232 5  -4891504.12521
  19235817.7684  -28806904.19647 -22304329.05963
  21951236.346    -4081831.735 6  -2960395.67621
  22959977.4794   -1583020.70344
 93  5 21 18 43 44.9940000  0  7G18G19G27G15G 2G26G13
  23698293.471    17589737.714 2     62620.38221
  20411510.0414   -3273428.79446  -2515063.43261
  18497988.3384  -22561768.63347 -17508276.34563
  22325516.268    -6538732.274 5  -4917683.60321
  19231896.9244  -28827511.80247 -22320386.93263
  21941650.1664   -4132214.37546  -2999654.83761
  22945625.9324   -1658430.62444
 93  5 21 18 43 59.9940000  0  7G18G19G27G15G 2G26G13
  23705920.361    17629883.676 2     93902.69421
  20414808.525    -3256065.841 6  -2501533.91021
  18496535.7134  -22569397.43847 -17514220.87563
  22319140.9864   -6572230.09345  -4943785.75661
  19227984.7134  -28848066.25747 -22336403.38662
  21932080.7294   -4182504.87646  -3038842.22461
  22931275.5104   -1733843.07144
 93  5 21 18 44 14.9940000  0  6G19G27G15G 2G26G13
  20418128.065    -3238635.734 6  -2487952.01821
  18495104.346   -22576921.439 7 -17520083.73823
  22312780.533    -6605626.615 5  -4969808.95021
  19224083.9004  -28868563.60447 -22352375.34663
  21922528.830    -4232699.919 6  -3077955.23321
  22916926.2604   -1809255.61144
 93  5 21 18 44 29.9940000  0  6G19G27G15G 2G26G13
  20421458.057    -3221139.554 6  -2474318.65621
  18493691.4004  -22584340.02447 -17525864.45863
  22306448.8304   -6638921.21545  -4995752.76161
  19220192.5334  -28889004.82647 -22368303.57362
  21912996.393    -4282800.433 6  -3116994.54621
  22902571.5254   -1884667.50844
 93  5 21 18 44 44.9940000  0  6G19G27G15G 2G26G13
  20424797.2604   -3203576.58346  -2460633.25662
  18492300.6114  -22591651.68447 -17531561.86063
  22300139.0334   -6672113.21245  -5021616.63961
  19216314.9244  -28909389.71947 -22384187.90462
  21903479.2054   -4332807.81445  -3155961.29661
  22888225.4084   -1960078.04044
 93  5 21 18 44 59.9940000  0  6G19G27G15G 2G26G13
  20428151.947    -3185950.402 6  -2446898.59721
  18490929.1044  -22598861.52347 -17537179.92163
  22293838.4084   -6705205.43445  -5047402.72161
  19212445.9084  -28929724.35247 -22400033.07362
  21893982.619    -4382728.076 5  -3194860.18121
  22873866.330    -2035490.010 3        -0.09231
 93  5 21 18 45 14.9940000  0  6G19G27G15G 2G26G13
  20431522.807    -3168254.754 6  -2433109.79721
  18489578.0414  -22605968.07047 -17542717.49863
  22287559.775    -6738191.682 5  -5073106.27221
  19208586.5884  -28950005.90047 -22415836.87363
  21884498.494    -4432555.477 5  -3233686.69521
  22859525.4164   -2110897.02343    -58758.64461
 93  5 21 18 45 29.9940000  0  6G19G27G15G 2G26G13
  20434900.3934   -3150489.10946  -2419266.46561
  18488243.2994  -22612973.55947 -17548176.32963
  22281299.1114   -6771074.07745  -5098728.89361
  19204735.5574  -28970238.54847 -22431602.56763
  21875034.322    -4482293.024 5  -3272443.24621
  22845175.533    -2186301.391 3   -117515.15921
 93  5 21 18 45 44.9940000  0  6G19G27G15G 2G26G13
  20438299.791    -3132649.614 6  -2405365.57921
  18486930.7834  -22619877.06347 -17553555.68463
  22275065.4324   -6803850.04245  -5124268.53361
  19200895.1824  -28990420.67247 -22447328.89563
  21865583.0964   -4531941.12645  -3311130.04061
  22830820.3464   -2261700.06943   -176267.23961
 93  5 21 18 45 59.9940000  0  6G19G27G15G 2G26G13
  20441706.565    -3114743.321 6  -2391412.65322
  18485634.440   -22626686.984 7 -17558862.12523
  22268846.252    -6836525.357 5  -5149729.78821
  19197062.7444  -29010560.20447 -22463022.03363
  21856154.299    -4581503.168 5  -3349749.79921
  22816471.315    -2337098.805 3
 93  5 21 18 46 14.9940000  0  6G19G27G15G 2G26G13
  20445124.1584   -3096770.50046  -2377407.88062
  18484357.2294  -22633403.59047 -17564095.85463
  22262649.7834   -6869099.90545  -5175112.51861
  19193237.6664  -29030660.91547 -22478684.91863
  21846738.9004   -4630977.32745  -3388301.06561
  22802130.799    -2412497.698 3
 93  5 21 18 46 29.9940000  0  6G19G27G15G 2G26G13
  20448556.7214   -3078726.74646  -2363347.84961
  18483097.1504  -22640022.23647 -17569253.25162
  22256470.9714   -6901569.22745  -5200413.25461
  19189420.1744  -29050721.20647 -22494316.30563
  21837342.783    -4680362.443 5  -3426782.95521
  22787781.440    -2487892.108 3
 93  5 21 18 46 44.9940000  0  6G19G27G15G 2G26G13
  20452005.0804   -3060609.20946  -2349230.29362
  18481856.3774  -22646540.46847 -17574332.39963
  22250312.7914   -6933932.08045  -5225631.02561
  19185611.5494  -29070739.06147 -22509914.63263
  21827958.549    -4729656.612 5  -3465193.96321
  22773438.432    -2563280.713 4
 93  5 21 18 46 59.9940000  0  6G19G27G15G 2G26G13
  20455465.9474   -3042419.63446  -2335056.64061
  18480633.7754  -22652958.63947 -17579333.57562
  22244172.721    -6966190.754 5  -5250767.64921
  19181807.6434  -29090715.98947 -22525481.06162
  21818600.447    -4778858.984 5  -3503533.45121
  22759085.9244   -2638665.73544
 93  5 21 18 47 14.9940000  0  6G19G27G15G 2G26G13
  20458940.588    -3024158.359 6  -2320827.10322
  18479432.8774  -22659275.01647 -17584255.43662
  22238056.1274   -6998344.07945  -5275822.16261
  19178017.1434  -29110651.30048 -22541015.07462
  21809251.7834   -4827965.55445  -3541798.27861
  22744744.885    -2714045.774 3        -0.01031
 93  5 21 18 47 29.9940000  0  6G19G27G15G 2G26G13
  20462431.338    -3005823.680 6  -2306540.34821
  18478251.0574  -22665484.20047 -17589093.76662
  22231955.7364   -7030389.60345  -5300792.64461
  19174230.9404  -29130542.10747 -22556514.40163
  21799926.2054   -4876972.68445  -3579985.66961
  22730405.0024   -2789418.38544    -58731.75961
 93  5 21 18 47 44.9940000  0  6G19G27G15G 2G26G13
  20465932.2604   -2987419.68746  -2292199.61861
  18477088.7994  -22671587.04247 -17593849.22563
  22225882.838    -7062329.689 5  -5325680.98721
  19170453.6044  -29150391.76447 -22571981.66663
  21790621.619    -4925882.997 5  -3618097.57521
  22716067.4714   -2864786.01343
 93  5 21 18 47 59.9940000  0  6G19G27G15G 2G26G13
  20469442.924    -2968948.738 6  -2277806.68021
  18475947.9714  -22677583.60847 -17598521.88463
  22219817.955    -7094162.421 5  -5350485.68721
  19166684.8224  -29170198.41248 -22587415.40863
  21781331.299    -4974692.365 5  -3656130.82521
  22701724.408    -2940146.435 3
 93  5 21 18 48 14.9940000  0  6G19G27G15G 2G26G13
  20472972.5654   -2950413.41346  -2263363.60161
  18474828.1904  -22683476.62847 -17603113.84663
  22213785.416    -7125890.760 5  -5375209.01921
  19162924.5184  -29189965.27448 -22602818.15163
  21772062.580    -5023402.190 5  -3694086.51321
  22687378.838    -3015502.256 3
 93  5 21 18 48 29.9940000  0  6G19G27G15G 2G26G13
  20476518.7364   -2931808.63646  -2248866.41961
  18473727.2364  -22689260.02247 -17607620.39763
  22207766.3774   -7157510.58845  -5399847.81161
  19159170.5964  -29209688.56348 -22618186.94463
  21762813.822    -5072011.030 5  -3731963.50521
  22673037.752    -3090849.529 3
 93  5 21 18 48 44.9940000  0  6G19G27G15G 2G26G13
  20480070.643    -2913136.302 6  -2234316.55821
  18472648.1274  -22694936.13047 -17612043.34763
  22201771.0494   -7189023.76445  -5424403.49761
  19155424.1744  -29229367.65147 -22633521.29063
  21753581.6114   -5120520.84545  -3769763.32961
  22658708.565    -3166189.814 3
 93  5 21 18 48 59.9940000  0  6G19G27G15G 2G26G13
  20483632.635    -2894393.573 6  -2219711.88121
  18471588.5184  -22700503.48147 -17616381.54963
  22195789.2054   -7220428.32845  -5448874.55061
  19151690.6974  -29248997.88848 -22648817.58263
  21744367.994    -5168926.451 5  -3807481.97121
  22644362.2834   -3241520.93943
 93  5 21 18 49 14.9940000  0  6G19G27G15G 2G26G13
  20487213.502    -2875585.971 6  -2205056.63221
  18470549.1114  -22705968.43247 -17620639.95763
  22189839.658    -7251728.307 5  -5473264.11821
  19147963.0494  -29268585.44447 -22664080.60763
  21735179.229    -5217231.321 5  -3845122.10521
  22630037.182    -3316847.025 3
 93  5 21 18 49 29.9940000  0  6G19G27G15G 2G26G13
  20490801.9634   -2856707.99946  -2190346.54661
  18469528.0654  -22711328.25647 -17624816.44563
  22183903.7134   -7282918.41545  -5497568.07361
  19144244.5254  -29288125.66348 -22679306.74963
  21726002.2134   -5265431.83545  -3882680.91561
  22615709.4084   -3392162.72743        -0.02571
 93  5 21 18 49 44.9940000  0  6G19G27G15G 2G26G13
  20494411.041    -2837760.341 6  -2175582.16121
  18468529.6044  -22716582.88547 -17628910.96963
  22177985.846    -7313999.661 5  -5521787.20421
  19140534.3074  -29307617.84548 -22694495.45263
  21716853.3544   -5313528.50645  -3920158.80961
  22601368.932    -3467468.885 2    -58680.06621
 93  5 21 18 49 59.9940000  0  6G19G27G15G 2G26G13
  20498027.5254   -2818744.38846  -2160764.55461
  18467548.2914  -22721736.39847 -17632926.69063
  22172090.7134   -7344974.16445  -5545923.16061
  19136835.1354  -29327063.77548 -22709648.12363
  21707721.2684   -5361524.01145  -3957557.89261
  22587035.072    -3542767.540 3   -117354.20121
 93  5 21 18 50 14.9940000  0  6G19G27G15G 2G26G13
  20501663.1044   -2799653.90446  -2145888.90061
  18466588.5254  -22726784.33547 -17636860.15763
  22166218.4944   -7375838.24445  -5569973.08461
  19133142.6434  -29346461.02448 -22724762.86563
  21698605.4404   -5409415.68245  -3994876.05561
  22572712.666    -3618055.131 3   -176019.68021
 93  5 21 18 50 29.9940000  0  6G19G27G15G 2G26G13
  20505307.510    -2780491.281 6  -2130956.99921
  18465646.7444  -22731726.11147 -17640710.89463
  22160368.471    -7406595.479 5  -5593939.75321
  19129460.4554  -29365815.84748 -22739844.54263
  21689511.447    -5457208.688 5  -4032117.31221
  22558391.666    -3693334.978 4   -234679.17621
 93  5 21 18 50 44.9940000  0  6G19G27G15G 2G26G13
  20508968.229    -2761254.234 5  -2115967.13021
  18464725.2914  -22736557.31047 -17644475.47263
  22154537.5804   -7437241.12845  -5617819.44661
  19125786.8774  -29385124.31648 -22754890.09363
  21680432.1584   -5504897.99145  -4069277.78061
  22544066.775    -3768601.997 3   -293328.68621
 93  5 21 18 50 59.9940000  0  6G19G27G15G 2G26G13
  20512643.682    -2741949.248 6  -2100924.31721
  18463827.0024  -22741285.01547 -17648159.40063
  22148724.244    -7467780.871 5  -5641616.62421
  19122119.2444  -29404391.57047 -22769903.53863
  21671379.5884   -5552486.54645  -4106359.73661
  22529745.0654   -3843861.74543   -351972.53561
 93  5 21 18 51 14.9940000  0  6G19G27G15G 2G26G13
  20516334.8384   -2722571.83046  -2085825.05561
  18462948.9084  -22745902.04047 -17651757.08962
  22142930.463    -7498207.002 5  -5665325.25321
  19118463.6504  -29423613.61048 -22784881.75463
  21662346.3614   -5599969.62946  -4143359.50561
  22515421.7054   -3919106.55942   -410604.67361
 93  5 21 18 51 29.9940000  0  6G19G27G15G 2G26G13
  20520030.1044   -2703128.03846  -2070674.08561
  18462088.0804  -22750410.67147 -17655270.31462
  22137160.275    -7528523.091 5  -5688948.12221
  19114810.2364  -29442796.75347 -22799829.66063
  21653329.6664   -5647353.55346  -4180282.01261
  22501114.7294   -3994339.92542   -469227.95161
 93  5 21 18 51 44.9940000  0  6G19G27G15G 2G26G13
  20523745.6664   -2683615.83446  -2055469.80261
  18461253.6274  -22754807.58547 -17658696.48763
  22131418.471    -7558727.803 5  -5712484.25121
  19111168.721   -29461938.519 8 -22814745.30323
  21644331.143    -5694638.409 5  -4217127.34221
  22486788.830    -4069560.164 3   -527841.03921
 93  5 21 18 51 59.9940000  0  6G19G27G15G 2G26G13
  20527469.2604   -2664037.15946  -2040213.72461
  18460440.1354  -22759094.38947 -17662036.86263
  22125691.963    -7588822.286 5  -5735934.48521
  19107535.1584  -29481040.34548 -22829629.85063
  21635349.8304   -5741824.67045  -4253895.82561
  22472483.5654   -4144768.39644   -586444.73961
 93  5 21 18 52 14.9940000  0  6G19G27G15G 2G26G13
  20531209.3384   -2644390.55946  -2024904.72261
  18459643.7684  -22763271.75747 -17665291.96163
  22119984.2914   -7618804.82345  -5759297.45661
  19103906.6504  -29500102.93348 -22844483.81463
  21626393.5574   -5788911.00345  -4290586.44461
  22458182.4714   -4219962.82044   -645037.66561
 93  5 21 18 52 29.9930000  0  6G19G27G15G 2G26G13
  20534955.8644   -2624675.93246  -2009542.70261
  18458868.3174  -22767337.16747 -17668459.81763
  22114299.5214   -7648670.50145  -5782569.41561
  19100288.6614  -29519120.13348 -22859302.41263
  21617450.786    -5835890.971 6  -4327194.18521
  22443876.521    -4295135.283 4
 93  5 21 18 52 44.9930000  0  6G19G27G15G 2G26G13
  20538723.864    -2604895.625 5  -1994129.50521
  18458117.1924  -22771297.08947 -17671545.47563
  22108639.2554   -7678424.49445  -5805754.33361
  19096678.1694  -29538091.84548 -22874085.56163
  21608528.677    -5882771.530 5  -4363724.47221
  22429569.036    -4370297.073 4
 93  5 21 18 52 59.9930000  0  6G19G27G15G 2G26G13
  20542501.3334   -2585056.05146  -1978670.13261
  18457381.8804  -22775159.66047 -17674555.27263
  22102999.864    -7708071.200 5  -5828855.63521
  19093074.8414  -29557019.99048 -22888834.76063
  21599624.466    -5929555.434 5  -4400179.43121
  22415263.138    -4445449.341 4        -0.12031
 93  5 21 18 53 14.9930000  0  6G19G27G15G 2G26G13
  20546288.521    -2565152.330 6  -1963160.76821
  18456665.6924  -22778920.12447 -17677485.50963
  22097377.880    -7737605.751 5  -5851869.55521
  19089483.3884  -29575899.53648 -22903546.10163
  21590743.271    -5976239.149 5  -4436556.33121
  22400971.7784   -4520587.43544    -58549.14361
 93  5 21 18 53 29.9930000  0  6G19G27G15G 2G26G13
  20550091.0834   -2545180.26146  -1947598.16161
  18455970.380   -22782572.630 7 -17680331.63323
  22091783.9274   -7767023.76445  -5874792.67961
  19085900.9424  -29594725.78948 -22918215.91063
  21581880.1614   -6022817.75845  -4472851.31561
  22386679.3964   -4595706.66744   -117083.53561
 93  5 21 18 53 44.9930000  0  6G19G27G15G 2G26G13
  20553904.8574   -2525142.37246  -1931984.25261
  18455294.8414  -22786123.56747 -17683098.59563
  22086204.380    -7796330.649 5  -5897629.20321
  19082325.1304  -29613503.93447 -22932848.23263
  21573037.872    -6069293.134 5  -4509065.86721
  22372384.6074   -4670812.42544
 93  5 21 18 53 59.9930000  0  6G19G27G15G 2G26G13
  20557728.9114   -2505037.95046  -1916318.51861
  18454639.7394  -22789572.72647 -17685786.25263
  22080646.0444   -7825525.58445  -5920378.50561
  19078763.2394  -29632233.49548 -22947442.68863
  21564211.286    -6115663.129 5  -4545198.32421
  22358099.0364   -4745903.50344
 93  5 21 18 54 14.9930000  0  6G19G27G15G 2G26G13
  20561569.935    -2484862.286 6  -1900597.24821
  18454001.0754  -22792916.72047 -17688391.97063
  22075118.6774   -7854603.86146  -5943036.85461
  19075208.1464  -29650911.49448 -22961996.97363
  21555411.778    -6161925.930 5  -4581247.23021
  22343802.0364   -4820975.13444
 93  5 21 18 54 29.9930000  0  6G19G27G15G 2G26G13
  20565419.755    -2464620.957 6  -1884824.80321
  18453382.1534  -22796161.48147 -17690920.35463
  22069599.544    -7883571.477 5  -5965608.99321
  19071664.4424  -29669543.88748 -22976515.72163
  21546627.536    -6208088.802 5  -4617218.29121
  22329523.646    -4896033.179 4
 93  5 21 18 54 44.9930000  0  6G19G27G15G 2G26G13
  20569285.716    -2444313.545 6  -1869000.90221
  18452786.185   -22799302.431 7 -17693367.85823
  22064111.1224   -7912427.04345  -5988093.81161
  19068126.8334  -29688131.41048 -22990999.50163
  21537857.4744   -6254150.86845  -4653110.77361
  22315237.9744   -4971076.05743        -0.12071
 93  5 21 18 54 59.9930000  0  6G19G27G15G 2G26G13
  20573162.958    -2423931.651 6  -1853118.93821
  18452211.1614  -22802330.64047 -17695727.51163
  22058645.966    -7941164.407 5  -6010486.54721
  19064597.4894  -29706672.94948 -23005447.45062
  21529111.692    -6300105.092 5  -4688919.24221
  22300965.6304   -5046097.51643
 93  5 21 18 55 14.9930000  0  6G19G27G15G 2G26G13
  20577054.489    -2403481.372 6  -1837183.69421
  18451655.8024  -22805247.09747 -17698000.08463
  22053194.3254   -7969789.17545  -6032791.55661
  19061076.0754  -29725177.26548 -23019866.39962
  21520387.4194   -6345957.41146  -4724648.29461
  22286699.2164   -5121102.97943
 93  5 21 18 55 29.9930000  0  6G19G27G15G 2G26G13
  20580954.208    -2382966.431 5  -1821198.07621
  18451121.9424  -22808055.41847 -17700188.39362
  22047767.0364   -7998303.83445  -6055010.75161
  19057560.7164  -29743648.54248 -23034259.60762
  21511683.927    -6391709.831 6  -4760299.51521
  22272420.8574   -5196094.62543
 93  5 21 18 55 44.9930000  0  6G19G27G15G 2G26G13
  20584879.005    -2362383.507 5  -1805159.45621
  18450609.5994  -22810751.08647 -17702288.92162
  22042367.2244   -8026705.91745  -6077142.25061
  19054051.4584  -29762085.75348 -23048626.25862
  21502999.349    -6437360.233 6  -4795871.23721
  22258158.7324   -5271070.02943
 93  5 21 18 55 59.9930000  0  6G19G27G15G 2G26G13
  20588800.7784   -2341729.98045  -1789065.83561
  18450115.4504  -22813333.52347 -17704301.21062
  22036982.927    -8054991.899 5  -6099183.24921
  19050551.9584  -29780485.77248 -23062963.93862
  21494326.8174   -6482906.58146  -4831361.89461
  22243883.0674   -5346025.64343
 93  5 21 18 56 14.9930000  0  6G19G27G15G 2G26G13
  20592745.3494   -2321008.98145  -1772919.65061
  18449646.6224  -22815804.07247 -17706226.32362
  22031624.2084   -8083162.81746  -6121134.59861
  19047056.2634  -29798848.70148 -23077272.70163
  21485680.974    -6528352.436 6  -4866774.22621
  22229635.9354   -5420962.51244        -0.39771
 93  5 21 18 56 29.9930000  0  6G19G27G15G 2G26G13
  20596702.1074   -2300222.45945  -1756722.39861
  18449197.9194  -22818165.71247 -17708066.56363
  22026282.1224   -8111220.70545  -6142997.86461
  19043568.5444  -29817175.29448 -23091553.16163
  21477053.888    -6573697.711 6  -4902108.19321
  22215383.872    -5495882.356 4    -58379.41321
 93  5 21 18 56 44.9930000  0  6G19G27G15G 2G26G13
  20600672.9504   -2279367.24645  -1740471.61761
  18448769.8884  -22820413.91647 -17709818.41762
  22020963.263    -8139161.096 5  -6164769.58121
  19040090.6464  -29835461.17448 -23105801.89863
  21468441.7784   -6618933.99546  -4937357.23561
  22201126.388    -5570780.542 4   -116741.51821
 93  5 21 18 56 59.9930000  0  6G19G27G15G 2G26G13
  20604650.903    -2258440.410 6  -1724165.00621
  18448364.888   -22822545.430 7 -17711479.35422
  22015669.5364   -8166980.77145  -6186447.23861
  19036618.0444  -29853702.14847 -23120015.64063
  21459855.208    -6664057.573 6  -4972518.45021
  22186874.1534   -5645653.82145   -175084.22761
 93  5 21 18 57 14.9930000  0  6G19G27G15G 2G26G13
  20608648.013    -2237452.586 6  -1707810.91421
  18447979.2864  -22824573.56547 -17713059.72662
  22010395.5674   -8194689.63145  -6208038.54561
  19033157.2084  -29871904.22948 -23134199.08163
  21451287.021    -6709077.903 6  -5007599.20621
  22172636.2084   -5720511.54245   -233414.84961
 93  5 21 18 57 29.9930000  0  6G19G27G15G 2G26G13
  20612652.8334   -2216400.42246  -1691406.67361
  18447613.677   -22826498.417 7 -17714559.61922
  22005146.5284   -8222282.89745  -6229539.78861
  19029699.2004  -29890061.73147 -23148347.78063
  21442741.575    -6753992.569 6  -5042597.63321
  22158392.021    -5795348.771 5   -291729.48921
 93  5 21 18 57 44.9930000  0  6G19G27G15G 2G26G13
  20616675.513    -2195282.875 5  -1674951.48721
  18447267.3334  -22828322.47547 -17715980.97062
  21999918.638    -8249760.695 5  -6250951.04821
  19026253.9114  -29908176.73448 -23162463.37263
  21434216.669    -6798801.799 6  -5077513.89321
  22144160.028    -5870165.718 5   -350028.30721
 93  5 21 18 57 59.9930000  0  6G19G27G15G 2G26G13
  20620702.2244   -2174103.05746  -1658447.77961
  18446935.7244  -22830048.75247 -17717326.12962
  21994709.0364   -8277123.76445  -6272272.88461
  19022813.3254  -29926251.00048 -23176547.21463
  21425709.349    -6843506.362 6  -5112348.59821
  22129911.9274   -5944963.01244   -408311.81661
 93  5 21 18 58 14.9930000  0  6G19G27G15G 2G26G13
  20624746.239    -2152862.524 5  -1641896.73521
  18446625.4504  -22831678.98947 -17718596.44863
  21989525.8644   -8304372.38845  -6293505.57761
  19019381.5834  -29944283.02148 -23190598.13263
  21417220.3334   -6888106.30946  -5147101.78861
  22115696.4744   -6019740.75544   -466580.15661
 93  5 21 18 58 29.9930000  0  6G19G27G15G 2G26G13
  20628797.3804   -2131549.90145  -1625289.53261
  18446336.1534  -22833202.16047 -17719783.33463
  21984367.817    -8331498.907 6  -6314643.11721
  19015958.8254  -29962265.39447 -23204610.36763
  21408757.482    -6932593.449 6  -5181767.07921
  22101456.794    -6094491.044 4   -524827.01021
 93  5 21 18 58 44.9930000  0  6G19G27G15G 2G26G13
  20632871.021    -2110173.011 5  -1608632.26021
  18446065.911   -22834625.361 7 -17720892.32923
  21979226.5214   -8358511.58245  -6335691.92661
  19012545.8174  -29980206.86748 -23218590.74063
  21400312.3494   -6976973.13846  -5216348.63061
  22087244.372    -6169221.999 4   -583058.78721
 93  5 21 18 58 59.9930000  0  6G19G27G15G 2G26G13
  20636948.2634   -2088730.38845  -1591923.75561
  18445814.5134  -22835944.59747 -17721920.31863
  21974108.200    -8385408.724 5  -6356650.73121
  19009138.9114  -29998105.70248 -23232537.87263
  21391883.4194   -7021246.82246  -5250847.56861
  22073030.6074   -6243931.81144   -641274.10861
 93  5 21 18 59 14.9930000  0  6G19G27G15G 2G26G13
  20641046.153    -2067220.905 5  -1575163.13221
  18445586.0364  -22837157.72547 -17722865.61463
  21969009.489    -8412189.037 5  -6377518.50021
  19005741.9354  -30015959.33148 -23246449.79563
  21383481.2164   -7065413.40046  -5285263.05961
  22058818.5994   -6318619.10245
 93  5 21 18 59 29.9930000  0  6G19G27G15G 2G26G13
  20645141.966    -2045644.570 5  -1558350.45621
  18445374.146   -22838263.615 7 -17723727.36423
  21963933.7164   -8438851.51545  -6398294.41661
  19002353.6614  -30033769.15047 -23260327.57163
  21375096.3574   -7109472.53546  -5319594.83661
  22044604.2944   -6393282.80845
 93  5 21 18 59 44.9930000  0  6G19G27G15G 2G26G13
  20649267.5674   -2024005.41245  -1541488.82161
  18445183.200   -22839265.016 7 -17724507.68123
  21958886.286    -8465401.233 5  -6418982.52221
  18998971.0134  -30051541.64847 -23274176.27263
  21366733.4424   -7153427.98846  -5353845.81461
  22030405.5364   -6467927.46045
 93  5 21 18 59 59.9930000  0  6G19G27G15G 2G26G13
  20653393.732    -2002298.961 5  -1524574.74321
  18445013.372   -22840153.108 7 -17725199.71823
  21953852.786    -8491832.990 5  -6439578.69021
  18995597.8334  -30069269.94348 -23287990.52363
  21358388.2004   -7197271.83946  -5388009.81761
  22016200.7164   -6542547.97645        -0.18971
 93  5 21 19  0 14.9930000  0  6G19G27G15G 2G26G13
  20657540.1144   -1980522.09945  -1507605.80261
  18444865.864   -22840925.855 7 -17725801.87022
  21948844.4824   -8518145.63745  -6460082.04461
  18992231.7634  -30086949.88148 -23301767.09963
  21350067.044    -7241002.447 6  -5422085.59921
  22002015.2164   -6617143.34145    -58126.30561
 93  5 21 19  0 29.9930000  0  6G19G27G15G 2G26G13
  20661695.8884   -1958672.01645  -1490579.82161
  18444741.7244  -22841581.09147 -17726312.44862
  21943860.4824   -8544338.64645  -6480492.16261
  18988877.5214  -30104580.50947 -23315505.25263
  21341767.0604   -7284619.33546  -5456072.76561
  21987818.935    -6691712.458 5   -116232.03021
 93  5 21 19  0 44.9930000  0  6G19G27G15G 2G26G13
  20665872.7324   -1936750.77945  -1473498.37461
  18444638.950   -22842121.038 7 -17726733.20422
  21938899.896    -8570412.497 5  -6500809.41521
  18985532.3494  -30122164.94248 -23329207.39963
  21333488.1854   -7328122.59946  -5489971.38261
  21973636.0834   -6766255.59145   -174317.44261
 93  5 21 19  0 59.9930000  0  6G19G27G15G 2G26G13
  20670059.4504   -1914763.67445  -1456365.59361
  18444558.3574  -22842549.92547 -17727067.41462
  21933955.2714   -8596368.55645  -6521034.90561
  18982192.1144  -30139705.65547 -23342875.48363
  21325228.8574   -7371515.14646  -5523783.74361
  21959452.6534   -6840773.84945   -232383.54661
 93  5 21 19  1 14.9930000  0  6G19G27G15G 2G26G13
  20674252.286    -1892712.917 5  -1439183.22221
  18444495.763   -22842872.977 7 -17727319.15422
  21929041.7084   -8622209.13945  -6541170.42161
  18978864.8964  -30157207.40648 -23356513.21763
  21316992.5134   -7414800.38846  -5557512.47761
  21945274.8494   -6915269.67145   -290432.14561
 93  5 21 19  1 29.9930000  0  6G19G27G15G 2G26G13
  20678458.2004   -1870598.83146  -1421951.49561
  18444456.021   -22843092.687 7 -17727490.36622
  21924146.4274   -8647934.14145  -6561215.88761
  18975538.9664  -30174672.42648 -23370122.31863
  21308781.3964   -7457977.84146  -5591157.23261
  21931106.974    -6989742.663 5   -348462.94921
 93  5 21 19  1 44.9930000  0  6G19G27G15G 2G26G13
  20682678.661    -1848420.051 5  -1404669.37221
  18444431.5834  -22843207.88547
  21919274.1854   -8673541.13845  -6581169.38261
  18972222.4894  -30192099.76947 -23383702.06063
  21300584.0834   -7501044.33246  -5624715.50761
  21916936.232    -7064190.234 4   -406473.95421
 93  5 21 19  1 59.9930000  0  6G19G27G15G 2G26G13
  20686908.638    -1826173.216 5  -1387334.23921
  18444430.1854  -22843215.38247
  21914427.3254   -8699027.53945  -6601028.88261
  18968913.7714  -30209486.38347 -23397250.07963
  21292409.4034   -7543996.82546  -5658184.96961
  21902773.8574   -7138609.75344   -464463.11661
 93  5 21 19  2 14.9930000  0  6G19G27G15G 2G26G13
  20691159.716    -1803859.800 5  -1369947.18921
  18444450.0994  -22843115.46747
  21909595.771    -8724393.205 5  -6620794.30321
  18965614.2944  -30226832.41647 -23410766.47363
  21284259.661    -7586837.160 6  -5691567.02921
  21888616.3174   -7213000.77645
 93  5 21 19  2 29.9930000  0  6G19G27G15G 2G26G13
  20695416.7394   -1781482.22945  -1352510.15661
  18444491.3104  -22842910.32947
  21904791.685    -8749638.705 5  -6640466.10421
  18962320.6854  -30244136.82847 -23424250.42263
  21276127.8884   -7629566.74046  -5724862.79461
  21874473.005    -7287363.616 5
 93  5 21 19  2 44.9930000  0  6G19G27G15G 2G26G13
  20699690.419    -1759045.596 5  -1335027.10421
  18444544.4824  -22842602.58847
  21900015.442    -8774764.745 5  -6660044.80121
  18959035.8494  -30261403.22148 -23437704.76063
  21268018.3804   -7672187.13146  -5758073.45761
  21860321.3804   -7361698.89145        -0.46771
 93  5 21 19  2 59.9930000  0  6G19G27G15G 2G26G13
  20703969.4664   -1736551.31345  -1317499.16561
  18444627.8174  -22842190.97147 -17726787.77962
  21895253.794    -8799770.767 5  -6679529.98521
  18955756.2864  -30278629.91348 -23451128.16063
  21259925.263    -7714697.141 6  -5791198.13821
  21846188.302    -7436005.825 5    -57901.87921
 93  5 21 19  3 14.9930000  0  6G19G27G15G 2G26G13
  20708261.466    -1713997.885 5  -1299925.12121
  18444723.8104  -22841672.32947 -17726383.65162
  21890518.763    -8824655.374 5  -6698920.55021
  18952486.6924  -30295815.96647 -23464519.88863
  21251859.3494   -7757093.59846  -5824234.29861
  21832045.8024   -7510282.92744   -115780.01361
 93  5 21 19  3 29.9930000  0  6G19G27G15G 2G26G13
  20712559.107    -1691392.761 6  -1282310.76521
  18444842.5524  -22841051.35147 -17725899.77862
  21885804.599    -8849424.799 5  -6718221.36621
  18949223.4584  -30312965.69748 -23477883.31863
  21243813.5524   -7799379.94946  -5857184.70261
  21817914.239    -7584536.203 5   -173639.59921
 93  5 21 19  3 44.9930000  0  6G19G27G15G 2G26G13
  20716870.1384   -1668734.34845  -1264654.89061
  18444979.4744  -22840325.16747 -17725333.92862
  21881114.192    -8874076.411 5  -6737430.39021
  18945966.3804  -30330075.84048 -23491215.89663
  21235785.8334   -7841552.70446  -5890046.55761
  21803791.989    -7658762.756 5   -231478.37221
 93  5 21 19  3 59.9930000  0  6G19G27G15G 2G26G13
  20721186.4664   -1646015.88545  -1246952.23861
  18445139.6694  -22839487.19847 -17724680.97362
  21876446.4274   -8898604.01045  -6756542.76561
  18942720.1854  -30347139.61748 -23504512.35163
  21227782.3724   -7883606.78846  -5922815.97461
  21789670.9664   -7732956.33645   -289291.42761
 93  5 21 19  4 14.9930000  0  6G19G27G15G 2G26G13
  20725529.7084   -1623242.50645  -1229206.79861
  18445320.5994  -22838543.65047 -17723945.74362
  21871800.169    -8923011.825 5  -6775561.83721
  18939480.5134  -30364160.69848 -23517775.53063
  21219797.4034   -7925548.60646  -5955497.90961
  21775557.3024   -7807120.89845   -347081.93161
 93  5 21 19  4 29.9930000  0  6G19G27G15G 2G26G13
  20729871.271    -1600409.756 6  -1211415.07921
  18445520.2714  -22837495.08947 -17723128.69862
  21867181.130    -8947297.148 5  -6794485.43021
  18936251.0604  -30381135.71048 -23531002.81563
  21211843.4034   -7967375.56346  -5988090.31961
  21761454.8414   -7881253.53245   -404847.47161
 93  5 21 19  4 44.9930000  0  6G19G27G15G 2G26G13
  20734233.966    -1577520.415 5  -1193579.26621
  18445739.1694  -22836345.61647 -17722233.02062
  21862582.607    -8971462.924 5  -6813315.87721
  18933030.0914  -30398072.00148 -23544199.92763
  21203908.0134   -8009088.99746  -6020594.28961
  21747350.950    -7955357.280 5   -462590.56521
 93  5 21 19  4 59.9930000  0  6G19G27G15G 2G26G13
  20738591.8644   -1554568.94945  -1175695.04361
  18445976.8574  -22835089.42547 -17721254.17162
  21858008.599    -8995504.401 5  -6832049.46921
  18929813.4274  -30414968.24348 -23557365.82963
  21195987.9114   -8050684.12646  -6053006.08061
  21733257.7324   -8029427.15345   -520307.25961
 93  5 21 19  5 14.9930000  0  6G19G27G15G 2G26G13
  20742976.607    -1531550.425 5  -1157758.57221
  18446240.122   -22833722.192 7 -17720188.81123
  21853458.5674   -9019419.90645  -6850684.93661
  18926604.8254  -30431822.24947 -23570498.82863
  21188098.5364   -8092159.44546  -6085324.49561
  21719166.083    -8103461.291 5   -577996.12321
 93  5 21 19  5 29.9930000  0  6G19G27G15G 2G26G13
  20747368.247    -1508468.133 5  -1139772.42721
  18446520.177   -22832251.601 7 -17719042.90622
  21848929.521    -9043215.106 5  -6869226.63421
  18923405.6534  -30448638.71648 -23583602.57463
  21180226.130    -8133522.296 6  -6117555.26721
  21705090.3174   -8177464.98545   -635661.21261
 93  5 21 19  5 44.9930000  0  6G19G27G15G 2G26G13
  20751776.310    -1485319.700 5  -1121734.73021
  18446817.4274  -22830679.20247 -17717817.67063
  21844420.1924   -9066890.00845  -6887674.57261
  18920212.107   -30465417.550 8 -23596677.00423
  21172377.3884   -8174775.07946  -6149700.29261
  21691011.5214   -8251438.19045   -693302.57961
 93  5 21 19  5 59.9930000  0  6G19G27G15G 2G26G13
  20756197.8574   -1462101.02045  -1103642.29061
  18447135.9424  -22829000.63047 -17716509.70063
  21839942.4504   -9090441.90946  -6906026.66861
  18917024.4744  -30482158.53847 -23609721.92563
  21164549.4894   -8215917.28446  -6181759.13061
  21676942.1854   -8325377.81945   -750917.75561
 93  5 21 19  6 14.9930000  0  6G19G27G15G 2G26G13
  20760628.380    -1438807.474 5  -1085491.52421
  18447476.6774  -22827208.66147 -17715113.37163
  21835487.8884   -9113865.74846  -6924278.98761
  18913850.0604  -30498855.36448 -23622732.45063
  21156740.7394   -8256943.42146  -6213727.54461
  21662876.9034   -8399278.56745   -808502.66161
 93  5 21 19  6 29.9930000  0  6G19G27G15G 2G26G13
  20765075.771    -1415440.731 5  -1067283.72721
  18447840.169   -22825306.280 7 -17713631.01123
  21831052.427    -9137164.135 6  -6942433.53021
  18910679.4114  -30515511.29047 -23635711.09263
  21148954.857    -8297854.229 6  -6245606.08121
  21648821.2324   -8473142.95845   -866059.24061
 93  5 21 19  6 44.9930000  0  6G19G27G15G 2G26G13
  20769534.2944   -1392004.59945  -1049021.84361
  18448221.2944  -22823292.73447 -17712062.02463
  21826640.6534   -9160339.24346  -6960492.05661
  18907515.9974  -30532132.14647 -23648662.40563
  21141190.2864   -8338650.54446  -6277395.40361
  21634769.239    -8546973.009 5   -923589.03621
 93  5 21 19  6 59.9930000  0  6G19G27G15G 2G26G13
  20773999.5444   -1368502.00145  -1030708.18761
  18448627.0364  -22821164.75947 -17710403.87563
  21822252.403    -9183390.613 6  -6978454.13821
  18904362.7324  -30548718.15048 -23661586.56763
  21133450.614    -8379331.712 6  -6309094.99821
  21620731.442    -8620768.177 5   -981091.69121
 93  5 21 19  7 14.9930000  0  6G19G27G15G 2G26G13
  20778488.536    -1344925.965 5  -1012337.34621
  18449055.3884  -22818918.83347 -17708653.81663
  21817885.177    -9206313.615 5  -6996316.19721
  18901212.4504  -30565262.34648 -23674478.15163
  21125728.692    -8419896.135 6  -6340703.62521
  21606691.630    -8694523.500 5  -1038563.26721
 93  5 21 19  7 29.9930000  0  6G19G27G15G 2G26G13
  20782991.9274   -1321280.88945   -993912.61761
  18449503.2474  -22816560.94247 -17706816.50263
  21813542.872    -9229113.340 5  -7014082.18321
  18898073.6694  -30581769.29948 -23687340.71663
  21118033.677    -8460347.715 6  -6372224.32721
  21592660.075    -8768243.819 5  -1096007.57121
 93  5 21 19  7 44.9930000  0  6G19G27G15G 2G26G13
  20787502.903    -1297567.251 5   -975434.45921
  18449973.208   -22814093.529 7 -17704893.86322
  21809240.396    -9251789.770 5  -7031752.11721
  18894935.3254  -30598241.40048 -23700176.11963
  21110357.794    -8500687.251 6  -6403657.69821
  21578638.403    -8841928.884 5  -1153424.43021
 93  5 21 19  7 59.9930000  0  6G19G27G15G 2G26G13
  20792026.8964   -1273787.93945   -956905.20761
  18450465.2394  -22811513.99847 -17702883.83562
  21804946.5604   -9274341.80345  -7049325.12261
  18891809.6304  -30614678.80648 -23712984.49663
  21102703.8804   -8540912.78146  -6435002.26161
  21564624.4974   -8915577.39945  -1210812.76961
 93  5 21 19  8 14.9930000  0  6G19G27G15G 2G26G13
  20796570.208    -1249946.959 5   -938327.87621
  18450975.6924  -22808825.81847 -17700789.16162
  21800678.2324   -9296771.21545  -7066802.55361
  18888688.2714  -30631080.91748 -23725765.36963
  21095072.294    -8581026.373 6  -6466259.58021
  21550617.4194   -8989191.05745  -1268173.96161
 93  5 21 19  8 29.9930000  0  6G19G27G15G 2G26G13
  20801114.903    -1226040.902 5   -919699.80921
  18451506.8884  -22806030.20947 -17698610.77162
  21796435.1614   -9319075.23845  -7084182.31061
  18885574.6924  -30647444.05148 -23738515.86363
  21087456.3334   -8621027.07146  -6497428.95761
  21536623.0604   -9062766.74345  -1325505.60561
 93  5 21 19  8 44.9930000  0  6G19G27G15G 2G26G13
  20805679.5214   -1202074.91245   -901025.02761
  18452059.388   -22803131.696 7 -17696352.20622
  21792213.849    -9341258.131 6  -7101467.68621
  18882468.4974  -30663772.75848 -23751239.53563
  21079863.942    -8660918.723 6  -6528513.33621
  21522620.872    -9136308.519 5  -1382810.82121
 93  5 21 19  8 59.9930000  0  6G19G27G15G 2G26G13
  20810245.3964   -1178045.04445   -882300.52561
  18452632.411   -22800125.240 7 -17694009.52222
  21788013.0914   -9363315.86545  -7118655.53261
  18879365.9664  -30680061.03148 -23763931.69163
  21072296.403    -8700698.404 6  -6559510.47221
  21508640.3174   -9209812.22945  -1440086.38061
 93  5 21 19  9 14.9930000  0  6G19G27G15G 2G26G13
  20814833.513    -1153948.883 5   -863524.34421
  18453221.4974  -22797008.64347 -17691581.01062
  21783841.544    -9385247.408 6  -7135745.06321
  18876276.4824  -30696302.31948 -23776587.24563
  21064746.482    -8740367.492 6  -6590421.44121
  21494656.122    -9283276.525 5  -1497331.16921
 93  5 21 19  9 29.9930000  0  6G19G27G15G 2G26G13
  20819426.872    -1129786.815 5   -844696.81321
  18453838.1224  -22793781.64047 -17689066.47362
  21779693.060    -9407052.826 5  -7152736.27321
  18873194.0914  -30712495.20348 -23789205.07363
  21057220.5834   -8779924.55646  -6621245.11161
  21480686.192    -9356701.379 5  -1554545.28421
 93  5 21 19  9 44.9930000  0  6G19G27G15G 2G26G13
  20824042.747    -1105560.819 5   -825819.44721
  18454474.2004  -22790440.65047 -17686463.11263
  21775569.2394   -9428730.30346  -7169627.77461
  18870123.4974  -30728637.56048 -23801783.54363
  21049714.3644   -8819366.82746  -6651979.33961
  21466722.341    -9430084.594 5  -1611726.90321
 93  5 21 19  9 59.9930000  0  6G19G27G15G 2G26G13
  20828663.927    -1081280.157 5   -806899.50221
  18455133.4424  -22786990.68847 -17683774.84062
  21771462.716    -9450284.955 6  -7186423.59421
  18867061.5914  -30744732.73947 -23814325.24563
  21042230.8724   -8858699.76546  -6682628.36061
  21452759.8574   -9503431.33145  -1668880.14961
 93  5 21 19 10 14.9930000  0  6G19G27G15G 2G26G13
  20833288.622    -1056941.441 5   -787934.31321
  18455809.7634  -22783428.20147 -17680998.88763
  21767388.833    -9471713.124 6  -7203120.82021
  18864007.1224  -30760777.48148 -23826827.64463
  21034765.107    -8897916.617 6  -6713186.94221
  21438810.271    -9576737.530 5  -1726001.75621
 93  5 21 19 10 29.9930000  0  6G19G27G15G 2G26G13
  20837933.153    -1032538.118 5   -768918.79921
  18456509.6694  -22779749.00447 -17678131.99063
  21763330.982    -9493012.395 5  -7219717.63021
  18860963.4274  -30776771.23648 -23839290.30563
  21027327.466    -8937014.745 6  -6743652.98921
  21424868.521    -9650000.583 5  -1783089.80021
 93  5 21 19 10 44.9930000  0  6G19G27G15G 2G26G13
  20842596.1854   -1008072.34645   -749854.59061
  18457230.4974  -22775950.04547 -17675171.76363
  21759303.661    -9514183.769 5  -7236214.78821
  18857928.7714  -30792718.26048 -23851716.55863
  21019909.364    -8975993.148 6  -6774025.75321
  21410930.403    -9723221.472 5  -1840144.95721
 93  5 21 19 10 59.9930000  0  6G19G27G15G 2G26G13
  20847261.060     -983549.365 5   -730745.81721
  18457978.2474  -22772033.79047 -17672120.14363
  21755296.7004   -9535231.64745  -7252615.73261
  18854900.8804  -30808624.27548 -23864110.86063
  21012515.3804   -9014856.56146  -6804308.90461
  21397009.3104   -9796404.24445  -1897170.41261
 93  5 21 19 11 14.9930000  0  6G19G27G15G 2G26G13
  20851942.0754    -958965.66745   -711589.72961
  18458744.4034  -22767997.51547 -17668974.99762
  21751316.778    -9556151.652 5  -7268917.03221
  18851884.7474  -30824486.39848 -23876470.95763
  21005143.599    -9053599.852 6  -6834498.46421
  21383094.8024   -9869544.33545  -1954162.59561
 93  5 21 19 11 29.9930000  0  6G19G27G15G 2G26G13
  20856628.841     -934327.023 5   -692390.83021
  18459533.8104  -22763848.90647 -17665742.32462
  21747360.3494   -9576946.74345  -7285120.97961
  18848872.2714  -30840311.32848 -23888802.07063
  20997789.9664   -9092224.37446  -6864595.47461
  21369182.185    -9942644.491 5  -2011123.69921
 93  5 21 19 11 44.9930000  0  6G19G27G15G 2G26G13
  20861323.966     -909631.773 5   -673147.82321
  18460345.583   -22759589.903 7 -17662423.63023
  21743428.5054   -9597615.93845  -7301226.85261
  18845868.8104  -30856102.34148 -23901106.76363
  20990462.4354   -9130727.56246  -6894597.95961
  21355282.7164  -10015703.53445  -2068052.75861
 93  5 21 19 11 59.9930000  0  6G19G27G15G 2G26G13
  20866031.5054    -884877.64745   -653858.95561
  18461176.9664  -22755221.23747 -17659019.47762
  21739521.794    -9618158.094 5  -7317233.70721
  18842869.4894  -30871860.03548 -23913385.48763
  20983157.614    -9169109.420 6  -6924505.87821
  21341379.1144  -10088719.91345  -2124948.54461
 93  5 21 19 12 14.9930000  0  6G19G27G15G 2G26G13
  20870762.896     -860062.298 5   -634522.36721
  18462027.661   -22750741.833 7 -17655529.04623
  21735634.247    -9638571.445 5  -7333140.18321
  18839877.7784  -30887583.65248 -23925637.66163
  20975879.6774   -9207364.76846  -6954315.21261
  21327498.2864  -10161691.42745  -2181809.42761
 93  5 21 19 12 29.9930000  0  6G19G27G15G 2G26G13
  20875486.716     -835186.431 5   -615138.61821
  18462901.5604  -22746154.97547 -17651954.87863
  21731776.5674   -9658859.06545  -7348948.67761
  18836891.7864  -30903275.95148 -23937865.42463
  20968625.083    -9245499.111 6  -6984030.26721
  21313619.091   -10234620.996 5  -2238637.60221
 93  5 21 19 12 44.9930000  0  6G19G27G15G 2G26G13
  20880236.9504    -810255.25945   -595711.75461
  18463794.1224  -22741461.42747 -17648297.57863
  21727937.9354   -9679022.02745  -7364660.07461
  18833910.5604  -30918934.51447 -23950066.90563
  20961389.9894   -9283515.64646  -7013653.52561
  21299750.778   -10307509.646 5  -2295433.85021
 93  5 21 19 12 59.9930000  0  6G19G27G15G 2G26G13
  20884987.8254    -785266.95145   -576240.40461
  18464705.1224  -22736661.63147 -17644557.48962
  21724121.5524   -9699056.55745  -7380271.38061
  18830939.6614  -30934555.14848 -23962238.83163
  20954177.817    -9321409.698 6  -7043181.34421
  21285887.3964  -10380353.43045  -2352195.18061
 93  5 21 19 13 14.9930000  0  6G19G27G15G 2G26G13
  20889758.239     -760221.688 5   -556724.66721
  18465641.778   -22731760.527 7 -17640738.45422
  21720334.458    -9718962.619 5  -7395782.60321
  18827971.9034  -30950136.12247 -23974379.84963
  20946991.5914   -9359178.85046  -7072611.83961
  21272033.7944  -10453151.97445  -2408921.24261
 93  5 21 19 13 29.9930000  0  6G19G27G15G 2G26G13
  20894538.7784    -735120.38045   -537165.27161
  18466591.3574  -22726759.99047 -17636841.94763
  21716571.0444   -9738741.08145  -7411194.39361
  18825015.2394  -30965678.34647 -23986490.68363
  20939828.5524   -9396823.16346  -7101945.07761
  21258190.4114  -10525906.00945  -2465612.62461
 93  5 21 19 13 44.9930000  0  6G19G27G15G 2G26G13
  20899329.8804    -709955.96945   -517556.68861
  18467563.9034  -22721655.34847 -17632864.32063
  21712836.817    -9758388.416 5  -7426503.97521
  18822068.5994  -30981176.91048 -23998567.49263
  20932687.5754   -9434341.47446  -7131180.10961
  21244358.9274  -10598611.77945  -2522266.40161
 93  5 21 19 13 59.9930000  0  6G19G27G15G 2G26G13
  20904124.4504    -684732.39845   -497901.97961
  18468553.5284  -22716449.04647 -17628807.46462
  21709117.958    -9777909.659 5  -7441715.32021
  18819124.1074  -30996634.67647 -24010612.50563
  20925570.130    -9471739.240 6  -7160321.20921
  21230525.849   -10671273.916 5  -2578886.19121
 93  5 21 19 14 14.9930000  0  6G19G27G15G 2G26G13
  20908936.3724    -659448.86245   -478200.56861
  18469563.903   -22711138.889 7 -17624669.70122
  21705433.474    -9797301.815 5  -7456826.06321
  18816193.552   -31012047.797 8 -24022622.74723
  20918481.5054   -9509011.01146  -7189364.14061
  21216708.3494  -10743889.46045  -2635469.65261
 93  5 21 19 14 29.9930000  0  6G19G27G15G 2G26G13
  20913757.2244    -634103.61645   -458451.10861
  18470596.107   -22705724.215 7 -17620450.48722
  21701763.942    -9816563.065 6  -7471834.80321
  18813269.2634  -31027415.40848 -24034597.50863
  20911408.317    -9546155.979 6  -7218308.25521
  21202904.357   -10816456.313 5  -2692015.18121
 93  5 21 19 14 44.9930000  0  6G19G27G15G 2G26G13
  20918594.6924    -608701.15345   -438657.05061
  18471643.216   -22700210.867 7 -17616154.38222
  21698124.4894   -9835699.02146  -7486745.94161
  18810349.7474  -31042743.43047 -24046541.42563
  20904363.872    -9583183.551 6  -7247160.91021
  21189099.7164  -10888979.86645  -2748526.97761
 93  5 21 19 14 59.9930000  0  6G19G27G15G 2G26G13
  20923436.8334    -583235.67845   -418813.84861
  18472713.7394  -22694594.90847 -17611778.31762
  21694501.5674   -9854705.94145  -7501556.54461
  18807441.6774  -31058032.77848 -24058455.21263
  20897341.872    -9620088.139 6  -7275917.72421
  21175306.153   -10961456.024 5  -2805001.84021
 93  5 21 19 15 14.9930000  0  6G19G27G15G 2G26G13
  20928292.8254    -557702.16545   -398917.62761
  18473799.896   -22688872.837 7 -17607319.56922
  21690918.2004   -9873580.41045  -7516263.91661
  18804540.2084  -31073281.39948 -24070337.26063
  20890344.5994   -9656865.56746  -7304575.45361
  21161525.575   -11033881.106 5  -2861436.90821
 93  5 21 19 15 29.9930000  0  6G19G27G15G 2G26G13
  20933159.107     -532101.190 5   -378968.86521
  18474913.1384  -22683041.03047 -17602775.31462
  21687347.7784   -9892322.25345  -7530867.90861
  18801646.2324  -31088487.44648 -24082186.13063
  20883368.857    -9693517.759 6  -7333135.59521
  21147754.466   -11106254.437 5  -2917831.63721
 93  5 21 19 15 44.9930000  0  6G19G27G15G 2G26G13
  20938048.9114    -506436.58945   -358970.51561
  18476043.130   -22677099.877 7 -17598145.85023
  21683804.325    -9910935.611 6  -7545371.78721
  18798761.5214  -31103654.61548 -24094004.71463
  20876417.216    -9730050.846 6  -7361602.91521
  21133995.083   -11178580.437 5  -2974189.48321
 93  5 21 19 15 59.9930000  0  6G19G27G15G 2G26G13
  20942946.497     -480705.862 5   -338920.65721
  18477195.4584  -22671042.60247 -17593425.91963
  21680287.5604   -9929416.84546  -7559772.75061
  18795884.0364  -31118779.24948 -24105790.14063
  20869489.5054   -9766458.58546  -7389972.57061
  21120243.3574  -11250855.12445  -3030507.36161
 93  5 21 19 16 14.9930000  0  6G19G27G15G 2G26G13
  20947850.9744    -454917.20845   -318825.66361
  18478368.692   -22664874.181 7 -17588619.37323
  21676797.3574   -9947769.93446  -7574073.85161
  18793012.4504  -31133866.02348 -24117546.07163
  20862584.935    -9802744.145 6  -7418247.00921
  21106497.6224  -11323082.05845  -3086788.01061
 93  5 21 19 16 29.9930000  0  6G19G27G15G 2G26G13
  20952771.0994    -429069.34145   -298684.52761
  18479565.2164  -22658593.11547 -17583725.04363
  21673328.4034   -9965994.87945  -7588275.09661
  18790147.7714  -31148915.98948 -24129273.32663
  20855701.325    -9838909.376 6  -7446427.71221
  21092757.1224  -11395260.97145  -3143031.26261
 93  5 21 19 16 44.9930000  0  6G19G27G15G 2G26G13
  20957701.888     -403158.825 5   -278494.58421
  18480780.8174  -22652197.02547 -17578741.08863
  21669888.677    -9984090.596 6  -7602375.64021
  18787291.3334  -31163927.38748 -24140970.52563
  20848840.8574   -9874958.72546  -7474518.11061
  21079030.2324  -11467390.54145  -3199236.05161
 93  5 21 19 16 59.9930000  0  6G19G27G15G 2G26G13
  20962646.075     -377178.715 5   -258250.39321
  18482021.950   -22645677.622 7 -17573661.05022
  21666469.2554  -10002050.11146  -7616370.09061
  18784442.4664  -31178893.32048 -24152632.29463
  20842007.942    -9910882.750 6  -7502510.83421
  21065316.4744  -11539463.65945  -3255396.85661
 93  5 21 19 17 14.9930000  0  6G19G27G15G 2G26G13
  20967607.669     -351140.224 5   -237960.68421
  18483284.0214  -22639044.34047 -17568492.27062
  21663073.5674  -10019883.03546  -7630265.86761
  18781602.6144  -31193822.23648 -24164265.22463
  20835191.372    -9946689.110 6  -7530411.88921
  21051611.7394  -11611489.44945  -3311520.79661
 93  5 21 19 17 29.9930000  0  6G19G27G15G 2G26G13
  20972569.732     -325043.847 5   -217625.89421
  18484568.950   -22632296.301 7 -17563234.07322
  21659701.489   -10037588.559 6  -7644062.35021
  18778770.4974  -31208708.61648 -24175865.00763
  20828401.1074   -9982377.32846  -7558220.88461
  21037915.4354  -11683467.09945  -3367607.21961
 93  5 21 19 17 44.9930000  0  6G19G27G15G 2G26G13
  20977548.4974    -298880.94445   -197239.31261
  18485872.771   -22625426.389 7 -17557880.91422
  21656359.364   -10055159.751 6  -7657754.13021
  18775946.0834  -31223548.98548 -24187428.93363
  20821634.060   -10017940.604 6  -7585932.51121
  21024229.239   -11755389.298 5  -3423650.45021
 93  5 21 19 17 59.9930000  0  6G19G27G15G 2G26G13
  20982541.802     -272653.750 5   -176802.59221
  18487203.700   -22618439.719 7 -17552436.76822
  21653045.310   -10072598.454 6  -7671342.71121
  18773128.9824  -31238348.88148 -24198961.32863
  20814887.2714  -10053382.02246  -7613549.19561
  21010550.8964  -11827257.58945  -3479651.64661
 93  5 21 19 18 14.9920000  0  6G19G27G15G 2G26G13
  20987548.0784    -246362.34045   -156315.81561
  18488555.5864  -22611338.91247 -17546903.67962
  21649748.992   -10089900.990 6  -7684825.19021
  18770321.3364  -31253106.13648 -24210460.49463
  20808168.445   -10088700.061 6  -7641069.73521
  20996889.711   -11899064.563 5  -3535605.10021
 93  5 21 19 18 29.9920000  0  6G19G27G15G 2G26G13
  20992558.0244    -220007.28445   -135779.45361
  18489928.047   -22604131.680 7 -17541287.66722
  21646480.945   -10107074.353 6  -7698207.04521
  18767520.742   -31267827.483 8 -24221931.68723
  20801465.8364  -10123906.87546  -7668503.60961
  20983235.016   -11970824.096 5  -3591521.52621
 93  5 21 19 18 44.9920000  0  6G19G27G15G 2G26G13
  20997584.328     -193587.850 5   -115192.93021
  18491321.2974  -22596816.86847 -17535587.82762
  21643235.930   -10124116.049 6  -7711486.27121
  18764726.0164  -31282511.51448 -24233373.78763
  20794787.0474  -10158998.41246  -7695847.65661
  20969587.883   -12042529.815 5  -3647396.08121
 93  5 21 19 18 59.9920000  0  6G19G27G15G 2G26G13
  21002620.750     -167109.726 5    -94560.64521
  18492732.352   -22589398.781 7 -17529807.51823
  21640020.914   -10141028.367 6  -7724664.68621
  18761937.5784  -31297162.50148 -24244790.14663
  20788136.8834  -10193974.56446  -7723101.78961
  20955954.219   -12114183.686 5  -3703230.21221
 93  5 21 19 19 14.9920000  0  6G19G27G15G 2G26G13
  21007677.7424    -140574.59645    -73883.95361
  18494163.5084  -22581878.60347 -17523947.65263
  21636827.7664  -10157810.82446  -7737741.91561
  18759155.6024  -31311778.85348 -24256179.51963
  20781501.500   -10228832.369 6  -7750263.71121
  20942329.1254  -12185784.99545  -3759023.35661
 93  5 21 19 19 29.9920000  0  6G19G27G15G 2G26G13
  21012730.4454    -113980.68745    -53161.48761
  18495613.1334  -22574254.29347 -17518006.64063
  21633661.930   -10174459.426 6  -7750714.84721
  18756381.2814  -31326354.36948 -24267537.06763
  20774891.6954  -10263569.10246  -7777331.29561
  20928713.5164  -12257329.62045  -3814772.36161
 93  5 21 19 19 44.9920000  0  6G19G27G15G 2G26G13
  21017802.9774     -87333.00345    -32397.12361
  18497082.555   -22566531.744 7 -17511989.09423
  21630513.4304  -10190979.68745  -7763587.75861
  18753614.8834  -31340898.06148 -24278869.82663
  20768305.0244  -10298191.84946  -7804310.04261
  20915105.617   -12328822.614 5  -3870481.11021
 93  5 21 19 19 59.9920000  0  6G19G27G15G 2G26G13
  21022890.266      -60629.146 5    -11589.00121
  18498570.3524  -22558707.72447 -17505892.46263
  21627395.3284  -10207366.36446  -7776356.58661
  18750853.2034  -31355407.11648 -24290175.58163
  20761738.2274  -10332697.11746  -7831197.26261
  20901511.914   -12400258.672 5  -3926145.53821
 93  5 21 19 20 14.9920000  0  6G19G27G15G 2G26G13
  21027978.063      -33872.475 5      9260.25621
  18500080.7034  -22550785.84747 -17499719.57863
  21624304.2034  -10223622.61746  -7789023.79961
  18748101.0634  -31369880.97148 -24301453.91363
  20755195.1884  -10367086.21346  -7857993.95861
  20887926.9454  -12471640.73745  -3981767.88661
 93  5 21 19 20 29.9920000  0  6G19G27G15G 2G26G13
  21033080.8674      -7061.03545     30152.24961
  18501606.797   -22542763.449 7 -17493468.37723
  21621230.9774  -10239747.91045  -7801588.97961
  18745352.4694  -31384317.99247 -24312703.53663
  20748674.672   -10401353.816 6  -7884695.97421
  20874356.305   -12542967.866 5  -4037347.37821
 93  5 21 19 20 44.9920000  0  6G19G27G15G 2G26G13
  21038196.695       19808.260 5     51089.31621
  18503152.8834  -22534632.17047 -17487132.32462
  21618190.5164  -10255737.97045  -7814048.76961
  18742613.6494  -31398714.02448 -24323921.22963
  20742173.7344  -10435491.35246  -7911296.65561
  20860798.3594  -12614235.42845  -4092880.48861
 93  5 21 19 20 59.9920000  0  6G19G27G15G 2G26G13
  21043312.820       46730.685 5     72067.77321
  18504721.453   -22526394.686 7 -17480713.52222
  21615171.977   -10271597.123 5  -7826406.54221
  18739879.7974  -31413073.54648 -24335110.47163
  20735703.3834  -10469503.97846  -7937799.98361
  20847240.4924  -12685447.67145  -4148370.48861
 93  5 21 19 21 14.9920000  0  6G19G27G15G 2G26G13
  21048452.3834      73712.41545     93092.39761
  18506309.3754  -22518041.98547 -17474204.94062
  21612183.8834  -10287318.27846  -7838656.77461
  18737158.1094  -31427387.36148 -24346264.10263
  20729257.4144  -10503383.92346  -7964199.93161
  20833699.805   -12756597.215 5  -4203811.65621
 93  5 21 19 21 29.9920000  0  6G19G27G15G 2G26G13
  21053594.7974     100751.54845    114161.81761
  18507922.563   -22509573.730 7 -17467606.31022
  21609213.078   -10302904.093 5  -7850801.55321
  18734440.1954  -31441655.48747 -24357382.13063
  20722831.0944  -10537134.45646  -7990499.05261
  20820175.5554  -12827686.23245  -4259205.64661
 93  5 21 19 21 44.9920000  0  6G19G27G15G 2G26G13
  21058754.5554     127844.65345    135273.31161
  18509557.508   -22500993.337 7 -17460920.31422
  21606274.524   -10318359.561 5  -7862844.79121
  18731733.7584  -31455886.93747 -24368471.57463
  20716436.1174  -10570760.69546  -8016701.31161
  20806656.5554  -12898719.39045  -4314556.12561
 93  5 21 19 21 59.9920000  0  6G19G27G15G 2G26G13
  21063918.7424     154991.14545    156426.38661
  18511208.875   -22492300.375 7 -17454146.59222
  21603361.024   -10333686.467 5  -7874787.83521
  18729030.5634  -31470085.64347 -24379535.49963
  20710059.2664  -10604262.11246  -8042806.31461
  20793149.3364  -12969698.41045  -4369864.40061
 93  5 21 19 22 14.9920000  0  6G19G27G15G 2G26G13
  21069099.524      182193.584 5    177623.03621
  18512886.383   -22483493.458 7 -17447284.07322
  21600469.711   -10348882.718 5  -7886629.07421
  18726336.6564  -31484244.78448 -24390568.60463
  20703708.016   -10637631.942 6  -8068808.78021
  20779656.524   -13040620.889 5  -4425128.59421
 93  5 21 19 22 29.9920000  0  6G19G27G15G 2G26G13
  21074283.031      209457.130 5    198867.27521
  18514583.594   -22474565.975 7 -17440327.60822
  21597597.289   -10363944.174 5  -7898365.27821
  18723650.9614  -31498359.95548 -24401567.43763
  20697386.2814  -10670864.06646  -8094703.92861
  20766173.688   -13111482.296 5  -4480345.25421
 93  5 21 19 22 44.9920000  0  6G19G27G15G 2G26G13
  21079482.688      236776.162 5    220154.75821
  18516304.4924  -22465521.64347 -17433280.09562
  21594757.5784  -10378875.78145  -7910000.27661
  18720972.1884  -31512436.66948 -24412536.31063
  20691088.0244  -10703965.92546  -8120497.57061
  20752694.8054  -13182287.39245  -4535517.99061
 93  5 21 19 22 59.9920000  0  6G19G27G15G 2G26G13
  21084689.461      264155.313 5    241489.08621
  18518045.664   -22456357.562 7 -17426139.26023
  21591937.8674  -10393673.72245  -7921531.11061
  18718302.2194  -31526471.49348 -24423472.54363
  20684810.6884  -10736937.11646  -8146189.40761
  20739233.680   -13253031.869 5  -4590643.51121
 93  5 21 19 23 14.9920000  0  6G19G27G15G 2G26G13
  21089919.1024     291596.60545    262871.86461
  18519817.0944  -22447073.61747 -17418905.01962
  21589151.9534  -10408335.64845  -7932955.95961
  18715637.7274  -31540462.27548 -24434374.45463
  20678562.3054  -10769773.72046  -8171776.32661
  20725786.6644  -13323713.35845  -4645719.92961
